<?xml version="1.0" encoding="UTF-8" standalone="no" ?>
<gpx xmlns="http://www.topografix.com/GPX/1/1" xmlns:xsi="http://www.w3.org/2001/XMLSchema-instance" xsi:schemaLocation="http://www.topografix.com/GPX/1/1 http://www.topografix.com/GPX/1/1/gpx.xsd" version="1.1" creator="VisuGPX - https://www.visugpx.com">
  <metadata>
    <name>Pic des 3 Seigneurs 2199 m en boucle</name>
    <desc><![CDATA[Très belle rando automnale avec divers traversées de paysages . Panorama à 360°.]]></desc>
  </metadata>
  <trk>
    <name><![CDATA[Pic des 3 Seigneurs.Boucle. 27 10 16]]></name>
    <trkseg>
      <trkpt lat="42.84061" lon="1.48536">
        <ele>1047.97</ele>
        <time>2016-10-27T06:21:45Z</time>
      </trkpt>
      <trkpt lat="42.84045" lon="1.48486">
        <ele>1053.26</ele>
        <time>2016-10-27T06:23:01Z</time>
      </trkpt>
      <trkpt lat="42.84031" lon="1.48476">
        <ele>1054.7</ele>
        <time>2016-10-27T06:23:14Z</time>
      </trkpt>
      <trkpt lat="42.84025" lon="1.48447">
        <ele>1056.15</ele>
        <time>2016-10-27T06:23:35Z</time>
      </trkpt>
      <trkpt lat="42.84015" lon="1.48412">
        <ele>1058.07</ele>
        <time>2016-10-27T06:23:58Z</time>
      </trkpt>
      <trkpt lat="42.84001" lon="1.48308">
        <ele>1061.91</ele>
        <time>2016-10-27T06:25:08Z</time>
      </trkpt>
      <trkpt lat="42.83997" lon="1.48298">
        <ele>1061.91</ele>
        <time>2016-10-27T06:25:12Z</time>
      </trkpt>
      <trkpt lat="42.83992" lon="1.48266">
        <ele>1062.39</ele>
        <time>2016-10-27T06:25:29Z</time>
      </trkpt>
      <trkpt lat="42.83994" lon="1.48238">
        <ele>1062.87</ele>
        <time>2016-10-27T06:25:52Z</time>
      </trkpt>
      <trkpt lat="42.83988" lon="1.48196">
        <ele>1063.36</ele>
        <time>2016-10-27T06:26:13Z</time>
      </trkpt>
      <trkpt lat="42.83979" lon="1.48085">
        <ele>1068.16</ele>
        <time>2016-10-27T06:27:16Z</time>
      </trkpt>
      <trkpt lat="42.83974" lon="1.48048">
        <ele>1070.08</ele>
        <time>2016-10-27T06:27:40Z</time>
      </trkpt>
      <trkpt lat="42.83969" lon="1.48022">
        <ele>1070.57</ele>
        <time>2016-10-27T06:27:50Z</time>
      </trkpt>
      <trkpt lat="42.83963" lon="1.48004">
        <ele>1071.05</ele>
        <time>2016-10-27T06:28:01Z</time>
      </trkpt>
      <trkpt lat="42.83958" lon="1.47956">
        <ele>1075.85</ele>
        <time>2016-10-27T06:28:43Z</time>
      </trkpt>
      <trkpt lat="42.83947" lon="1.47932">
        <ele>1077.78</ele>
        <time>2016-10-27T06:28:56Z</time>
      </trkpt>
      <trkpt lat="42.8395" lon="1.47912">
        <ele>1079.7</ele>
        <time>2016-10-27T06:29:10Z</time>
      </trkpt>
      <trkpt lat="42.83911" lon="1.47892">
        <ele>1082.1</ele>
        <time>2016-10-27T06:29:31Z</time>
      </trkpt>
      <trkpt lat="42.83857" lon="1.47879">
        <ele>1084.99</ele>
        <time>2016-10-27T06:29:52Z</time>
      </trkpt>
      <trkpt lat="42.83858" lon="1.47875">
        <ele>1084.99</ele>
        <time>2016-10-27T06:29:53Z</time>
      </trkpt>
      <trkpt lat="42.8388" lon="1.47835">
        <ele>1086.91</ele>
        <time>2016-10-27T06:30:13Z</time>
      </trkpt>
      <trkpt lat="42.83874" lon="1.478">
        <ele>1087.87</ele>
        <time>2016-10-27T06:30:33Z</time>
      </trkpt>
      <trkpt lat="42.83885" lon="1.47754">
        <ele>1087.87</ele>
        <time>2016-10-27T06:30:58Z</time>
      </trkpt>
      <trkpt lat="42.83885" lon="1.47743">
        <ele>1089.31</ele>
        <time>2016-10-27T06:31:04Z</time>
      </trkpt>
      <trkpt lat="42.8388" lon="1.47728">
        <ele>1089.31</ele>
        <time>2016-10-27T06:31:14Z</time>
      </trkpt>
      <trkpt lat="42.83892" lon="1.47702">
        <ele>1088.83</ele>
        <time>2016-10-27T06:31:34Z</time>
      </trkpt>
      <trkpt lat="42.83881" lon="1.47657">
        <ele>1088.35</ele>
        <time>2016-10-27T06:31:55Z</time>
      </trkpt>
      <trkpt lat="42.83885" lon="1.47629">
        <ele>1088.35</ele>
        <time>2016-10-27T06:32:18Z</time>
      </trkpt>
      <trkpt lat="42.83888" lon="1.47614">
        <ele>1088.35</ele>
        <time>2016-10-27T06:32:45Z</time>
      </trkpt>
      <trkpt lat="42.83867" lon="1.47594">
        <ele>1087.87</ele>
        <time>2016-10-27T06:33:00Z</time>
      </trkpt>
      <trkpt lat="42.8385" lon="1.4758">
        <ele>1086.91</ele>
        <time>2016-10-27T06:33:12Z</time>
      </trkpt>
      <trkpt lat="42.83851" lon="1.4757">
        <ele>1087.39</ele>
        <time>2016-10-27T06:33:36Z</time>
      </trkpt>
      <trkpt lat="42.8384" lon="1.47555">
        <ele>1089.79</ele>
        <time>2016-10-27T06:33:59Z</time>
      </trkpt>
      <trkpt lat="42.83825" lon="1.4752">
        <ele>1091.71</ele>
        <time>2016-10-27T06:34:21Z</time>
      </trkpt>
      <trkpt lat="42.83817" lon="1.47494">
        <ele>1094.6</ele>
        <time>2016-10-27T06:34:41Z</time>
      </trkpt>
      <trkpt lat="42.83812" lon="1.4748">
        <ele>1093.64</ele>
        <time>2016-10-27T06:34:53Z</time>
      </trkpt>
      <trkpt lat="42.8381" lon="1.47476">
        <ele>1095.56</ele>
        <time>2016-10-27T06:34:55Z</time>
      </trkpt>
      <trkpt lat="42.83806" lon="1.47465">
        <ele>1096.52</ele>
        <time>2016-10-27T06:35:10Z</time>
      </trkpt>
      <trkpt lat="42.83798" lon="1.47495">
        <ele>1097.96</ele>
        <time>2016-10-27T06:35:28Z</time>
      </trkpt>
      <trkpt lat="42.83802" lon="1.47528">
        <ele>1100.37</ele>
        <time>2016-10-27T06:35:52Z</time>
      </trkpt>
      <trkpt lat="42.83803" lon="1.47555">
        <ele>1102.77</ele>
        <time>2016-10-27T06:36:14Z</time>
      </trkpt>
      <trkpt lat="42.83811" lon="1.47582">
        <ele>1105.65</ele>
        <time>2016-10-27T06:36:35Z</time>
      </trkpt>
      <trkpt lat="42.83814" lon="1.47609">
        <ele>1107.1</ele>
        <time>2016-10-27T06:36:56Z</time>
      </trkpt>
      <trkpt lat="42.83814" lon="1.47613">
        <ele>1108.54</ele>
        <time>2016-10-27T06:37:00Z</time>
      </trkpt>
      <trkpt lat="42.83804" lon="1.47644">
        <ele>1110.46</ele>
        <time>2016-10-27T06:37:24Z</time>
      </trkpt>
      <trkpt lat="42.83801" lon="1.47683">
        <ele>1112.86</ele>
        <time>2016-10-27T06:37:49Z</time>
      </trkpt>
      <trkpt lat="42.83792" lon="1.47718">
        <ele>1114.79</ele>
        <time>2016-10-27T06:38:13Z</time>
      </trkpt>
      <trkpt lat="42.83795" lon="1.47741">
        <ele>1117.19</ele>
        <time>2016-10-27T06:38:33Z</time>
      </trkpt>
      <trkpt lat="42.83796" lon="1.47771">
        <ele>1119.11</ele>
        <time>2016-10-27T06:38:56Z</time>
      </trkpt>
      <trkpt lat="42.83793" lon="1.47797">
        <ele>1120.55</ele>
        <time>2016-10-27T06:39:13Z</time>
      </trkpt>
      <trkpt lat="42.83795" lon="1.4781">
        <ele>1122</ele>
        <time>2016-10-27T06:39:24Z</time>
      </trkpt>
      <trkpt lat="42.83799" lon="1.47823">
        <ele>1123.44</ele>
        <time>2016-10-27T06:39:35Z</time>
      </trkpt>
      <trkpt lat="42.83803" lon="1.47845">
        <ele>1124.88</ele>
        <time>2016-10-27T06:39:50Z</time>
      </trkpt>
      <trkpt lat="42.83795" lon="1.47869">
        <ele>1127.28</ele>
        <time>2016-10-27T06:40:10Z</time>
      </trkpt>
      <trkpt lat="42.83793" lon="1.47873">
        <ele>1127.28</ele>
        <time>2016-10-27T06:40:13Z</time>
      </trkpt>
      <trkpt lat="42.83781" lon="1.47897">
        <ele>1129.69</ele>
        <time>2016-10-27T06:40:34Z</time>
      </trkpt>
      <trkpt lat="42.8378" lon="1.4791">
        <ele>1131.61</ele>
        <time>2016-10-27T06:40:45Z</time>
      </trkpt>
      <trkpt lat="42.83771" lon="1.47912">
        <ele>1133.53</ele>
        <time>2016-10-27T06:41:04Z</time>
      </trkpt>
      <trkpt lat="42.8377" lon="1.47891">
        <ele>1135.94</ele>
        <time>2016-10-27T06:41:22Z</time>
      </trkpt>
      <trkpt lat="42.8377" lon="1.47883">
        <ele>1137.86</ele>
        <time>2016-10-27T06:41:33Z</time>
      </trkpt>
      <trkpt lat="42.83767" lon="1.47859">
        <ele>1138.82</ele>
        <time>2016-10-27T06:41:53Z</time>
      </trkpt>
      <trkpt lat="42.83755" lon="1.47848">
        <ele>1141.22</ele>
        <time>2016-10-27T06:42:15Z</time>
      </trkpt>
      <trkpt lat="42.83755" lon="1.47839">
        <ele>1142.18</ele>
        <time>2016-10-27T06:42:39Z</time>
      </trkpt>
      <trkpt lat="42.83748" lon="1.47824">
        <ele>1143.63</ele>
        <time>2016-10-27T06:42:58Z</time>
      </trkpt>
      <trkpt lat="42.83748" lon="1.47822">
        <ele>1145.07</ele>
        <time>2016-10-27T06:43:00Z</time>
      </trkpt>
      <trkpt lat="42.83743" lon="1.47813">
        <ele>1146.99</ele>
        <time>2016-10-27T06:43:11Z</time>
      </trkpt>
      <trkpt lat="42.8374" lon="1.47796">
        <ele>1150.84</ele>
        <time>2016-10-27T06:43:32Z</time>
      </trkpt>
      <trkpt lat="42.83735" lon="1.47768">
        <ele>1154.2</ele>
        <time>2016-10-27T06:43:55Z</time>
      </trkpt>
      <trkpt lat="42.83734" lon="1.47764">
        <ele>1155.64</ele>
        <time>2016-10-27T06:44:02Z</time>
      </trkpt>
      <trkpt lat="42.83728" lon="1.47748">
        <ele>1158.05</ele>
        <time>2016-10-27T06:44:20Z</time>
      </trkpt>
      <trkpt lat="42.83719" lon="1.47735">
        <ele>1161.89</ele>
        <time>2016-10-27T06:44:36Z</time>
      </trkpt>
      <trkpt lat="42.83719" lon="1.47735">
        <ele>1161.89</ele>
        <time>2016-10-27T06:44:37Z</time>
      </trkpt>
      <trkpt lat="42.83714" lon="1.47721">
        <ele>1165.26</ele>
        <time>2016-10-27T06:44:54Z</time>
      </trkpt>
      <trkpt lat="42.83713" lon="1.47718">
        <ele>1165.26</ele>
        <time>2016-10-27T06:44:58Z</time>
      </trkpt>
      <trkpt lat="42.83709" lon="1.47701">
        <ele>1168.14</ele>
        <time>2016-10-27T06:45:16Z</time>
      </trkpt>
      <trkpt lat="42.83702" lon="1.47687">
        <ele>1171.5</ele>
        <time>2016-10-27T06:45:33Z</time>
      </trkpt>
      <trkpt lat="42.837" lon="1.47684">
        <ele>1171.98</ele>
        <time>2016-10-27T06:45:37Z</time>
      </trkpt>
      <trkpt lat="42.83694" lon="1.47665">
        <ele>1174.87</ele>
        <time>2016-10-27T06:45:58Z</time>
      </trkpt>
      <trkpt lat="42.83685" lon="1.47649">
        <ele>1178.23</ele>
        <time>2016-10-27T06:46:18Z</time>
      </trkpt>
      <trkpt lat="42.83683" lon="1.47644">
        <ele>1179.67</ele>
        <time>2016-10-27T06:46:25Z</time>
      </trkpt>
      <trkpt lat="42.83679" lon="1.4764">
        <ele>1180.64</ele>
        <time>2016-10-27T06:46:32Z</time>
      </trkpt>
      <trkpt lat="42.83676" lon="1.47632">
        <ele>1181.6</ele>
        <time>2016-10-27T06:46:39Z</time>
      </trkpt>
      <trkpt lat="42.83674" lon="1.47628">
        <ele>1183.04</ele>
        <time>2016-10-27T06:46:43Z</time>
      </trkpt>
      <trkpt lat="42.83668" lon="1.47613">
        <ele>1184.96</ele>
        <time>2016-10-27T06:47:01Z</time>
      </trkpt>
      <trkpt lat="42.83661" lon="1.47587">
        <ele>1187.85</ele>
        <time>2016-10-27T06:47:24Z</time>
      </trkpt>
      <trkpt lat="42.83656" lon="1.47571">
        <ele>1189.29</ele>
        <time>2016-10-27T06:47:36Z</time>
      </trkpt>
      <trkpt lat="42.83645" lon="1.47543">
        <ele>1191.69</ele>
        <time>2016-10-27T06:47:59Z</time>
      </trkpt>
      <trkpt lat="42.83659" lon="1.4754">
        <ele>1188.33</ele>
        <time>2016-10-27T06:51:44Z</time>
      </trkpt>
      <trkpt lat="42.83661" lon="1.4754">
        <ele>1188.33</ele>
        <time>2016-10-27T06:51:58Z</time>
      </trkpt>
      <trkpt lat="42.83663" lon="1.47529">
        <ele>1188.81</ele>
        <time>2016-10-27T06:52:23Z</time>
      </trkpt>
      <trkpt lat="42.8366" lon="1.47528">
        <ele>1187.37</ele>
        <time>2016-10-27T06:52:32Z</time>
      </trkpt>
      <trkpt lat="42.8366" lon="1.47529">
        <ele>1190.73</ele>
        <time>2016-10-27T06:52:34Z</time>
      </trkpt>
      <trkpt lat="42.83658" lon="1.47514">
        <ele>1190.73</ele>
        <time>2016-10-27T06:52:55Z</time>
      </trkpt>
      <trkpt lat="42.83656" lon="1.47493">
        <ele>1192.17</ele>
        <time>2016-10-27T06:53:12Z</time>
      </trkpt>
      <trkpt lat="42.83656" lon="1.4748">
        <ele>1192.65</ele>
        <time>2016-10-27T06:53:23Z</time>
      </trkpt>
      <trkpt lat="42.83654" lon="1.47466">
        <ele>1196.5</ele>
        <time>2016-10-27T06:53:35Z</time>
      </trkpt>
      <trkpt lat="42.83654" lon="1.47459">
        <ele>1196.98</ele>
        <time>2016-10-27T06:53:42Z</time>
      </trkpt>
      <trkpt lat="42.83656" lon="1.47447">
        <ele>1196.5</ele>
        <time>2016-10-27T06:53:57Z</time>
      </trkpt>
      <trkpt lat="42.83654" lon="1.47439">
        <ele>1199.38</ele>
        <time>2016-10-27T06:54:09Z</time>
      </trkpt>
      <trkpt lat="42.83645" lon="1.4743">
        <ele>1201.3</ele>
        <time>2016-10-27T06:54:28Z</time>
      </trkpt>
      <trkpt lat="42.83632" lon="1.47419">
        <ele>1202.75</ele>
        <time>2016-10-27T06:54:48Z</time>
      </trkpt>
      <trkpt lat="42.83631" lon="1.47416">
        <ele>1204.67</ele>
        <time>2016-10-27T06:54:50Z</time>
      </trkpt>
      <trkpt lat="42.8363" lon="1.47413">
        <ele>1204.19</ele>
        <time>2016-10-27T06:54:52Z</time>
      </trkpt>
      <trkpt lat="42.83628" lon="1.47398">
        <ele>1205.15</ele>
        <time>2016-10-27T06:55:00Z</time>
      </trkpt>
      <trkpt lat="42.83621" lon="1.4738">
        <ele>1208.03</ele>
        <time>2016-10-27T06:55:18Z</time>
      </trkpt>
      <trkpt lat="42.83616" lon="1.47373">
        <ele>1209</ele>
        <time>2016-10-27T06:55:27Z</time>
      </trkpt>
      <trkpt lat="42.83611" lon="1.47357">
        <ele>1212.36</ele>
        <time>2016-10-27T06:55:43Z</time>
      </trkpt>
      <trkpt lat="42.8361" lon="1.47339">
        <ele>1214.76</ele>
        <time>2016-10-27T06:56:01Z</time>
      </trkpt>
      <trkpt lat="42.83605" lon="1.4733">
        <ele>1217.65</ele>
        <time>2016-10-27T06:56:15Z</time>
      </trkpt>
      <trkpt lat="42.83597" lon="1.47317">
        <ele>1218.61</ele>
        <time>2016-10-27T06:56:34Z</time>
      </trkpt>
      <trkpt lat="42.83595" lon="1.47314">
        <ele>1220.53</ele>
        <time>2016-10-27T06:56:37Z</time>
      </trkpt>
      <trkpt lat="42.83588" lon="1.47297">
        <ele>1223.42</ele>
        <time>2016-10-27T06:56:55Z</time>
      </trkpt>
      <trkpt lat="42.83587" lon="1.47291">
        <ele>1223.9</ele>
        <time>2016-10-27T06:57:12Z</time>
      </trkpt>
      <trkpt lat="42.83585" lon="1.4729">
        <ele>1222.45</ele>
        <time>2016-10-27T06:57:27Z</time>
      </trkpt>
      <trkpt lat="42.83584" lon="1.47289">
        <ele>1224.38</ele>
        <time>2016-10-27T06:57:29Z</time>
      </trkpt>
      <trkpt lat="42.83582" lon="1.47286">
        <ele>1227.74</ele>
        <time>2016-10-27T06:57:41Z</time>
      </trkpt>
      <trkpt lat="42.8358" lon="1.47286">
        <ele>1228.22</ele>
        <time>2016-10-27T06:57:48Z</time>
      </trkpt>
      <trkpt lat="42.83577" lon="1.47284">
        <ele>1230.62</ele>
        <time>2016-10-27T06:57:57Z</time>
      </trkpt>
      <trkpt lat="42.83565" lon="1.47279">
        <ele>1232.07</ele>
        <time>2016-10-27T06:58:14Z</time>
      </trkpt>
      <trkpt lat="42.83562" lon="1.47276">
        <ele>1232.07</ele>
        <time>2016-10-27T06:58:18Z</time>
      </trkpt>
      <trkpt lat="42.8356" lon="1.47261">
        <ele>1231.59</ele>
        <time>2016-10-27T06:58:31Z</time>
      </trkpt>
      <trkpt lat="42.83561" lon="1.47259">
        <ele>1233.03</ele>
        <time>2016-10-27T06:58:33Z</time>
      </trkpt>
      <trkpt lat="42.83562" lon="1.47257">
        <ele>1231.59</ele>
        <time>2016-10-27T06:58:35Z</time>
      </trkpt>
      <trkpt lat="42.83565" lon="1.47254">
        <ele>1233.51</ele>
        <time>2016-10-27T06:58:39Z</time>
      </trkpt>
      <trkpt lat="42.83563" lon="1.47234">
        <ele>1233.03</ele>
        <time>2016-10-27T06:58:58Z</time>
      </trkpt>
      <trkpt lat="42.83563" lon="1.47234">
        <ele>1233.03</ele>
        <time>2016-10-27T06:58:59Z</time>
      </trkpt>
      <trkpt lat="42.83559" lon="1.47227">
        <ele>1234.47</ele>
        <time>2016-10-27T06:59:08Z</time>
      </trkpt>
      <trkpt lat="42.83551" lon="1.47225">
        <ele>1238.32</ele>
        <time>2016-10-27T06:59:19Z</time>
      </trkpt>
      <trkpt lat="42.83544" lon="1.47214">
        <ele>1241.2</ele>
        <time>2016-10-27T06:59:33Z</time>
      </trkpt>
      <trkpt lat="42.83538" lon="1.47208">
        <ele>1242.64</ele>
        <time>2016-10-27T06:59:40Z</time>
      </trkpt>
      <trkpt lat="42.83528" lon="1.47212">
        <ele>1245.04</ele>
        <time>2016-10-27T07:00:04Z</time>
      </trkpt>
      <trkpt lat="42.83527" lon="1.47211">
        <ele>1245.04</ele>
        <time>2016-10-27T07:00:05Z</time>
      </trkpt>
      <trkpt lat="42.83515" lon="1.47213">
        <ele>1248.41</ele>
        <time>2016-10-27T07:00:24Z</time>
      </trkpt>
      <trkpt lat="42.83506" lon="1.47214">
        <ele>1249.37</ele>
        <time>2016-10-27T07:00:34Z</time>
      </trkpt>
      <trkpt lat="42.83501" lon="1.47214">
        <ele>1250.33</ele>
        <time>2016-10-27T07:00:41Z</time>
      </trkpt>
      <trkpt lat="42.83497" lon="1.47207">
        <ele>1249.37</ele>
        <time>2016-10-27T07:00:50Z</time>
      </trkpt>
      <trkpt lat="42.83496" lon="1.47205">
        <ele>1251.77</ele>
        <time>2016-10-27T07:00:52Z</time>
      </trkpt>
      <trkpt lat="42.83492" lon="1.472">
        <ele>1250.33</ele>
        <time>2016-10-27T07:00:57Z</time>
      </trkpt>
      <trkpt lat="42.83491" lon="1.47199">
        <ele>1251.77</ele>
        <time>2016-10-27T07:00:59Z</time>
      </trkpt>
      <trkpt lat="42.83484" lon="1.47196">
        <ele>1251.77</ele>
        <time>2016-10-27T07:01:06Z</time>
      </trkpt>
      <trkpt lat="42.83476" lon="1.47192">
        <ele>1253.22</ele>
        <time>2016-10-27T07:01:11Z</time>
      </trkpt>
      <trkpt lat="42.8346" lon="1.47183">
        <ele>1255.14</ele>
        <time>2016-10-27T07:01:32Z</time>
      </trkpt>
      <trkpt lat="42.83456" lon="1.47174">
        <ele>1254.66</ele>
        <time>2016-10-27T07:01:39Z</time>
      </trkpt>
      <trkpt lat="42.83449" lon="1.47156">
        <ele>1259.46</ele>
        <time>2016-10-27T07:01:54Z</time>
      </trkpt>
      <trkpt lat="42.83448" lon="1.47154">
        <ele>1258.98</ele>
        <time>2016-10-27T07:01:58Z</time>
      </trkpt>
      <trkpt lat="42.83447" lon="1.4715">
        <ele>1259.46</ele>
        <time>2016-10-27T07:02:03Z</time>
      </trkpt>
      <trkpt lat="42.83443" lon="1.47147">
        <ele>1260.91</ele>
        <time>2016-10-27T07:02:09Z</time>
      </trkpt>
      <trkpt lat="42.83439" lon="1.4714">
        <ele>1262.35</ele>
        <time>2016-10-27T07:02:18Z</time>
      </trkpt>
      <trkpt lat="42.83431" lon="1.47137">
        <ele>1264.27</ele>
        <time>2016-10-27T07:02:33Z</time>
      </trkpt>
      <trkpt lat="42.83417" lon="1.47122">
        <ele>1266.19</ele>
        <time>2016-10-27T07:02:52Z</time>
      </trkpt>
      <trkpt lat="42.83416" lon="1.47119">
        <ele>1267.64</ele>
        <time>2016-10-27T07:02:55Z</time>
      </trkpt>
      <trkpt lat="42.83404" lon="1.47108">
        <ele>1267.16</ele>
        <time>2016-10-27T07:03:12Z</time>
      </trkpt>
      <trkpt lat="42.83403" lon="1.47107">
        <ele>1269.08</ele>
        <time>2016-10-27T07:03:14Z</time>
      </trkpt>
      <trkpt lat="42.83386" lon="1.47106">
        <ele>1272.44</ele>
        <time>2016-10-27T07:03:33Z</time>
      </trkpt>
      <trkpt lat="42.83386" lon="1.47106">
        <ele>1272.44</ele>
        <time>2016-10-27T07:03:34Z</time>
      </trkpt>
      <trkpt lat="42.83379" lon="1.4711">
        <ele>1274.36</ele>
        <time>2016-10-27T07:03:45Z</time>
      </trkpt>
      <trkpt lat="42.83378" lon="1.4711">
        <ele>1272.92</ele>
        <time>2016-10-27T07:03:47Z</time>
      </trkpt>
      <trkpt lat="42.83366" lon="1.47112">
        <ele>1276.29</ele>
        <time>2016-10-27T07:03:56Z</time>
      </trkpt>
      <trkpt lat="42.83365" lon="1.47111">
        <ele>1276.29</ele>
        <time>2016-10-27T07:03:57Z</time>
      </trkpt>
      <trkpt lat="42.83357" lon="1.47096">
        <ele>1275.81</ele>
        <time>2016-10-27T07:04:15Z</time>
      </trkpt>
      <trkpt lat="42.83354" lon="1.47093">
        <ele>1277.25</ele>
        <time>2016-10-27T07:04:17Z</time>
      </trkpt>
      <trkpt lat="42.83347" lon="1.47084">
        <ele>1279.65</ele>
        <time>2016-10-27T07:04:30Z</time>
      </trkpt>
      <trkpt lat="42.83332" lon="1.47074">
        <ele>1283.02</ele>
        <time>2016-10-27T07:04:49Z</time>
      </trkpt>
      <trkpt lat="42.83327" lon="1.47075">
        <ele>1283.02</ele>
        <time>2016-10-27T07:04:58Z</time>
      </trkpt>
      <trkpt lat="42.83317" lon="1.47074">
        <ele>1285.42</ele>
        <time>2016-10-27T07:05:07Z</time>
      </trkpt>
      <trkpt lat="42.83297" lon="1.47071">
        <ele>1289.27</ele>
        <time>2016-10-27T07:05:28Z</time>
      </trkpt>
      <trkpt lat="42.8329" lon="1.47069">
        <ele>1288.78</ele>
        <time>2016-10-27T07:05:37Z</time>
      </trkpt>
      <trkpt lat="42.83288" lon="1.47067">
        <ele>1290.71</ele>
        <time>2016-10-27T07:05:40Z</time>
      </trkpt>
      <trkpt lat="42.83282" lon="1.47047">
        <ele>1292.63</ele>
        <time>2016-10-27T07:05:57Z</time>
      </trkpt>
      <trkpt lat="42.8328" lon="1.47044">
        <ele>1292.63</ele>
        <time>2016-10-27T07:06:04Z</time>
      </trkpt>
      <trkpt lat="42.8328" lon="1.47043">
        <ele>1295.03</ele>
        <time>2016-10-27T07:06:05Z</time>
      </trkpt>
      <trkpt lat="42.83272" lon="1.47033">
        <ele>1297.92</ele>
        <time>2016-10-27T07:06:18Z</time>
      </trkpt>
      <trkpt lat="42.83265" lon="1.47021">
        <ele>1300.32</ele>
        <time>2016-10-27T07:06:37Z</time>
      </trkpt>
      <trkpt lat="42.83254" lon="1.47018">
        <ele>1303.2</ele>
        <time>2016-10-27T07:06:54Z</time>
      </trkpt>
      <trkpt lat="42.83246" lon="1.47009">
        <ele>1306.09</ele>
        <time>2016-10-27T07:07:12Z</time>
      </trkpt>
      <trkpt lat="42.83242" lon="1.47004">
        <ele>1308.49</ele>
        <time>2016-10-27T07:07:25Z</time>
      </trkpt>
      <trkpt lat="42.83234" lon="1.47">
        <ele>1310.9</ele>
        <time>2016-10-27T07:07:39Z</time>
      </trkpt>
      <trkpt lat="42.83232" lon="1.47">
        <ele>1309.45</ele>
        <time>2016-10-27T07:07:41Z</time>
      </trkpt>
      <trkpt lat="42.83229" lon="1.47002">
        <ele>1311.38</ele>
        <time>2016-10-27T07:07:45Z</time>
      </trkpt>
      <trkpt lat="42.8322" lon="1.47004">
        <ele>1314.74</ele>
        <time>2016-10-27T07:07:59Z</time>
      </trkpt>
      <trkpt lat="42.83217" lon="1.47005">
        <ele>1315.7</ele>
        <time>2016-10-27T07:08:03Z</time>
      </trkpt>
      <trkpt lat="42.83206" lon="1.46998">
        <ele>1317.62</ele>
        <time>2016-10-27T07:08:20Z</time>
      </trkpt>
      <trkpt lat="42.83202" lon="1.46996">
        <ele>1320.03</ele>
        <time>2016-10-27T07:08:26Z</time>
      </trkpt>
      <trkpt lat="42.83193" lon="1.47003">
        <ele>1322.91</ele>
        <time>2016-10-27T07:08:39Z</time>
      </trkpt>
      <trkpt lat="42.8319" lon="1.46998">
        <ele>1323.39</ele>
        <time>2016-10-27T07:08:48Z</time>
      </trkpt>
      <trkpt lat="42.83186" lon="1.4699">
        <ele>1325.8</ele>
        <time>2016-10-27T07:08:58Z</time>
      </trkpt>
      <trkpt lat="42.83183" lon="1.46976">
        <ele>1326.28</ele>
        <time>2016-10-27T07:09:10Z</time>
      </trkpt>
      <trkpt lat="42.83179" lon="1.46969">
        <ele>1328.2</ele>
        <time>2016-10-27T07:09:21Z</time>
      </trkpt>
      <trkpt lat="42.83173" lon="1.46957">
        <ele>1332.04</ele>
        <time>2016-10-27T07:09:40Z</time>
      </trkpt>
      <trkpt lat="42.83171" lon="1.46957">
        <ele>1333.97</ele>
        <time>2016-10-27T07:09:50Z</time>
      </trkpt>
      <trkpt lat="42.83162" lon="1.4696">
        <ele>1337.33</ele>
        <time>2016-10-27T07:10:07Z</time>
      </trkpt>
      <trkpt lat="42.83157" lon="1.46957">
        <ele>1338.29</ele>
        <time>2016-10-27T07:10:15Z</time>
      </trkpt>
      <trkpt lat="42.8315" lon="1.46951">
        <ele>1341.18</ele>
        <time>2016-10-27T07:10:33Z</time>
      </trkpt>
      <trkpt lat="42.83141" lon="1.4695">
        <ele>1346.46</ele>
        <time>2016-10-27T07:11:04Z</time>
      </trkpt>
      <trkpt lat="42.83134" lon="1.4695">
        <ele>1349.83</ele>
        <time>2016-10-27T07:11:18Z</time>
      </trkpt>
      <trkpt lat="42.83125" lon="1.46952">
        <ele>1353.19</ele>
        <time>2016-10-27T07:11:34Z</time>
      </trkpt>
      <trkpt lat="42.83117" lon="1.4695">
        <ele>1352.23</ele>
        <time>2016-10-27T07:11:43Z</time>
      </trkpt>
      <trkpt lat="42.83116" lon="1.4695">
        <ele>1353.67</ele>
        <time>2016-10-27T07:11:46Z</time>
      </trkpt>
      <trkpt lat="42.83113" lon="1.46944">
        <ele>1358</ele>
        <time>2016-10-27T07:12:05Z</time>
      </trkpt>
      <trkpt lat="42.83106" lon="1.46943">
        <ele>1360.88</ele>
        <time>2016-10-27T07:12:23Z</time>
      </trkpt>
      <trkpt lat="42.83098" lon="1.46952">
        <ele>1361.84</ele>
        <time>2016-10-27T07:12:42Z</time>
      </trkpt>
      <trkpt lat="42.83097" lon="1.46953">
        <ele>1365.69</ele>
        <time>2016-10-27T07:12:43Z</time>
      </trkpt>
      <trkpt lat="42.83089" lon="1.46952">
        <ele>1366.65</ele>
        <time>2016-10-27T07:13:01Z</time>
      </trkpt>
      <trkpt lat="42.83083" lon="1.4695">
        <ele>1370.02</ele>
        <time>2016-10-27T07:13:12Z</time>
      </trkpt>
      <trkpt lat="42.83076" lon="1.46951">
        <ele>1370.5</ele>
        <time>2016-10-27T07:13:29Z</time>
      </trkpt>
      <trkpt lat="42.83069" lon="1.46959">
        <ele>1372.42</ele>
        <time>2016-10-27T07:13:55Z</time>
      </trkpt>
      <trkpt lat="42.83065" lon="1.46964">
        <ele>1380.11</ele>
        <time>2016-10-27T07:14:31Z</time>
      </trkpt>
      <trkpt lat="42.83061" lon="1.46975">
        <ele>1382.51</ele>
        <time>2016-10-27T07:14:48Z</time>
      </trkpt>
      <trkpt lat="42.83059" lon="1.4698">
        <ele>1385.4</ele>
        <time>2016-10-27T07:15:04Z</time>
      </trkpt>
      <trkpt lat="42.8305" lon="1.46985">
        <ele>1386.84</ele>
        <time>2016-10-27T07:15:23Z</time>
      </trkpt>
      <trkpt lat="42.83049" lon="1.46985">
        <ele>1388.28</ele>
        <time>2016-10-27T07:15:26Z</time>
      </trkpt>
      <trkpt lat="42.83044" lon="1.46984">
        <ele>1391.17</ele>
        <time>2016-10-27T07:15:44Z</time>
      </trkpt>
      <trkpt lat="42.8304" lon="1.46985">
        <ele>1394.53</ele>
        <time>2016-10-27T07:15:57Z</time>
      </trkpt>
      <trkpt lat="42.8304" lon="1.46991">
        <ele>1395.49</ele>
        <time>2016-10-27T07:16:18Z</time>
      </trkpt>
      <trkpt lat="42.83039" lon="1.46998">
        <ele>1399.34</ele>
        <time>2016-10-27T07:16:26Z</time>
      </trkpt>
      <trkpt lat="42.83038" lon="1.47001">
        <ele>1402.22</ele>
        <time>2016-10-27T07:16:43Z</time>
      </trkpt>
      <trkpt lat="42.83037" lon="1.47014">
        <ele>1404.62</ele>
        <time>2016-10-27T07:17:01Z</time>
      </trkpt>
      <trkpt lat="42.83031" lon="1.47027">
        <ele>1407.99</ele>
        <time>2016-10-27T07:17:22Z</time>
      </trkpt>
      <trkpt lat="42.8302" lon="1.47024">
        <ele>1411.35</ele>
        <time>2016-10-27T07:17:40Z</time>
      </trkpt>
      <trkpt lat="42.83017" lon="1.47025">
        <ele>1411.83</ele>
        <time>2016-10-27T07:17:48Z</time>
      </trkpt>
      <trkpt lat="42.83013" lon="1.47023">
        <ele>1415.2</ele>
        <time>2016-10-27T07:18:02Z</time>
      </trkpt>
      <trkpt lat="42.83012" lon="1.47021">
        <ele>1415.2</ele>
        <time>2016-10-27T07:18:07Z</time>
      </trkpt>
      <trkpt lat="42.83008" lon="1.47019">
        <ele>1417.6</ele>
        <time>2016-10-27T07:18:21Z</time>
      </trkpt>
      <trkpt lat="42.83002" lon="1.47027">
        <ele>1420</ele>
        <time>2016-10-27T07:18:42Z</time>
      </trkpt>
      <trkpt lat="42.82996" lon="1.47026">
        <ele>1423.85</ele>
        <time>2016-10-27T07:18:56Z</time>
      </trkpt>
      <trkpt lat="42.82993" lon="1.47025">
        <ele>1424.33</ele>
        <time>2016-10-27T07:19:04Z</time>
      </trkpt>
      <trkpt lat="42.8299" lon="1.47021">
        <ele>1424.81</ele>
        <time>2016-10-27T07:19:11Z</time>
      </trkpt>
      <trkpt lat="42.82988" lon="1.47021">
        <ele>1425.77</ele>
        <time>2016-10-27T07:19:17Z</time>
      </trkpt>
      <trkpt lat="42.82985" lon="1.47026">
        <ele>1429.14</ele>
        <time>2016-10-27T07:19:32Z</time>
      </trkpt>
      <trkpt lat="42.82981" lon="1.47028">
        <ele>1432.02</ele>
        <time>2016-10-27T07:19:52Z</time>
      </trkpt>
      <trkpt lat="42.82979" lon="1.47047">
        <ele>1435.39</ele>
        <time>2016-10-27T07:20:12Z</time>
      </trkpt>
      <trkpt lat="42.82975" lon="1.47059">
        <ele>1437.31</ele>
        <time>2016-10-27T07:20:30Z</time>
      </trkpt>
      <trkpt lat="42.82974" lon="1.47068">
        <ele>1440.67</ele>
        <time>2016-10-27T07:20:42Z</time>
      </trkpt>
      <trkpt lat="42.82977" lon="1.4708">
        <ele>1440.67</ele>
        <time>2016-10-27T07:20:59Z</time>
      </trkpt>
      <trkpt lat="42.82977" lon="1.47082">
        <ele>1441.63</ele>
        <time>2016-10-27T07:21:03Z</time>
      </trkpt>
      <trkpt lat="42.82981" lon="1.47088">
        <ele>1445</ele>
        <time>2016-10-27T07:21:14Z</time>
      </trkpt>
      <trkpt lat="42.82984" lon="1.47097">
        <ele>1446.44</ele>
        <time>2016-10-27T07:21:31Z</time>
      </trkpt>
      <trkpt lat="42.82985" lon="1.4711">
        <ele>1447.88</ele>
        <time>2016-10-27T07:21:41Z</time>
      </trkpt>
      <trkpt lat="42.82987" lon="1.47118">
        <ele>1448.84</ele>
        <time>2016-10-27T07:21:47Z</time>
      </trkpt>
      <trkpt lat="42.82992" lon="1.47123">
        <ele>1451.25</ele>
        <time>2016-10-27T07:22:01Z</time>
      </trkpt>
      <trkpt lat="42.82994" lon="1.47127">
        <ele>1451.73</ele>
        <time>2016-10-27T07:22:06Z</time>
      </trkpt>
      <trkpt lat="42.82994" lon="1.47138">
        <ele>1454.61</ele>
        <time>2016-10-27T07:22:24Z</time>
      </trkpt>
      <trkpt lat="42.82994" lon="1.47153">
        <ele>1456.05</ele>
        <time>2016-10-27T07:22:42Z</time>
      </trkpt>
      <trkpt lat="42.82999" lon="1.47159">
        <ele>1459.9</ele>
        <time>2016-10-27T07:22:56Z</time>
      </trkpt>
      <trkpt lat="42.82993" lon="1.47161">
        <ele>1462.3</ele>
        <time>2016-10-27T07:23:13Z</time>
      </trkpt>
      <trkpt lat="42.82992" lon="1.47161">
        <ele>1462.3</ele>
        <time>2016-10-27T07:23:14Z</time>
      </trkpt>
      <trkpt lat="42.82988" lon="1.47164">
        <ele>1461.34</ele>
        <time>2016-10-27T07:23:20Z</time>
      </trkpt>
      <trkpt lat="42.82978" lon="1.47171">
        <ele>1465.67</ele>
        <time>2016-10-27T07:23:37Z</time>
      </trkpt>
      <trkpt lat="42.82972" lon="1.47169">
        <ele>1469.03</ele>
        <time>2016-10-27T07:23:55Z</time>
      </trkpt>
      <trkpt lat="42.82967" lon="1.47162">
        <ele>1471.44</ele>
        <time>2016-10-27T07:24:13Z</time>
      </trkpt>
      <trkpt lat="42.82965" lon="1.47159">
        <ele>1472.88</ele>
        <time>2016-10-27T07:24:19Z</time>
      </trkpt>
      <trkpt lat="42.82958" lon="1.47155">
        <ele>1475.76</ele>
        <time>2016-10-27T07:24:38Z</time>
      </trkpt>
      <trkpt lat="42.82956" lon="1.47155">
        <ele>1477.68</ele>
        <time>2016-10-27T07:24:46Z</time>
      </trkpt>
      <trkpt lat="42.82948" lon="1.47156">
        <ele>1480.09</ele>
        <time>2016-10-27T07:25:09Z</time>
      </trkpt>
      <trkpt lat="42.82945" lon="1.47161">
        <ele>1482.49</ele>
        <time>2016-10-27T07:25:26Z</time>
      </trkpt>
      <trkpt lat="42.82937" lon="1.47159">
        <ele>1486.34</ele>
        <time>2016-10-27T07:25:48Z</time>
      </trkpt>
      <trkpt lat="42.82935" lon="1.47146">
        <ele>1487.3</ele>
        <time>2016-10-27T07:26:00Z</time>
      </trkpt>
      <trkpt lat="42.82936" lon="1.4714">
        <ele>1487.3</ele>
        <time>2016-10-27T07:26:05Z</time>
      </trkpt>
      <trkpt lat="42.82932" lon="1.47145">
        <ele>1487.3</ele>
        <time>2016-10-27T07:26:23Z</time>
      </trkpt>
      <trkpt lat="42.82926" lon="1.47148">
        <ele>1490.18</ele>
        <time>2016-10-27T07:26:39Z</time>
      </trkpt>
      <trkpt lat="42.82925" lon="1.47147">
        <ele>1490.18</ele>
        <time>2016-10-27T07:26:40Z</time>
      </trkpt>
      <trkpt lat="42.82923" lon="1.47146">
        <ele>1489.22</ele>
        <time>2016-10-27T07:26:43Z</time>
      </trkpt>
      <trkpt lat="42.82922" lon="1.47145">
        <ele>1491.14</ele>
        <time>2016-10-27T07:26:47Z</time>
      </trkpt>
      <trkpt lat="42.82918" lon="1.47142">
        <ele>1493.55</ele>
        <time>2016-10-27T07:27:00Z</time>
      </trkpt>
      <trkpt lat="42.82915" lon="1.47145">
        <ele>1496.91</ele>
        <time>2016-10-27T07:27:14Z</time>
      </trkpt>
      <trkpt lat="42.82909" lon="1.47148">
        <ele>1499.31</ele>
        <time>2016-10-27T07:27:31Z</time>
      </trkpt>
      <trkpt lat="42.82906" lon="1.47144">
        <ele>1500.27</ele>
        <time>2016-10-27T07:27:55Z</time>
      </trkpt>
      <trkpt lat="42.82899" lon="1.4716">
        <ele>1502.68</ele>
        <time>2016-10-27T07:28:19Z</time>
      </trkpt>
      <trkpt lat="42.82899" lon="1.47168">
        <ele>1504.6</ele>
        <time>2016-10-27T07:28:41Z</time>
      </trkpt>
      <trkpt lat="42.82901" lon="1.47171">
        <ele>1506.04</ele>
        <time>2016-10-27T07:28:54Z</time>
      </trkpt>
      <trkpt lat="42.82895" lon="1.47172">
        <ele>1509.41</ele>
        <time>2016-10-27T07:29:12Z</time>
      </trkpt>
      <trkpt lat="42.82894" lon="1.47166">
        <ele>1509.89</ele>
        <time>2016-10-27T07:29:35Z</time>
      </trkpt>
      <trkpt lat="42.82891" lon="1.4717">
        <ele>1513.73</ele>
        <time>2016-10-27T07:29:49Z</time>
      </trkpt>
      <trkpt lat="42.82888" lon="1.47177">
        <ele>1515.66</ele>
        <time>2016-10-27T07:30:08Z</time>
      </trkpt>
      <trkpt lat="42.82886" lon="1.47171">
        <ele>1519.02</ele>
        <time>2016-10-27T07:30:20Z</time>
      </trkpt>
      <trkpt lat="42.82886" lon="1.47171">
        <ele>1519.02</ele>
        <time>2016-10-27T07:30:21Z</time>
      </trkpt>
      <trkpt lat="42.82885" lon="1.47172">
        <ele>1519.5</ele>
        <time>2016-10-27T07:30:25Z</time>
      </trkpt>
      <trkpt lat="42.82882" lon="1.47176">
        <ele>1520.46</ele>
        <time>2016-10-27T07:30:36Z</time>
      </trkpt>
      <trkpt lat="42.82877" lon="1.4718">
        <ele>1523.83</ele>
        <time>2016-10-27T07:30:50Z</time>
      </trkpt>
      <trkpt lat="42.82877" lon="1.4718">
        <ele>1523.83</ele>
        <time>2016-10-27T07:30:51Z</time>
      </trkpt>
      <trkpt lat="42.82872" lon="1.47175">
        <ele>1524.79</ele>
        <time>2016-10-27T07:31:01Z</time>
      </trkpt>
      <trkpt lat="42.82868" lon="1.47168">
        <ele>1526.23</ele>
        <time>2016-10-27T07:31:16Z</time>
      </trkpt>
      <trkpt lat="42.82866" lon="1.47165">
        <ele>1529.59</ele>
        <time>2016-10-27T07:31:29Z</time>
      </trkpt>
      <trkpt lat="42.8287" lon="1.47181">
        <ele>1531.52</ele>
        <time>2016-10-27T07:31:46Z</time>
      </trkpt>
      <trkpt lat="42.82866" lon="1.47183">
        <ele>1534.4</ele>
        <time>2016-10-27T07:32:00Z</time>
      </trkpt>
      <trkpt lat="42.82861" lon="1.47183">
        <ele>1536.32</ele>
        <time>2016-10-27T07:32:18Z</time>
      </trkpt>
      <trkpt lat="42.82854" lon="1.47179">
        <ele>1539.69</ele>
        <time>2016-10-27T07:32:38Z</time>
      </trkpt>
      <trkpt lat="42.82849" lon="1.47178">
        <ele>1543.05</ele>
        <time>2016-10-27T07:32:51Z</time>
      </trkpt>
      <trkpt lat="42.82846" lon="1.47174">
        <ele>1546.42</ele>
        <time>2016-10-27T07:33:08Z</time>
      </trkpt>
      <trkpt lat="42.82839" lon="1.47166">
        <ele>1547.38</ele>
        <time>2016-10-27T07:33:27Z</time>
      </trkpt>
      <trkpt lat="42.82838" lon="1.47166">
        <ele>1548.82</ele>
        <time>2016-10-27T07:33:29Z</time>
      </trkpt>
      <trkpt lat="42.82833" lon="1.4716">
        <ele>1553.15</ele>
        <time>2016-10-27T07:33:45Z</time>
      </trkpt>
      <trkpt lat="42.82832" lon="1.47158">
        <ele>1553.15</ele>
        <time>2016-10-27T07:34:05Z</time>
      </trkpt>
      <trkpt lat="42.82826" lon="1.47155">
        <ele>1556.51</ele>
        <time>2016-10-27T07:34:24Z</time>
      </trkpt>
      <trkpt lat="42.82819" lon="1.47137">
        <ele>1558.92</ele>
        <time>2016-10-27T07:34:43Z</time>
      </trkpt>
      <trkpt lat="42.82811" lon="1.47131">
        <ele>1561.32</ele>
        <time>2016-10-27T07:35:00Z</time>
      </trkpt>
      <trkpt lat="42.82809" lon="1.47129">
        <ele>1562.76</ele>
        <time>2016-10-27T07:35:15Z</time>
      </trkpt>
      <trkpt lat="42.82807" lon="1.47127">
        <ele>1566.61</ele>
        <time>2016-10-27T07:35:22Z</time>
      </trkpt>
      <trkpt lat="42.82798" lon="1.47121">
        <ele>1567.09</ele>
        <time>2016-10-27T07:35:42Z</time>
      </trkpt>
      <trkpt lat="42.82789" lon="1.47116">
        <ele>1569.97</ele>
        <time>2016-10-27T07:35:54Z</time>
      </trkpt>
      <trkpt lat="42.82782" lon="1.47106">
        <ele>1573.33</ele>
        <time>2016-10-27T07:36:11Z</time>
      </trkpt>
      <trkpt lat="42.8278" lon="1.47103">
        <ele>1573.33</ele>
        <time>2016-10-27T07:36:16Z</time>
      </trkpt>
      <trkpt lat="42.82776" lon="1.47102">
        <ele>1576.7</ele>
        <time>2016-10-27T07:36:33Z</time>
      </trkpt>
      <trkpt lat="42.82766" lon="1.47091">
        <ele>1579.58</ele>
        <time>2016-10-27T07:36:51Z</time>
      </trkpt>
      <trkpt lat="42.82762" lon="1.47083">
        <ele>1580.06</ele>
        <time>2016-10-27T07:37:09Z</time>
      </trkpt>
      <trkpt lat="42.82761" lon="1.47082">
        <ele>1582.47</ele>
        <time>2016-10-27T07:37:11Z</time>
      </trkpt>
      <trkpt lat="42.82759" lon="1.47075">
        <ele>1581.99</ele>
        <time>2016-10-27T07:37:21Z</time>
      </trkpt>
      <trkpt lat="42.82759" lon="1.47074">
        <ele>1583.91</ele>
        <time>2016-10-27T07:37:25Z</time>
      </trkpt>
      <trkpt lat="42.82748" lon="1.47057">
        <ele>1584.87</ele>
        <time>2016-10-27T07:37:56Z</time>
      </trkpt>
      <trkpt lat="42.82744" lon="1.47051">
        <ele>1585.83</ele>
        <time>2016-10-27T07:38:13Z</time>
      </trkpt>
      <trkpt lat="42.82744" lon="1.47051">
        <ele>1583.91</ele>
        <time>2016-10-27T07:38:17Z</time>
      </trkpt>
      <trkpt lat="42.82743" lon="1.47051">
        <ele>1586.79</ele>
        <time>2016-10-27T07:38:20Z</time>
      </trkpt>
      <trkpt lat="42.82747" lon="1.47035">
        <ele>1590.16</ele>
        <time>2016-10-27T07:38:39Z</time>
      </trkpt>
      <trkpt lat="42.82751" lon="1.47027">
        <ele>1591.12</ele>
        <time>2016-10-27T07:38:46Z</time>
      </trkpt>
      <trkpt lat="42.82757" lon="1.47013">
        <ele>1590.16</ele>
        <time>2016-10-27T07:39:00Z</time>
      </trkpt>
      <trkpt lat="42.8276" lon="1.46998">
        <ele>1591.6</ele>
        <time>2016-10-27T07:39:12Z</time>
      </trkpt>
      <trkpt lat="42.82762" lon="1.46988">
        <ele>1590.64</ele>
        <time>2016-10-27T07:39:21Z</time>
      </trkpt>
      <trkpt lat="42.82766" lon="1.46973">
        <ele>1593.04</ele>
        <time>2016-10-27T07:39:32Z</time>
      </trkpt>
      <trkpt lat="42.82767" lon="1.46972">
        <ele>1591.6</ele>
        <time>2016-10-27T07:39:34Z</time>
      </trkpt>
      <trkpt lat="42.82768" lon="1.46969">
        <ele>1591.6</ele>
        <time>2016-10-27T07:39:36Z</time>
      </trkpt>
      <trkpt lat="42.8277" lon="1.46962">
        <ele>1592.56</ele>
        <time>2016-10-27T07:39:41Z</time>
      </trkpt>
      <trkpt lat="42.82765" lon="1.4694">
        <ele>1593.04</ele>
        <time>2016-10-27T07:39:58Z</time>
      </trkpt>
      <trkpt lat="42.82762" lon="1.46938">
        <ele>1596.41</ele>
        <time>2016-10-27T07:40:07Z</time>
      </trkpt>
      <trkpt lat="42.8275" lon="1.4692">
        <ele>1599.29</ele>
        <time>2016-10-27T07:40:28Z</time>
      </trkpt>
      <trkpt lat="42.82743" lon="1.46915">
        <ele>1600.25</ele>
        <time>2016-10-27T07:40:39Z</time>
      </trkpt>
      <trkpt lat="42.82736" lon="1.46909">
        <ele>1603.62</ele>
        <time>2016-10-27T07:40:54Z</time>
      </trkpt>
      <trkpt lat="42.8273" lon="1.46907">
        <ele>1606.02</ele>
        <time>2016-10-27T07:41:09Z</time>
      </trkpt>
      <trkpt lat="42.82726" lon="1.46902">
        <ele>1609.38</ele>
        <time>2016-10-27T07:41:25Z</time>
      </trkpt>
      <trkpt lat="42.82719" lon="1.469">
        <ele>1611.31</ele>
        <time>2016-10-27T07:41:41Z</time>
      </trkpt>
      <trkpt lat="42.82712" lon="1.46893">
        <ele>1614.19</ele>
        <time>2016-10-27T07:41:58Z</time>
      </trkpt>
      <trkpt lat="42.82706" lon="1.46893">
        <ele>1617.56</ele>
        <time>2016-10-27T07:42:12Z</time>
      </trkpt>
      <trkpt lat="42.82696" lon="1.46884">
        <ele>1619.48</ele>
        <time>2016-10-27T07:42:36Z</time>
      </trkpt>
      <trkpt lat="42.82694" lon="1.46877">
        <ele>1620.44</ele>
        <time>2016-10-27T07:42:44Z</time>
      </trkpt>
      <trkpt lat="42.82683" lon="1.46874">
        <ele>1622.84</ele>
        <time>2016-10-27T07:43:05Z</time>
      </trkpt>
      <trkpt lat="42.82675" lon="1.46866">
        <ele>1624.28</ele>
        <time>2016-10-27T07:43:22Z</time>
      </trkpt>
      <trkpt lat="42.82673" lon="1.46865">
        <ele>1625.25</ele>
        <time>2016-10-27T07:43:25Z</time>
      </trkpt>
      <trkpt lat="42.82668" lon="1.46866">
        <ele>1628.61</ele>
        <time>2016-10-27T07:43:37Z</time>
      </trkpt>
      <trkpt lat="42.82665" lon="1.46867">
        <ele>1628.61</ele>
        <time>2016-10-27T07:43:43Z</time>
      </trkpt>
      <trkpt lat="42.82657" lon="1.46867">
        <ele>1631.01</ele>
        <time>2016-10-27T07:43:59Z</time>
      </trkpt>
      <trkpt lat="42.82649" lon="1.4687">
        <ele>1633.42</ele>
        <time>2016-10-27T07:44:14Z</time>
      </trkpt>
      <trkpt lat="42.82642" lon="1.4687">
        <ele>1634.86</ele>
        <time>2016-10-27T07:44:24Z</time>
      </trkpt>
      <trkpt lat="42.82634" lon="1.46865">
        <ele>1637.26</ele>
        <time>2016-10-27T07:44:39Z</time>
      </trkpt>
      <trkpt lat="42.82623" lon="1.46858">
        <ele>1639.67</ele>
        <time>2016-10-27T07:44:56Z</time>
      </trkpt>
      <trkpt lat="42.82615" lon="1.46849">
        <ele>1638.7</ele>
        <time>2016-10-27T07:45:07Z</time>
      </trkpt>
      <trkpt lat="42.82602" lon="1.46842">
        <ele>1641.11</ele>
        <time>2016-10-27T07:45:24Z</time>
      </trkpt>
      <trkpt lat="42.82596" lon="1.46843">
        <ele>1643.99</ele>
        <time>2016-10-27T07:45:52Z</time>
      </trkpt>
      <trkpt lat="42.82585" lon="1.46836">
        <ele>1643.99</ele>
        <time>2016-10-27T07:46:08Z</time>
      </trkpt>
      <trkpt lat="42.82581" lon="1.46833">
        <ele>1647.36</ele>
        <time>2016-10-27T07:46:14Z</time>
      </trkpt>
      <trkpt lat="42.8257" lon="1.46828">
        <ele>1648.8</ele>
        <time>2016-10-27T07:46:31Z</time>
      </trkpt>
      <trkpt lat="42.82561" lon="1.4681">
        <ele>1649.28</ele>
        <time>2016-10-27T07:46:48Z</time>
      </trkpt>
      <trkpt lat="42.8256" lon="1.46809">
        <ele>1649.76</ele>
        <time>2016-10-27T07:46:49Z</time>
      </trkpt>
      <trkpt lat="42.82558" lon="1.46809">
        <ele>1652.64</ele>
        <time>2016-10-27T07:46:52Z</time>
      </trkpt>
      <trkpt lat="42.82557" lon="1.46809">
        <ele>1651.68</ele>
        <time>2016-10-27T07:46:53Z</time>
      </trkpt>
      <trkpt lat="42.82553" lon="1.46798">
        <ele>1652.16</ele>
        <time>2016-10-27T07:47:07Z</time>
      </trkpt>
      <trkpt lat="42.82547" lon="1.46788">
        <ele>1655.53</ele>
        <time>2016-10-27T07:47:20Z</time>
      </trkpt>
      <trkpt lat="42.82538" lon="1.46787">
        <ele>1656.97</ele>
        <time>2016-10-27T07:47:34Z</time>
      </trkpt>
      <trkpt lat="42.82529" lon="1.46781">
        <ele>1659.85</ele>
        <time>2016-10-27T07:47:51Z</time>
      </trkpt>
      <trkpt lat="42.82524" lon="1.46779">
        <ele>1661.78</ele>
        <time>2016-10-27T07:48:02Z</time>
      </trkpt>
      <trkpt lat="42.8252" lon="1.4678">
        <ele>1662.74</ele>
        <time>2016-10-27T07:48:07Z</time>
      </trkpt>
      <trkpt lat="42.82518" lon="1.46779">
        <ele>1662.74</ele>
        <time>2016-10-27T07:48:09Z</time>
      </trkpt>
      <trkpt lat="42.82514" lon="1.46777">
        <ele>1664.18</ele>
        <time>2016-10-27T07:48:14Z</time>
      </trkpt>
      <trkpt lat="42.82508" lon="1.46776">
        <ele>1665.14</ele>
        <time>2016-10-27T07:48:27Z</time>
      </trkpt>
      <trkpt lat="42.82508" lon="1.46772">
        <ele>1665.14</ele>
        <time>2016-10-27T07:48:30Z</time>
      </trkpt>
      <trkpt lat="42.8251" lon="1.46759">
        <ele>1668.02</ele>
        <time>2016-10-27T07:48:46Z</time>
      </trkpt>
      <trkpt lat="42.82506" lon="1.46743">
        <ele>1669.95</ele>
        <time>2016-10-27T07:49:02Z</time>
      </trkpt>
      <trkpt lat="42.82499" lon="1.46738">
        <ele>1671.87</ele>
        <time>2016-10-27T07:49:12Z</time>
      </trkpt>
      <trkpt lat="42.82493" lon="1.46736">
        <ele>1671.87</ele>
        <time>2016-10-27T07:49:24Z</time>
      </trkpt>
      <trkpt lat="42.8249" lon="1.46732">
        <ele>1673.31</ele>
        <time>2016-10-27T07:49:29Z</time>
      </trkpt>
      <trkpt lat="42.82483" lon="1.46726">
        <ele>1675.72</ele>
        <time>2016-10-27T07:49:42Z</time>
      </trkpt>
      <trkpt lat="42.8248" lon="1.46725">
        <ele>1675.72</ele>
        <time>2016-10-27T07:49:48Z</time>
      </trkpt>
      <trkpt lat="42.82479" lon="1.46721">
        <ele>1676.68</ele>
        <time>2016-10-27T07:49:51Z</time>
      </trkpt>
      <trkpt lat="42.82473" lon="1.46719">
        <ele>1677.64</ele>
        <time>2016-10-27T07:50:00Z</time>
      </trkpt>
      <trkpt lat="42.82471" lon="1.46715">
        <ele>1676.2</ele>
        <time>2016-10-27T07:50:07Z</time>
      </trkpt>
      <trkpt lat="42.82469" lon="1.46711">
        <ele>1675.72</ele>
        <time>2016-10-27T07:50:13Z</time>
      </trkpt>
      <trkpt lat="42.82463" lon="1.46709">
        <ele>1676.68</ele>
        <time>2016-10-27T07:50:18Z</time>
      </trkpt>
      <trkpt lat="42.82461" lon="1.46708">
        <ele>1674.27</ele>
        <time>2016-10-27T07:50:20Z</time>
      </trkpt>
      <trkpt lat="42.82455" lon="1.46698">
        <ele>1676.2</ele>
        <time>2016-10-27T07:50:29Z</time>
      </trkpt>
      <trkpt lat="42.82453" lon="1.46697">
        <ele>1676.2</ele>
        <time>2016-10-27T07:50:31Z</time>
      </trkpt>
      <trkpt lat="42.82439" lon="1.46691">
        <ele>1675.23</ele>
        <time>2016-10-27T07:50:46Z</time>
      </trkpt>
      <trkpt lat="42.82434" lon="1.46687">
        <ele>1677.16</ele>
        <time>2016-10-27T07:50:53Z</time>
      </trkpt>
      <trkpt lat="42.82432" lon="1.46685">
        <ele>1675.72</ele>
        <time>2016-10-27T07:50:56Z</time>
      </trkpt>
      <trkpt lat="42.82431" lon="1.46682">
        <ele>1676.2</ele>
        <time>2016-10-27T07:58:15Z</time>
      </trkpt>
      <trkpt lat="42.82428" lon="1.46683">
        <ele>1675.72</ele>
        <time>2016-10-27T07:59:34Z</time>
      </trkpt>
      <trkpt lat="42.82426" lon="1.46683">
        <ele>1675.72</ele>
        <time>2016-10-27T07:59:36Z</time>
      </trkpt>
      <trkpt lat="42.82422" lon="1.46682">
        <ele>1675.72</ele>
        <time>2016-10-27T07:59:40Z</time>
      </trkpt>
      <trkpt lat="42.82416" lon="1.46671">
        <ele>1678.12</ele>
        <time>2016-10-27T07:59:52Z</time>
      </trkpt>
      <trkpt lat="42.82412" lon="1.46661">
        <ele>1679.56</ele>
        <time>2016-10-27T08:00:03Z</time>
      </trkpt>
      <trkpt lat="42.8241" lon="1.46645">
        <ele>1679.56</ele>
        <time>2016-10-27T08:00:14Z</time>
      </trkpt>
      <trkpt lat="42.82407" lon="1.46641">
        <ele>1679.56</ele>
        <time>2016-10-27T08:00:19Z</time>
      </trkpt>
      <trkpt lat="42.82405" lon="1.46639">
        <ele>1679.56</ele>
        <time>2016-10-27T08:00:21Z</time>
      </trkpt>
      <trkpt lat="42.82396" lon="1.4663">
        <ele>1680.52</ele>
        <time>2016-10-27T08:00:35Z</time>
      </trkpt>
      <trkpt lat="42.82395" lon="1.4663">
        <ele>1681.48</ele>
        <time>2016-10-27T08:00:37Z</time>
      </trkpt>
      <trkpt lat="42.82393" lon="1.46631">
        <ele>1681.48</ele>
        <time>2016-10-27T08:00:40Z</time>
      </trkpt>
      <trkpt lat="42.82389" lon="1.46626">
        <ele>1682.93</ele>
        <time>2016-10-27T08:00:51Z</time>
      </trkpt>
      <trkpt lat="42.82388" lon="1.46626">
        <ele>1683.89</ele>
        <time>2016-10-27T08:00:52Z</time>
      </trkpt>
      <trkpt lat="42.82386" lon="1.46615">
        <ele>1685.33</ele>
        <time>2016-10-27T08:01:04Z</time>
      </trkpt>
      <trkpt lat="42.82383" lon="1.4661">
        <ele>1687.73</ele>
        <time>2016-10-27T08:01:15Z</time>
      </trkpt>
      <trkpt lat="42.82382" lon="1.46608">
        <ele>1688.69</ele>
        <time>2016-10-27T08:01:32Z</time>
      </trkpt>
      <trkpt lat="42.8238" lon="1.46604">
        <ele>1690.14</ele>
        <time>2016-10-27T08:02:11Z</time>
      </trkpt>
      <trkpt lat="42.82379" lon="1.46603">
        <ele>1690.62</ele>
        <time>2016-10-27T08:02:26Z</time>
      </trkpt>
      <trkpt lat="42.82373" lon="1.46599">
        <ele>1693.5</ele>
        <time>2016-10-27T08:02:37Z</time>
      </trkpt>
      <trkpt lat="42.82368" lon="1.46594">
        <ele>1695.42</ele>
        <time>2016-10-27T08:02:48Z</time>
      </trkpt>
      <trkpt lat="42.82363" lon="1.46589">
        <ele>1697.83</ele>
        <time>2016-10-27T08:03:46Z</time>
      </trkpt>
      <trkpt lat="42.82356" lon="1.46585">
        <ele>1700.71</ele>
        <time>2016-10-27T08:03:58Z</time>
      </trkpt>
      <trkpt lat="42.82353" lon="1.46573">
        <ele>1703.11</ele>
        <time>2016-10-27T08:04:11Z</time>
      </trkpt>
      <trkpt lat="42.82348" lon="1.46565">
        <ele>1705.52</ele>
        <time>2016-10-27T08:04:23Z</time>
      </trkpt>
      <trkpt lat="42.82347" lon="1.46564">
        <ele>1705.52</ele>
        <time>2016-10-27T08:04:25Z</time>
      </trkpt>
      <trkpt lat="42.82346" lon="1.46555">
        <ele>1706.96</ele>
        <time>2016-10-27T08:04:35Z</time>
      </trkpt>
      <trkpt lat="42.82347" lon="1.46544">
        <ele>1708.88</ele>
        <time>2016-10-27T08:04:46Z</time>
      </trkpt>
      <trkpt lat="42.82346" lon="1.46531">
        <ele>1709.84</ele>
        <time>2016-10-27T08:05:00Z</time>
      </trkpt>
      <trkpt lat="42.82345" lon="1.46514">
        <ele>1707.44</ele>
        <time>2016-10-27T08:05:16Z</time>
      </trkpt>
      <trkpt lat="42.82345" lon="1.46497">
        <ele>1704.55</ele>
        <time>2016-10-27T08:05:33Z</time>
      </trkpt>
      <trkpt lat="42.82344" lon="1.46493">
        <ele>1704.55</ele>
        <time>2016-10-27T08:05:36Z</time>
      </trkpt>
      <trkpt lat="42.82341" lon="1.46478">
        <ele>1703.11</ele>
        <time>2016-10-27T08:05:49Z</time>
      </trkpt>
      <trkpt lat="42.82337" lon="1.46465">
        <ele>1703.59</ele>
        <time>2016-10-27T08:05:58Z</time>
      </trkpt>
      <trkpt lat="42.82328" lon="1.46445">
        <ele>1703.59</ele>
        <time>2016-10-27T08:06:14Z</time>
      </trkpt>
      <trkpt lat="42.8232" lon="1.46432">
        <ele>1705.52</ele>
        <time>2016-10-27T08:06:26Z</time>
      </trkpt>
      <trkpt lat="42.82313" lon="1.46421">
        <ele>1707.44</ele>
        <time>2016-10-27T08:06:39Z</time>
      </trkpt>
      <trkpt lat="42.82305" lon="1.46408">
        <ele>1709.84</ele>
        <time>2016-10-27T08:06:53Z</time>
      </trkpt>
      <trkpt lat="42.82298" lon="1.46395">
        <ele>1711.76</ele>
        <time>2016-10-27T08:07:09Z</time>
      </trkpt>
      <trkpt lat="42.82293" lon="1.46381">
        <ele>1714.17</ele>
        <time>2016-10-27T08:07:25Z</time>
      </trkpt>
      <trkpt lat="42.82291" lon="1.46369">
        <ele>1716.57</ele>
        <time>2016-10-27T08:07:40Z</time>
      </trkpt>
      <trkpt lat="42.82288" lon="1.46356">
        <ele>1719.46</ele>
        <time>2016-10-27T08:07:54Z</time>
      </trkpt>
      <trkpt lat="42.8228" lon="1.46348">
        <ele>1721.86</ele>
        <time>2016-10-27T08:08:12Z</time>
      </trkpt>
      <trkpt lat="42.82277" lon="1.4634">
        <ele>1724.74</ele>
        <time>2016-10-27T08:08:28Z</time>
      </trkpt>
      <trkpt lat="42.82275" lon="1.4633">
        <ele>1727.15</ele>
        <time>2016-10-27T08:08:45Z</time>
      </trkpt>
      <trkpt lat="42.82268" lon="1.46322">
        <ele>1730.03</ele>
        <time>2016-10-27T08:09:01Z</time>
      </trkpt>
      <trkpt lat="42.82263" lon="1.46312">
        <ele>1732.91</ele>
        <time>2016-10-27T08:09:17Z</time>
      </trkpt>
      <trkpt lat="42.82263" lon="1.46304">
        <ele>1734.84</ele>
        <time>2016-10-27T08:09:33Z</time>
      </trkpt>
      <trkpt lat="42.82261" lon="1.46292">
        <ele>1738.2</ele>
        <time>2016-10-27T08:09:50Z</time>
      </trkpt>
      <trkpt lat="42.82261" lon="1.46292">
        <ele>1738.2</ele>
        <time>2016-10-27T08:09:51Z</time>
      </trkpt>
      <trkpt lat="42.82262" lon="1.46291">
        <ele>1738.68</ele>
        <time>2016-10-27T08:10:12Z</time>
      </trkpt>
      <trkpt lat="42.82257" lon="1.46288">
        <ele>1740.6</ele>
        <time>2016-10-27T08:10:33Z</time>
      </trkpt>
      <trkpt lat="42.82249" lon="1.46281">
        <ele>1743.49</ele>
        <time>2016-10-27T08:10:50Z</time>
      </trkpt>
      <trkpt lat="42.82243" lon="1.46274">
        <ele>1746.37</ele>
        <time>2016-10-27T08:11:07Z</time>
      </trkpt>
      <trkpt lat="42.82238" lon="1.46272">
        <ele>1748.78</ele>
        <time>2016-10-27T08:11:21Z</time>
      </trkpt>
      <trkpt lat="42.82232" lon="1.46263">
        <ele>1750.7</ele>
        <time>2016-10-27T08:11:37Z</time>
      </trkpt>
      <trkpt lat="42.82227" lon="1.46256">
        <ele>1753.1</ele>
        <time>2016-10-27T08:11:53Z</time>
      </trkpt>
      <trkpt lat="42.8222" lon="1.46259">
        <ele>1756.47</ele>
        <time>2016-10-27T08:12:09Z</time>
      </trkpt>
      <trkpt lat="42.82212" lon="1.46253">
        <ele>1759.35</ele>
        <time>2016-10-27T08:12:29Z</time>
      </trkpt>
      <trkpt lat="42.82205" lon="1.46244">
        <ele>1761.27</ele>
        <time>2016-10-27T08:12:45Z</time>
      </trkpt>
      <trkpt lat="42.82195" lon="1.46237">
        <ele>1764.16</ele>
        <time>2016-10-27T08:13:03Z</time>
      </trkpt>
      <trkpt lat="42.8219" lon="1.46229">
        <ele>1766.56</ele>
        <time>2016-10-27T08:13:19Z</time>
      </trkpt>
      <trkpt lat="42.82182" lon="1.46224">
        <ele>1769.92</ele>
        <time>2016-10-27T08:13:37Z</time>
      </trkpt>
      <trkpt lat="42.82175" lon="1.4622">
        <ele>1771.85</ele>
        <time>2016-10-27T08:13:54Z</time>
      </trkpt>
      <trkpt lat="42.82169" lon="1.46213">
        <ele>1774.25</ele>
        <time>2016-10-27T08:14:12Z</time>
      </trkpt>
      <trkpt lat="42.82156" lon="1.46202">
        <ele>1775.21</ele>
        <time>2016-10-27T08:14:30Z</time>
      </trkpt>
      <trkpt lat="42.82151" lon="1.46197">
        <ele>1771.37</ele>
        <time>2016-10-27T08:14:36Z</time>
      </trkpt>
      <trkpt lat="42.8215" lon="1.46196">
        <ele>1776.65</ele>
        <time>2016-10-27T08:14:37Z</time>
      </trkpt>
      <trkpt lat="42.8215" lon="1.46196">
        <ele>1776.65</ele>
        <time>2016-10-27T08:14:38Z</time>
      </trkpt>
      <trkpt lat="42.82149" lon="1.46196">
        <ele>1775.21</ele>
        <time>2016-10-27T08:14:40Z</time>
      </trkpt>
      <trkpt lat="42.82146" lon="1.46194">
        <ele>1774.25</ele>
        <time>2016-10-27T08:14:48Z</time>
      </trkpt>
      <trkpt lat="42.82136" lon="1.46184">
        <ele>1777.13</ele>
        <time>2016-10-27T08:15:05Z</time>
      </trkpt>
      <trkpt lat="42.82131" lon="1.46179">
        <ele>1780.5</ele>
        <time>2016-10-27T08:15:21Z</time>
      </trkpt>
      <trkpt lat="42.8213" lon="1.46179">
        <ele>1780.5</ele>
        <time>2016-10-27T08:15:22Z</time>
      </trkpt>
      <trkpt lat="42.82129" lon="1.46173">
        <ele>1781.46</ele>
        <time>2016-10-27T08:15:31Z</time>
      </trkpt>
      <trkpt lat="42.8212" lon="1.46159">
        <ele>1781.94</ele>
        <time>2016-10-27T08:15:47Z</time>
      </trkpt>
      <trkpt lat="42.8212" lon="1.46158">
        <ele>1781.94</ele>
        <time>2016-10-27T08:15:48Z</time>
      </trkpt>
      <trkpt lat="42.82117" lon="1.46156">
        <ele>1780.5</ele>
        <time>2016-10-27T08:15:51Z</time>
      </trkpt>
      <trkpt lat="42.82109" lon="1.46146">
        <ele>1778.58</ele>
        <time>2016-10-27T08:16:04Z</time>
      </trkpt>
      <trkpt lat="42.82102" lon="1.46132">
        <ele>1778.1</ele>
        <time>2016-10-27T08:16:17Z</time>
      </trkpt>
      <trkpt lat="42.82092" lon="1.46117">
        <ele>1780.5</ele>
        <time>2016-10-27T08:16:32Z</time>
      </trkpt>
      <trkpt lat="42.82087" lon="1.46108">
        <ele>1779.54</ele>
        <time>2016-10-27T08:16:46Z</time>
      </trkpt>
      <trkpt lat="42.82087" lon="1.46108">
        <ele>1784.34</ele>
        <time>2016-10-27T08:16:47Z</time>
      </trkpt>
      <trkpt lat="42.8208" lon="1.46104">
        <ele>1781.46</ele>
        <time>2016-10-27T08:17:15Z</time>
      </trkpt>
      <trkpt lat="42.82073" lon="1.46103">
        <ele>1780.98</ele>
        <time>2016-10-27T08:17:21Z</time>
      </trkpt>
      <trkpt lat="42.82064" lon="1.461">
        <ele>1781.46</ele>
        <time>2016-10-27T08:17:31Z</time>
      </trkpt>
      <trkpt lat="42.82056" lon="1.46099">
        <ele>1782.9</ele>
        <time>2016-10-27T08:17:40Z</time>
      </trkpt>
      <trkpt lat="42.82046" lon="1.46104">
        <ele>1784.82</ele>
        <time>2016-10-27T08:17:54Z</time>
      </trkpt>
      <trkpt lat="42.8204" lon="1.46113">
        <ele>1787.23</ele>
        <time>2016-10-27T08:18:11Z</time>
      </trkpt>
      <trkpt lat="42.82035" lon="1.46117">
        <ele>1789.63</ele>
        <time>2016-10-27T08:18:21Z</time>
      </trkpt>
      <trkpt lat="42.82025" lon="1.4612">
        <ele>1792.03</ele>
        <time>2016-10-27T08:18:38Z</time>
      </trkpt>
      <trkpt lat="42.82023" lon="1.46119">
        <ele>1793</ele>
        <time>2016-10-27T08:18:54Z</time>
      </trkpt>
      <trkpt lat="42.82022" lon="1.46119">
        <ele>1793</ele>
        <time>2016-10-27T08:19:23Z</time>
      </trkpt>
      <trkpt lat="42.8202" lon="1.46118">
        <ele>1793</ele>
        <time>2016-10-27T08:19:55Z</time>
      </trkpt>
      <trkpt lat="42.82011" lon="1.46122">
        <ele>1794.92</ele>
        <time>2016-10-27T08:20:10Z</time>
      </trkpt>
      <trkpt lat="42.82006" lon="1.46125">
        <ele>1796.36</ele>
        <time>2016-10-27T08:20:29Z</time>
      </trkpt>
      <trkpt lat="42.81998" lon="1.46123">
        <ele>1799.24</ele>
        <time>2016-10-27T08:20:42Z</time>
      </trkpt>
      <trkpt lat="42.81993" lon="1.46122">
        <ele>1802.13</ele>
        <time>2016-10-27T08:20:53Z</time>
      </trkpt>
      <trkpt lat="42.81986" lon="1.46117">
        <ele>1804.53</ele>
        <time>2016-10-27T08:21:08Z</time>
      </trkpt>
      <trkpt lat="42.8198" lon="1.46117">
        <ele>1807.42</ele>
        <time>2016-10-27T08:21:23Z</time>
      </trkpt>
      <trkpt lat="42.81975" lon="1.46116">
        <ele>1810.3</ele>
        <time>2016-10-27T08:21:36Z</time>
      </trkpt>
      <trkpt lat="42.81969" lon="1.46115">
        <ele>1813.18</ele>
        <time>2016-10-27T08:21:52Z</time>
      </trkpt>
      <trkpt lat="42.81964" lon="1.46118">
        <ele>1815.59</ele>
        <time>2016-10-27T08:22:08Z</time>
      </trkpt>
      <trkpt lat="42.81958" lon="1.46116">
        <ele>1818.47</ele>
        <time>2016-10-27T08:22:24Z</time>
      </trkpt>
      <trkpt lat="42.81951" lon="1.46114">
        <ele>1820.87</ele>
        <time>2016-10-27T08:22:40Z</time>
      </trkpt>
      <trkpt lat="42.81944" lon="1.46113">
        <ele>1823.28</ele>
        <time>2016-10-27T08:22:56Z</time>
      </trkpt>
      <trkpt lat="42.81939" lon="1.46114">
        <ele>1826.64</ele>
        <time>2016-10-27T08:23:13Z</time>
      </trkpt>
      <trkpt lat="42.81934" lon="1.46118">
        <ele>1829.53</ele>
        <time>2016-10-27T08:23:30Z</time>
      </trkpt>
      <trkpt lat="42.81929" lon="1.46118">
        <ele>1831.93</ele>
        <time>2016-10-27T08:23:45Z</time>
      </trkpt>
      <trkpt lat="42.81928" lon="1.46119">
        <ele>1833.37</ele>
        <time>2016-10-27T08:23:48Z</time>
      </trkpt>
      <trkpt lat="42.81923" lon="1.4612">
        <ele>1834.81</ele>
        <time>2016-10-27T08:24:02Z</time>
      </trkpt>
      <trkpt lat="42.81917" lon="1.46124">
        <ele>1838.18</ele>
        <time>2016-10-27T08:24:19Z</time>
      </trkpt>
      <trkpt lat="42.8191" lon="1.46131">
        <ele>1840.58</ele>
        <time>2016-10-27T08:24:35Z</time>
      </trkpt>
      <trkpt lat="42.81903" lon="1.46134">
        <ele>1842.98</ele>
        <time>2016-10-27T08:24:50Z</time>
      </trkpt>
      <trkpt lat="42.81897" lon="1.4614">
        <ele>1845.39</ele>
        <time>2016-10-27T08:25:06Z</time>
      </trkpt>
      <trkpt lat="42.81889" lon="1.46137">
        <ele>1846.83</ele>
        <time>2016-10-27T08:25:21Z</time>
      </trkpt>
      <trkpt lat="42.81881" lon="1.46144">
        <ele>1849.23</ele>
        <time>2016-10-27T08:25:35Z</time>
      </trkpt>
      <trkpt lat="42.81871" lon="1.46152">
        <ele>1849.23</ele>
        <time>2016-10-27T08:25:49Z</time>
      </trkpt>
      <trkpt lat="42.81857" lon="1.46161">
        <ele>1851.16</ele>
        <time>2016-10-27T08:26:05Z</time>
      </trkpt>
      <trkpt lat="42.81856" lon="1.46162">
        <ele>1851.16</ele>
        <time>2016-10-27T08:26:06Z</time>
      </trkpt>
      <trkpt lat="42.81853" lon="1.46162">
        <ele>1851.16</ele>
        <time>2016-10-27T08:26:11Z</time>
      </trkpt>
      <trkpt lat="42.81851" lon="1.46164">
        <ele>1851.16</ele>
        <time>2016-10-27T08:26:13Z</time>
      </trkpt>
      <trkpt lat="42.81842" lon="1.46172">
        <ele>1853.08</ele>
        <time>2016-10-27T08:26:28Z</time>
      </trkpt>
      <trkpt lat="42.81831" lon="1.46183">
        <ele>1855</ele>
        <time>2016-10-27T08:26:43Z</time>
      </trkpt>
      <trkpt lat="42.81826" lon="1.46184">
        <ele>1857.4</ele>
        <time>2016-10-27T08:26:56Z</time>
      </trkpt>
      <trkpt lat="42.81818" lon="1.46182">
        <ele>1860.29</ele>
        <time>2016-10-27T08:27:11Z</time>
      </trkpt>
      <trkpt lat="42.81812" lon="1.4618">
        <ele>1862.69</ele>
        <time>2016-10-27T08:27:25Z</time>
      </trkpt>
      <trkpt lat="42.81806" lon="1.46173">
        <ele>1864.61</ele>
        <time>2016-10-27T08:27:39Z</time>
      </trkpt>
      <trkpt lat="42.81801" lon="1.46171">
        <ele>1867.5</ele>
        <time>2016-10-27T08:27:53Z</time>
      </trkpt>
      <trkpt lat="42.81797" lon="1.46167">
        <ele>1869.42</ele>
        <time>2016-10-27T08:28:07Z</time>
      </trkpt>
      <trkpt lat="42.81793" lon="1.46159">
        <ele>1871.82</ele>
        <time>2016-10-27T08:28:24Z</time>
      </trkpt>
      <trkpt lat="42.81788" lon="1.46151">
        <ele>1874.71</ele>
        <time>2016-10-27T08:28:41Z</time>
      </trkpt>
      <trkpt lat="42.81783" lon="1.46147">
        <ele>1877.11</ele>
        <time>2016-10-27T08:28:55Z</time>
      </trkpt>
      <trkpt lat="42.81779" lon="1.46144">
        <ele>1879.51</ele>
        <time>2016-10-27T08:29:10Z</time>
      </trkpt>
      <trkpt lat="42.81774" lon="1.46139">
        <ele>1882.4</ele>
        <time>2016-10-27T08:29:25Z</time>
      </trkpt>
      <trkpt lat="42.81769" lon="1.46135">
        <ele>1884.8</ele>
        <time>2016-10-27T08:29:40Z</time>
      </trkpt>
      <trkpt lat="42.81763" lon="1.46136">
        <ele>1886.72</ele>
        <time>2016-10-27T08:29:56Z</time>
      </trkpt>
      <trkpt lat="42.81757" lon="1.46135">
        <ele>1890.57</ele>
        <time>2016-10-27T08:30:09Z</time>
      </trkpt>
      <trkpt lat="42.81751" lon="1.4613">
        <ele>1893.45</ele>
        <time>2016-10-27T08:30:26Z</time>
      </trkpt>
      <trkpt lat="42.81744" lon="1.46127">
        <ele>1895.86</ele>
        <time>2016-10-27T08:30:42Z</time>
      </trkpt>
      <trkpt lat="42.81741" lon="1.46126">
        <ele>1898.74</ele>
        <time>2016-10-27T08:30:57Z</time>
      </trkpt>
      <trkpt lat="42.81735" lon="1.46129">
        <ele>1901.14</ele>
        <time>2016-10-27T08:31:12Z</time>
      </trkpt>
      <trkpt lat="42.81729" lon="1.46129">
        <ele>1904.03</ele>
        <time>2016-10-27T08:31:27Z</time>
      </trkpt>
      <trkpt lat="42.81723" lon="1.4613">
        <ele>1906.43</ele>
        <time>2016-10-27T08:31:43Z</time>
      </trkpt>
      <trkpt lat="42.81717" lon="1.46131">
        <ele>1909.32</ele>
        <time>2016-10-27T08:31:58Z</time>
      </trkpt>
      <trkpt lat="42.81711" lon="1.46132">
        <ele>1911.24</ele>
        <time>2016-10-27T08:32:13Z</time>
      </trkpt>
      <trkpt lat="42.81706" lon="1.46133">
        <ele>1914.6</ele>
        <time>2016-10-27T08:32:26Z</time>
      </trkpt>
      <trkpt lat="42.81705" lon="1.46132">
        <ele>1914.6</ele>
        <time>2016-10-27T08:32:27Z</time>
      </trkpt>
      <trkpt lat="42.817" lon="1.46129">
        <ele>1917.01</ele>
        <time>2016-10-27T08:32:42Z</time>
      </trkpt>
      <trkpt lat="42.81694" lon="1.46128">
        <ele>1919.41</ele>
        <time>2016-10-27T08:32:57Z</time>
      </trkpt>
      <trkpt lat="42.81693" lon="1.4613">
        <ele>1920.85</ele>
        <time>2016-10-27T08:33:15Z</time>
      </trkpt>
      <trkpt lat="42.81689" lon="1.46132">
        <ele>1923.74</ele>
        <time>2016-10-27T08:33:30Z</time>
      </trkpt>
      <trkpt lat="42.81686" lon="1.46139">
        <ele>1926.62</ele>
        <time>2016-10-27T08:33:46Z</time>
      </trkpt>
      <trkpt lat="42.81683" lon="1.46141">
        <ele>1929.02</ele>
        <time>2016-10-27T08:34:58Z</time>
      </trkpt>
      <trkpt lat="42.81679" lon="1.46142">
        <ele>1930.46</ele>
        <time>2016-10-27T08:35:05Z</time>
      </trkpt>
      <trkpt lat="42.81673" lon="1.46142">
        <ele>1933.83</ele>
        <time>2016-10-27T08:35:20Z</time>
      </trkpt>
      <trkpt lat="42.81668" lon="1.4614">
        <ele>1937.19</ele>
        <time>2016-10-27T08:35:33Z</time>
      </trkpt>
      <trkpt lat="42.81665" lon="1.46141">
        <ele>1940.56</ele>
        <time>2016-10-27T08:35:47Z</time>
      </trkpt>
      <trkpt lat="42.81665" lon="1.4614">
        <ele>1940.56</ele>
        <time>2016-10-27T08:35:48Z</time>
      </trkpt>
      <trkpt lat="42.81661" lon="1.4614">
        <ele>1942.48</ele>
        <time>2016-10-27T08:36:02Z</time>
      </trkpt>
      <trkpt lat="42.8166" lon="1.46139">
        <ele>1942.48</ele>
        <time>2016-10-27T08:36:30Z</time>
      </trkpt>
      <trkpt lat="42.81658" lon="1.46139">
        <ele>1943.44</ele>
        <time>2016-10-27T08:36:47Z</time>
      </trkpt>
      <trkpt lat="42.81653" lon="1.46127">
        <ele>1945.36</ele>
        <time>2016-10-27T08:37:01Z</time>
      </trkpt>
      <trkpt lat="42.81652" lon="1.46125">
        <ele>1946.33</ele>
        <time>2016-10-27T08:37:47Z</time>
      </trkpt>
      <trkpt lat="42.81652" lon="1.46125">
        <ele>1946.81</ele>
        <time>2016-10-27T08:38:10Z</time>
      </trkpt>
      <trkpt lat="42.81652" lon="1.46122">
        <ele>1945.36</ele>
        <time>2016-10-27T08:38:28Z</time>
      </trkpt>
      <trkpt lat="42.81652" lon="1.46116">
        <ele>1946.81</ele>
        <time>2016-10-27T08:38:34Z</time>
      </trkpt>
      <trkpt lat="42.81652" lon="1.46113">
        <ele>1946.81</ele>
        <time>2016-10-27T08:38:36Z</time>
      </trkpt>
      <trkpt lat="42.81657" lon="1.46091">
        <ele>1949.21</ele>
        <time>2016-10-27T08:38:56Z</time>
      </trkpt>
      <trkpt lat="42.81658" lon="1.46087">
        <ele>1947.77</ele>
        <time>2016-10-27T08:38:59Z</time>
      </trkpt>
      <trkpt lat="42.81664" lon="1.46066">
        <ele>1949.21</ele>
        <time>2016-10-27T08:39:19Z</time>
      </trkpt>
      <trkpt lat="42.81666" lon="1.46057">
        <ele>1952.57</ele>
        <time>2016-10-27T08:39:37Z</time>
      </trkpt>
      <trkpt lat="42.81673" lon="1.46044">
        <ele>1954.02</ele>
        <time>2016-10-27T08:39:55Z</time>
      </trkpt>
      <trkpt lat="42.81678" lon="1.46034">
        <ele>1957.38</ele>
        <time>2016-10-27T08:40:14Z</time>
      </trkpt>
      <trkpt lat="42.81682" lon="1.46023">
        <ele>1960.75</ele>
        <time>2016-10-27T08:40:31Z</time>
      </trkpt>
      <trkpt lat="42.81687" lon="1.46013">
        <ele>1961.71</ele>
        <time>2016-10-27T08:40:51Z</time>
      </trkpt>
      <trkpt lat="42.81683" lon="1.46005">
        <ele>1964.59</ele>
        <time>2016-10-27T08:41:13Z</time>
      </trkpt>
      <trkpt lat="42.81689" lon="1.45994">
        <ele>1965.55</ele>
        <time>2016-10-27T08:41:30Z</time>
      </trkpt>
      <trkpt lat="42.81697" lon="1.4598">
        <ele>1966.03</ele>
        <time>2016-10-27T08:41:48Z</time>
      </trkpt>
      <trkpt lat="42.8171" lon="1.45967">
        <ele>1966.99</ele>
        <time>2016-10-27T08:42:05Z</time>
      </trkpt>
      <trkpt lat="42.81722" lon="1.45965">
        <ele>1968.92</ele>
        <time>2016-10-27T08:42:24Z</time>
      </trkpt>
      <trkpt lat="42.81726" lon="1.45955">
        <ele>1972.28</ele>
        <time>2016-10-27T08:42:43Z</time>
      </trkpt>
      <trkpt lat="42.81725" lon="1.45946">
        <ele>1975.17</ele>
        <time>2016-10-27T08:43:03Z</time>
      </trkpt>
      <trkpt lat="42.81727" lon="1.45939">
        <ele>1978.05</ele>
        <time>2016-10-27T08:43:18Z</time>
      </trkpt>
      <trkpt lat="42.81726" lon="1.45937">
        <ele>1980.45</ele>
        <time>2016-10-27T08:43:37Z</time>
      </trkpt>
      <trkpt lat="42.81725" lon="1.45935">
        <ele>1982.86</ele>
        <time>2016-10-27T08:43:51Z</time>
      </trkpt>
      <trkpt lat="42.81726" lon="1.45931">
        <ele>1985.74</ele>
        <time>2016-10-27T08:44:08Z</time>
      </trkpt>
      <trkpt lat="42.8173" lon="1.45929">
        <ele>1986.7</ele>
        <time>2016-10-27T08:44:27Z</time>
      </trkpt>
      <trkpt lat="42.81733" lon="1.45919">
        <ele>1985.74</ele>
        <time>2016-10-27T08:44:43Z</time>
      </trkpt>
      <trkpt lat="42.81733" lon="1.45918">
        <ele>1985.74</ele>
        <time>2016-10-27T08:44:44Z</time>
      </trkpt>
      <trkpt lat="42.81737" lon="1.45907">
        <ele>1983.82</ele>
        <time>2016-10-27T08:44:57Z</time>
      </trkpt>
      <trkpt lat="42.81743" lon="1.45898">
        <ele>1983.34</ele>
        <time>2016-10-27T08:45:08Z</time>
      </trkpt>
      <trkpt lat="42.81745" lon="1.45888">
        <ele>1986.7</ele>
        <time>2016-10-27T08:45:26Z</time>
      </trkpt>
      <trkpt lat="42.81743" lon="1.45879">
        <ele>1989.59</ele>
        <time>2016-10-27T08:45:38Z</time>
      </trkpt>
      <trkpt lat="42.81746" lon="1.45871">
        <ele>1992.95</ele>
        <time>2016-10-27T08:45:54Z</time>
      </trkpt>
      <trkpt lat="42.81746" lon="1.45871">
        <ele>1992.95</ele>
        <time>2016-10-27T08:45:55Z</time>
      </trkpt>
      <trkpt lat="42.81747" lon="1.4586">
        <ele>1995.83</ele>
        <time>2016-10-27T08:46:15Z</time>
      </trkpt>
      <trkpt lat="42.81749" lon="1.45854">
        <ele>1999.2</ele>
        <time>2016-10-27T08:46:33Z</time>
      </trkpt>
      <trkpt lat="42.81752" lon="1.45852">
        <ele>2003.04</ele>
        <time>2016-10-27T08:46:54Z</time>
      </trkpt>
      <trkpt lat="42.81761" lon="1.45854">
        <ele>2004.49</ele>
        <time>2016-10-27T08:47:12Z</time>
      </trkpt>
      <trkpt lat="42.81771" lon="1.45848">
        <ele>2006.89</ele>
        <time>2016-10-27T08:47:33Z</time>
      </trkpt>
      <trkpt lat="42.81779" lon="1.45844">
        <ele>2006.41</ele>
        <time>2016-10-27T08:47:49Z</time>
      </trkpt>
      <trkpt lat="42.81794" lon="1.45844">
        <ele>2009.29</ele>
        <time>2016-10-27T08:48:06Z</time>
      </trkpt>
      <trkpt lat="42.81806" lon="1.4584">
        <ele>2008.33</ele>
        <time>2016-10-27T08:48:23Z</time>
      </trkpt>
      <trkpt lat="42.81805" lon="1.45838">
        <ele>2008.81</ele>
        <time>2016-10-27T08:48:49Z</time>
      </trkpt>
      <trkpt lat="42.81806" lon="1.45837">
        <ele>2007.37</ele>
        <time>2016-10-27T08:48:55Z</time>
      </trkpt>
      <trkpt lat="42.81811" lon="1.45835">
        <ele>2010.73</ele>
        <time>2016-10-27T08:49:06Z</time>
      </trkpt>
      <trkpt lat="42.81816" lon="1.45833">
        <ele>2013.62</ele>
        <time>2016-10-27T08:49:19Z</time>
      </trkpt>
      <trkpt lat="42.81818" lon="1.45835">
        <ele>2016.02</ele>
        <time>2016-10-27T08:49:36Z</time>
      </trkpt>
      <trkpt lat="42.81819" lon="1.45836">
        <ele>2012.66</ele>
        <time>2016-10-27T08:49:41Z</time>
      </trkpt>
      <trkpt lat="42.81819" lon="1.45836">
        <ele>2020.83</ele>
        <time>2016-10-27T08:49:42Z</time>
      </trkpt>
      <trkpt lat="42.81819" lon="1.45836">
        <ele>2016.5</ele>
        <time>2016-10-27T08:49:43Z</time>
      </trkpt>
      <trkpt lat="42.8182" lon="1.45835">
        <ele>2017.94</ele>
        <time>2016-10-27T08:49:59Z</time>
      </trkpt>
      <trkpt lat="42.81824" lon="1.45828">
        <ele>2019.87</ele>
        <time>2016-10-27T08:50:14Z</time>
      </trkpt>
      <trkpt lat="42.81825" lon="1.45827">
        <ele>2020.83</ele>
        <time>2016-10-27T08:50:17Z</time>
      </trkpt>
      <trkpt lat="42.81827" lon="1.45825">
        <ele>2022.27</ele>
        <time>2016-10-27T08:50:24Z</time>
      </trkpt>
      <trkpt lat="42.81833" lon="1.45823">
        <ele>2028.04</ele>
        <time>2016-10-27T08:51:55Z</time>
      </trkpt>
      <trkpt lat="42.81833" lon="1.45822">
        <ele>2028.04</ele>
        <time>2016-10-27T08:51:56Z</time>
      </trkpt>
      <trkpt lat="42.81846" lon="1.45817">
        <ele>2029</ele>
        <time>2016-10-27T08:52:11Z</time>
      </trkpt>
      <trkpt lat="42.81858" lon="1.45816">
        <ele>2031.88</ele>
        <time>2016-10-27T08:52:30Z</time>
      </trkpt>
      <trkpt lat="42.81866" lon="1.45816">
        <ele>2034.77</ele>
        <time>2016-10-27T08:52:48Z</time>
      </trkpt>
      <trkpt lat="42.81874" lon="1.45809">
        <ele>2038.13</ele>
        <time>2016-10-27T08:53:06Z</time>
      </trkpt>
      <trkpt lat="42.81879" lon="1.45799">
        <ele>2040.54</ele>
        <time>2016-10-27T08:53:26Z</time>
      </trkpt>
      <trkpt lat="42.81886" lon="1.45784">
        <ele>2043.9</ele>
        <time>2016-10-27T08:53:45Z</time>
      </trkpt>
      <trkpt lat="42.81898" lon="1.45775">
        <ele>2046.3</ele>
        <time>2016-10-27T08:54:07Z</time>
      </trkpt>
      <trkpt lat="42.81899" lon="1.45771">
        <ele>2046.3</ele>
        <time>2016-10-27T08:54:19Z</time>
      </trkpt>
      <trkpt lat="42.81902" lon="1.45768">
        <ele>2045.34</ele>
        <time>2016-10-27T08:54:22Z</time>
      </trkpt>
      <trkpt lat="42.81905" lon="1.45766">
        <ele>2046.78</ele>
        <time>2016-10-27T08:54:26Z</time>
      </trkpt>
      <trkpt lat="42.81921" lon="1.45752">
        <ele>2046.3</ele>
        <time>2016-10-27T08:54:45Z</time>
      </trkpt>
      <trkpt lat="42.81934" lon="1.45728">
        <ele>2045.82</ele>
        <time>2016-10-27T08:55:04Z</time>
      </trkpt>
      <trkpt lat="42.81936" lon="1.45727">
        <ele>2047.26</ele>
        <time>2016-10-27T08:55:07Z</time>
      </trkpt>
      <trkpt lat="42.8194" lon="1.45722">
        <ele>2047.26</ele>
        <time>2016-10-27T08:55:14Z</time>
      </trkpt>
      <trkpt lat="42.81952" lon="1.45706">
        <ele>2049.19</ele>
        <time>2016-10-27T08:55:32Z</time>
      </trkpt>
      <trkpt lat="42.81958" lon="1.457">
        <ele>2052.07</ele>
        <time>2016-10-27T08:55:46Z</time>
      </trkpt>
      <trkpt lat="42.81963" lon="1.45692">
        <ele>2055.44</ele>
        <time>2016-10-27T08:56:04Z</time>
      </trkpt>
      <trkpt lat="42.81969" lon="1.45684">
        <ele>2057.84</ele>
        <time>2016-10-27T08:56:25Z</time>
      </trkpt>
      <trkpt lat="42.81973" lon="1.45681">
        <ele>2061.2</ele>
        <time>2016-10-27T08:56:42Z</time>
      </trkpt>
      <trkpt lat="42.81978" lon="1.45676">
        <ele>2062.65</ele>
        <time>2016-10-27T08:57:02Z</time>
      </trkpt>
      <trkpt lat="42.81983" lon="1.45675">
        <ele>2066.01</ele>
        <time>2016-10-27T08:57:14Z</time>
      </trkpt>
      <trkpt lat="42.81988" lon="1.45668">
        <ele>2067.93</ele>
        <time>2016-10-27T08:57:30Z</time>
      </trkpt>
      <trkpt lat="42.81998" lon="1.45655">
        <ele>2069.38</ele>
        <time>2016-10-27T08:57:47Z</time>
      </trkpt>
      <trkpt lat="42.82013" lon="1.45636">
        <ele>2069.86</ele>
        <time>2016-10-27T08:58:07Z</time>
      </trkpt>
      <trkpt lat="42.82023" lon="1.45622">
        <ele>2071.3</ele>
        <time>2016-10-27T08:58:23Z</time>
      </trkpt>
      <trkpt lat="42.82029" lon="1.45609">
        <ele>2073.22</ele>
        <time>2016-10-27T08:58:38Z</time>
      </trkpt>
      <trkpt lat="42.82036" lon="1.45601">
        <ele>2074.18</ele>
        <time>2016-10-27T08:58:56Z</time>
      </trkpt>
      <trkpt lat="42.82049" lon="1.45595">
        <ele>2075.14</ele>
        <time>2016-10-27T08:59:12Z</time>
      </trkpt>
      <trkpt lat="42.82054" lon="1.45589">
        <ele>2076.59</ele>
        <time>2016-10-27T08:59:30Z</time>
      </trkpt>
      <trkpt lat="42.82055" lon="1.45587">
        <ele>2080.43</ele>
        <time>2016-10-27T09:02:13Z</time>
      </trkpt>
      <trkpt lat="42.82054" lon="1.45587">
        <ele>2077.07</ele>
        <time>2016-10-27T09:02:14Z</time>
      </trkpt>
      <trkpt lat="42.82057" lon="1.45586">
        <ele>2076.1</ele>
        <time>2016-10-27T09:02:35Z</time>
      </trkpt>
      <trkpt lat="42.82064" lon="1.45585">
        <ele>2079.95</ele>
        <time>2016-10-27T09:02:50Z</time>
      </trkpt>
      <trkpt lat="42.82065" lon="1.45583">
        <ele>2078.99</ele>
        <time>2016-10-27T09:03:11Z</time>
      </trkpt>
      <trkpt lat="42.82065" lon="1.45573">
        <ele>2078.51</ele>
        <time>2016-10-27T09:03:27Z</time>
      </trkpt>
      <trkpt lat="42.82066" lon="1.45573">
        <ele>2078.51</ele>
        <time>2016-10-27T09:03:28Z</time>
      </trkpt>
      <trkpt lat="42.82068" lon="1.45574">
        <ele>2080.43</ele>
        <time>2016-10-27T09:03:38Z</time>
      </trkpt>
      <trkpt lat="42.82075" lon="1.45568">
        <ele>2083.79</ele>
        <time>2016-10-27T09:03:53Z</time>
      </trkpt>
      <trkpt lat="42.82082" lon="1.45559">
        <ele>2083.31</ele>
        <time>2016-10-27T09:04:09Z</time>
      </trkpt>
      <trkpt lat="42.82085" lon="1.45553">
        <ele>2084.76</ele>
        <time>2016-10-27T09:04:15Z</time>
      </trkpt>
      <trkpt lat="42.82085" lon="1.45546">
        <ele>2083.31</ele>
        <time>2016-10-27T09:04:21Z</time>
      </trkpt>
      <trkpt lat="42.82086" lon="1.45538">
        <ele>2082.83</ele>
        <time>2016-10-27T09:04:27Z</time>
      </trkpt>
      <trkpt lat="42.82092" lon="1.45523">
        <ele>2082.35</ele>
        <time>2016-10-27T09:04:39Z</time>
      </trkpt>
      <trkpt lat="42.82093" lon="1.4552">
        <ele>2084.28</ele>
        <time>2016-10-27T09:04:42Z</time>
      </trkpt>
      <trkpt lat="42.82097" lon="1.45512">
        <ele>2087.64</ele>
        <time>2016-10-27T09:04:59Z</time>
      </trkpt>
      <trkpt lat="42.82098" lon="1.45509">
        <ele>2091</ele>
        <time>2016-10-27T09:05:05Z</time>
      </trkpt>
      <trkpt lat="42.82101" lon="1.45506">
        <ele>2090.04</ele>
        <time>2016-10-27T09:05:13Z</time>
      </trkpt>
      <trkpt lat="42.82108" lon="1.45493">
        <ele>2092.93</ele>
        <time>2016-10-27T09:05:34Z</time>
      </trkpt>
      <trkpt lat="42.82111" lon="1.45479">
        <ele>2092.93</ele>
        <time>2016-10-27T09:05:54Z</time>
      </trkpt>
      <trkpt lat="42.82113" lon="1.45462">
        <ele>2096.29</ele>
        <time>2016-10-27T09:06:10Z</time>
      </trkpt>
      <trkpt lat="42.82114" lon="1.45459">
        <ele>2096.29</ele>
        <time>2016-10-27T09:06:15Z</time>
      </trkpt>
      <trkpt lat="42.82119" lon="1.45448">
        <ele>2099.18</ele>
        <time>2016-10-27T09:06:29Z</time>
      </trkpt>
      <trkpt lat="42.82122" lon="1.45443">
        <ele>2099.66</ele>
        <time>2016-10-27T09:06:49Z</time>
      </trkpt>
      <trkpt lat="42.82124" lon="1.45425">
        <ele>2101.1</ele>
        <time>2016-10-27T09:07:06Z</time>
      </trkpt>
      <trkpt lat="42.82128" lon="1.45417">
        <ele>2103.98</ele>
        <time>2016-10-27T09:07:18Z</time>
      </trkpt>
      <trkpt lat="42.82131" lon="1.45413">
        <ele>2107.83</ele>
        <time>2016-10-27T09:07:27Z</time>
      </trkpt>
      <trkpt lat="42.82132" lon="1.45409">
        <ele>2106.39</ele>
        <time>2016-10-27T09:07:33Z</time>
      </trkpt>
      <trkpt lat="42.82136" lon="1.45403">
        <ele>2108.79</ele>
        <time>2016-10-27T09:07:51Z</time>
      </trkpt>
      <trkpt lat="42.82141" lon="1.45402">
        <ele>2112.63</ele>
        <time>2016-10-27T09:08:04Z</time>
      </trkpt>
      <trkpt lat="42.82142" lon="1.45402">
        <ele>2112.63</ele>
        <time>2016-10-27T09:08:06Z</time>
      </trkpt>
      <trkpt lat="42.82147" lon="1.45402">
        <ele>2116.96</ele>
        <time>2016-10-27T09:08:24Z</time>
      </trkpt>
      <trkpt lat="42.82153" lon="1.45398">
        <ele>2116</ele>
        <time>2016-10-27T09:08:44Z</time>
      </trkpt>
      <trkpt lat="42.82154" lon="1.45398">
        <ele>2117.44</ele>
        <time>2016-10-27T09:08:49Z</time>
      </trkpt>
      <trkpt lat="42.82156" lon="1.45398">
        <ele>2122.25</ele>
        <time>2016-10-27T09:08:55Z</time>
      </trkpt>
      <trkpt lat="42.82157" lon="1.45398">
        <ele>2118.88</ele>
        <time>2016-10-27T09:08:56Z</time>
      </trkpt>
      <trkpt lat="42.82158" lon="1.45398">
        <ele>2121.29</ele>
        <time>2016-10-27T09:09:01Z</time>
      </trkpt>
      <trkpt lat="42.82161" lon="1.45398">
        <ele>2122.25</ele>
        <time>2016-10-27T09:09:15Z</time>
      </trkpt>
      <trkpt lat="42.82164" lon="1.45399">
        <ele>2124.65</ele>
        <time>2016-10-27T09:09:31Z</time>
      </trkpt>
      <trkpt lat="42.82168" lon="1.45401">
        <ele>2128.02</ele>
        <time>2016-10-27T09:09:48Z</time>
      </trkpt>
      <trkpt lat="42.82168" lon="1.45402">
        <ele>2128.02</ele>
        <time>2016-10-27T09:09:49Z</time>
      </trkpt>
      <trkpt lat="42.82171" lon="1.454">
        <ele>2128.98</ele>
        <time>2016-10-27T09:10:07Z</time>
      </trkpt>
      <trkpt lat="42.82172" lon="1.45398">
        <ele>2131.38</ele>
        <time>2016-10-27T09:10:11Z</time>
      </trkpt>
      <trkpt lat="42.82176" lon="1.45399">
        <ele>2130.42</ele>
        <time>2016-10-27T09:10:29Z</time>
      </trkpt>
      <trkpt lat="42.82177" lon="1.45398">
        <ele>2136.19</ele>
        <time>2016-10-27T09:10:30Z</time>
      </trkpt>
      <trkpt lat="42.82178" lon="1.45398">
        <ele>2132.82</ele>
        <time>2016-10-27T09:10:34Z</time>
      </trkpt>
      <trkpt lat="42.82178" lon="1.45398">
        <ele>2136.19</ele>
        <time>2016-10-27T09:10:35Z</time>
      </trkpt>
      <trkpt lat="42.82184" lon="1.45392">
        <ele>2138.59</ele>
        <time>2016-10-27T09:10:58Z</time>
      </trkpt>
      <trkpt lat="42.8219" lon="1.45394">
        <ele>2141.47</ele>
        <time>2016-10-27T09:11:13Z</time>
      </trkpt>
      <trkpt lat="42.8219" lon="1.45385">
        <ele>2142.92</ele>
        <time>2016-10-27T09:11:29Z</time>
      </trkpt>
      <trkpt lat="42.82195" lon="1.45366">
        <ele>2145.32</ele>
        <time>2016-10-27T09:11:48Z</time>
      </trkpt>
      <trkpt lat="42.82202" lon="1.45351">
        <ele>2146.76</ele>
        <time>2016-10-27T09:12:04Z</time>
      </trkpt>
      <trkpt lat="42.82212" lon="1.4534">
        <ele>2148.68</ele>
        <time>2016-10-27T09:12:21Z</time>
      </trkpt>
      <trkpt lat="42.82223" lon="1.45337">
        <ele>2150.61</ele>
        <time>2016-10-27T09:12:38Z</time>
      </trkpt>
      <trkpt lat="42.82237" lon="1.4533">
        <ele>2151.57</ele>
        <time>2016-10-27T09:12:55Z</time>
      </trkpt>
      <trkpt lat="42.82241" lon="1.45326">
        <ele>2152.53</ele>
        <time>2016-10-27T09:13:12Z</time>
      </trkpt>
      <trkpt lat="42.82243" lon="1.45326">
        <ele>2152.05</ele>
        <time>2016-10-27T09:13:35Z</time>
      </trkpt>
      <trkpt lat="42.82244" lon="1.45324">
        <ele>2152.05</ele>
        <time>2016-10-27T09:13:54Z</time>
      </trkpt>
      <trkpt lat="42.82245" lon="1.45323">
        <ele>2152.05</ele>
        <time>2016-10-27T09:14:15Z</time>
      </trkpt>
      <trkpt lat="42.82244" lon="1.45323">
        <ele>2152.05</ele>
        <time>2016-10-27T09:14:27Z</time>
      </trkpt>
      <trkpt lat="42.82245" lon="1.45323">
        <ele>2151.57</ele>
        <time>2016-10-27T09:14:47Z</time>
      </trkpt>
      <trkpt lat="42.82245" lon="1.45323">
        <ele>2152.05</ele>
        <time>2016-10-27T09:15:09Z</time>
      </trkpt>
      <trkpt lat="42.82246" lon="1.4532">
        <ele>2152.05</ele>
        <time>2016-10-27T09:15:37Z</time>
      </trkpt>
      <trkpt lat="42.82248" lon="1.45313">
        <ele>2152.05</ele>
        <time>2016-10-27T09:15:44Z</time>
      </trkpt>
      <trkpt lat="42.82255" lon="1.45283">
        <ele>2149.65</ele>
        <time>2016-10-27T09:16:03Z</time>
      </trkpt>
      <trkpt lat="42.82264" lon="1.45262">
        <ele>2148.2</ele>
        <time>2016-10-27T09:16:17Z</time>
      </trkpt>
      <trkpt lat="42.8227" lon="1.45241">
        <ele>2147.72</ele>
        <time>2016-10-27T09:16:31Z</time>
      </trkpt>
      <trkpt lat="42.82275" lon="1.45219">
        <ele>2147.24</ele>
        <time>2016-10-27T09:16:45Z</time>
      </trkpt>
      <trkpt lat="42.82281" lon="1.45197">
        <ele>2146.76</ele>
        <time>2016-10-27T09:16:59Z</time>
      </trkpt>
      <trkpt lat="42.82291" lon="1.45172">
        <ele>2145.32</ele>
        <time>2016-10-27T09:17:16Z</time>
      </trkpt>
      <trkpt lat="42.82299" lon="1.45152">
        <ele>2142.92</ele>
        <time>2016-10-27T09:17:31Z</time>
      </trkpt>
      <trkpt lat="42.82307" lon="1.45131">
        <ele>2140.51</ele>
        <time>2016-10-27T09:17:45Z</time>
      </trkpt>
      <trkpt lat="42.8232" lon="1.45111">
        <ele>2138.11</ele>
        <time>2016-10-27T09:18:01Z</time>
      </trkpt>
      <trkpt lat="42.82331" lon="1.45095">
        <ele>2136.67</ele>
        <time>2016-10-27T09:18:14Z</time>
      </trkpt>
      <trkpt lat="42.82341" lon="1.45079">
        <ele>2133.78</ele>
        <time>2016-10-27T09:18:27Z</time>
      </trkpt>
      <trkpt lat="42.82345" lon="1.45074">
        <ele>2132.34</ele>
        <time>2016-10-27T09:18:33Z</time>
      </trkpt>
      <trkpt lat="42.82347" lon="1.45072">
        <ele>2131.38</ele>
        <time>2016-10-27T09:18:36Z</time>
      </trkpt>
      <trkpt lat="42.82352" lon="1.45064">
        <ele>2129.94</ele>
        <time>2016-10-27T09:18:43Z</time>
      </trkpt>
      <trkpt lat="42.82361" lon="1.45048">
        <ele>2126.57</ele>
        <time>2016-10-27T09:18:59Z</time>
      </trkpt>
      <trkpt lat="42.82369" lon="1.45033">
        <ele>2124.17</ele>
        <time>2016-10-27T09:19:11Z</time>
      </trkpt>
      <trkpt lat="42.82373" lon="1.45025">
        <ele>2122.73</ele>
        <time>2016-10-27T09:19:25Z</time>
      </trkpt>
      <trkpt lat="42.82373" lon="1.45023">
        <ele>2122.73</ele>
        <time>2016-10-27T09:19:49Z</time>
      </trkpt>
      <trkpt lat="42.82383" lon="1.45009">
        <ele>2120.32</ele>
        <time>2016-10-27T09:20:02Z</time>
      </trkpt>
      <trkpt lat="42.82392" lon="1.44993">
        <ele>2118.4</ele>
        <time>2016-10-27T09:20:15Z</time>
      </trkpt>
      <trkpt lat="42.82393" lon="1.44987">
        <ele>2117.44</ele>
        <time>2016-10-27T09:20:20Z</time>
      </trkpt>
      <trkpt lat="42.82404" lon="1.44971">
        <ele>2114.56</ele>
        <time>2016-10-27T09:20:35Z</time>
      </trkpt>
      <trkpt lat="42.82411" lon="1.44958">
        <ele>2112.15</ele>
        <time>2016-10-27T09:20:46Z</time>
      </trkpt>
      <trkpt lat="42.82416" lon="1.44949">
        <ele>2110.71</ele>
        <time>2016-10-27T09:20:54Z</time>
      </trkpt>
      <trkpt lat="42.82421" lon="1.4493">
        <ele>2109.27</ele>
        <time>2016-10-27T09:21:07Z</time>
      </trkpt>
      <trkpt lat="42.82425" lon="1.44914">
        <ele>2107.35</ele>
        <time>2016-10-27T09:21:20Z</time>
      </trkpt>
      <trkpt lat="42.82431" lon="1.44903">
        <ele>2103.98</ele>
        <time>2016-10-27T09:21:33Z</time>
      </trkpt>
      <trkpt lat="42.82431" lon="1.44901">
        <ele>2103.98</ele>
        <time>2016-10-27T09:21:34Z</time>
      </trkpt>
      <trkpt lat="42.82432" lon="1.44897">
        <ele>2103.5</ele>
        <time>2016-10-27T09:21:38Z</time>
      </trkpt>
      <trkpt lat="42.82432" lon="1.44881">
        <ele>2101.1</ele>
        <time>2016-10-27T09:21:51Z</time>
      </trkpt>
      <trkpt lat="42.82433" lon="1.44869">
        <ele>2097.25</ele>
        <time>2016-10-27T09:22:01Z</time>
      </trkpt>
      <trkpt lat="42.82433" lon="1.44868">
        <ele>2097.25</ele>
        <time>2016-10-27T09:22:02Z</time>
      </trkpt>
      <trkpt lat="42.82435" lon="1.44857">
        <ele>2095.33</ele>
        <time>2016-10-27T09:22:15Z</time>
      </trkpt>
      <trkpt lat="42.82439" lon="1.44848">
        <ele>2093.41</ele>
        <time>2016-10-27T09:22:24Z</time>
      </trkpt>
      <trkpt lat="42.82445" lon="1.44831">
        <ele>2091.49</ele>
        <time>2016-10-27T09:22:39Z</time>
      </trkpt>
      <trkpt lat="42.82445" lon="1.44829">
        <ele>2091.49</ele>
        <time>2016-10-27T09:23:00Z</time>
      </trkpt>
      <trkpt lat="42.82446" lon="1.44828">
        <ele>2092.45</ele>
        <time>2016-10-27T09:23:33Z</time>
      </trkpt>
      <trkpt lat="42.82452" lon="1.44822">
        <ele>2093.41</ele>
        <time>2016-10-27T09:23:47Z</time>
      </trkpt>
      <trkpt lat="42.82459" lon="1.44816">
        <ele>2094.37</ele>
        <time>2016-10-27T09:24:04Z</time>
      </trkpt>
      <trkpt lat="42.8246" lon="1.44816">
        <ele>2095.81</ele>
        <time>2016-10-27T09:24:06Z</time>
      </trkpt>
      <trkpt lat="42.82463" lon="1.4481">
        <ele>2098.7</ele>
        <time>2016-10-27T09:24:20Z</time>
      </trkpt>
      <trkpt lat="42.82469" lon="1.44804">
        <ele>2101.1</ele>
        <time>2016-10-27T09:24:37Z</time>
      </trkpt>
      <trkpt lat="42.8247" lon="1.448">
        <ele>2103.98</ele>
        <time>2016-10-27T09:24:50Z</time>
      </trkpt>
      <trkpt lat="42.82474" lon="1.44792">
        <ele>2105.42</ele>
        <time>2016-10-27T09:25:05Z</time>
      </trkpt>
      <trkpt lat="42.8248" lon="1.44785">
        <ele>2108.31</ele>
        <time>2016-10-27T09:25:24Z</time>
      </trkpt>
      <trkpt lat="42.82485" lon="1.44778">
        <ele>2111.67</ele>
        <time>2016-10-27T09:25:42Z</time>
      </trkpt>
      <trkpt lat="42.82489" lon="1.44771">
        <ele>2114.08</ele>
        <time>2016-10-27T09:25:59Z</time>
      </trkpt>
      <trkpt lat="42.82493" lon="1.44767">
        <ele>2116.96</ele>
        <time>2016-10-27T09:26:17Z</time>
      </trkpt>
      <trkpt lat="42.82497" lon="1.44765">
        <ele>2119.36</ele>
        <time>2016-10-27T09:26:35Z</time>
      </trkpt>
      <trkpt lat="42.825" lon="1.4476">
        <ele>2121.29</ele>
        <time>2016-10-27T09:26:52Z</time>
      </trkpt>
      <trkpt lat="42.82504" lon="1.44759">
        <ele>2123.21</ele>
        <time>2016-10-27T09:27:09Z</time>
      </trkpt>
      <trkpt lat="42.82507" lon="1.44752">
        <ele>2125.13</ele>
        <time>2016-10-27T09:27:23Z</time>
      </trkpt>
      <trkpt lat="42.8251" lon="1.44742">
        <ele>2127.05</ele>
        <time>2016-10-27T09:27:38Z</time>
      </trkpt>
      <trkpt lat="42.82514" lon="1.44732">
        <ele>2129.46</ele>
        <time>2016-10-27T09:27:53Z</time>
      </trkpt>
      <trkpt lat="42.82518" lon="1.44724">
        <ele>2131.86</ele>
        <time>2016-10-27T09:28:08Z</time>
      </trkpt>
      <trkpt lat="42.82524" lon="1.44722">
        <ele>2135.23</ele>
        <time>2016-10-27T09:28:25Z</time>
      </trkpt>
      <trkpt lat="42.82528" lon="1.44724">
        <ele>2135.71</ele>
        <time>2016-10-27T09:28:42Z</time>
      </trkpt>
      <trkpt lat="42.82537" lon="1.44725">
        <ele>2138.59</ele>
        <time>2016-10-27T09:28:59Z</time>
      </trkpt>
      <trkpt lat="42.82547" lon="1.44723">
        <ele>2141.47</ele>
        <time>2016-10-27T09:29:18Z</time>
      </trkpt>
      <trkpt lat="42.82557" lon="1.44721">
        <ele>2143.88</ele>
        <time>2016-10-27T09:29:35Z</time>
      </trkpt>
      <trkpt lat="42.82564" lon="1.44715">
        <ele>2146.28</ele>
        <time>2016-10-27T09:29:52Z</time>
      </trkpt>
      <trkpt lat="42.82566" lon="1.44713">
        <ele>2146.76</ele>
        <time>2016-10-27T09:30:07Z</time>
      </trkpt>
      <trkpt lat="42.8257" lon="1.44707">
        <ele>2146.76</ele>
        <time>2016-10-27T09:30:12Z</time>
      </trkpt>
      <trkpt lat="42.82574" lon="1.44696">
        <ele>2146.76</ele>
        <time>2016-10-27T09:30:22Z</time>
      </trkpt>
      <trkpt lat="42.82577" lon="1.44689">
        <ele>2146.76</ele>
        <time>2016-10-27T09:30:36Z</time>
      </trkpt>
      <trkpt lat="42.82577" lon="1.44688">
        <ele>2146.76</ele>
        <time>2016-10-27T09:31:05Z</time>
      </trkpt>
      <trkpt lat="42.82582" lon="1.44681">
        <ele>2147.24</ele>
        <time>2016-10-27T09:31:26Z</time>
      </trkpt>
      <trkpt lat="42.82595" lon="1.44667">
        <ele>2147.24</ele>
        <time>2016-10-27T09:31:40Z</time>
      </trkpt>
      <trkpt lat="42.826" lon="1.44658">
        <ele>2147.24</ele>
        <time>2016-10-27T09:31:48Z</time>
      </trkpt>
      <trkpt lat="42.82603" lon="1.44655">
        <ele>2147.72</ele>
        <time>2016-10-27T09:31:52Z</time>
      </trkpt>
      <trkpt lat="42.82606" lon="1.4465">
        <ele>2148.2</ele>
        <time>2016-10-27T09:31:57Z</time>
      </trkpt>
      <trkpt lat="42.8262" lon="1.44632">
        <ele>2150.61</ele>
        <time>2016-10-27T09:32:17Z</time>
      </trkpt>
      <trkpt lat="42.82628" lon="1.44623">
        <ele>2150.61</ele>
        <time>2016-10-27T09:32:27Z</time>
      </trkpt>
      <trkpt lat="42.82631" lon="1.4462">
        <ele>2149.16</ele>
        <time>2016-10-27T09:32:31Z</time>
      </trkpt>
      <trkpt lat="42.82633" lon="1.44615">
        <ele>2148.2</ele>
        <time>2016-10-27T09:32:36Z</time>
      </trkpt>
      <trkpt lat="42.82641" lon="1.44605">
        <ele>2145.8</ele>
        <time>2016-10-27T09:32:50Z</time>
      </trkpt>
      <trkpt lat="42.8264" lon="1.44593">
        <ele>2143.4</ele>
        <time>2016-10-27T09:33:02Z</time>
      </trkpt>
      <trkpt lat="42.82642" lon="1.44591">
        <ele>2142.44</ele>
        <time>2016-10-27T09:33:06Z</time>
      </trkpt>
      <trkpt lat="42.82643" lon="1.44589">
        <ele>2140.99</ele>
        <time>2016-10-27T09:33:08Z</time>
      </trkpt>
      <trkpt lat="42.82646" lon="1.44588">
        <ele>2140.99</ele>
        <time>2016-10-27T09:33:10Z</time>
      </trkpt>
      <trkpt lat="42.82663" lon="1.44576">
        <ele>2140.51</ele>
        <time>2016-10-27T09:33:27Z</time>
      </trkpt>
      <trkpt lat="42.82668" lon="1.44574">
        <ele>2142.92</ele>
        <time>2016-10-27T09:33:34Z</time>
      </trkpt>
      <trkpt lat="42.82678" lon="1.4457">
        <ele>2145.32</ele>
        <time>2016-10-27T09:33:51Z</time>
      </trkpt>
      <trkpt lat="42.82686" lon="1.44566">
        <ele>2148.2</ele>
        <time>2016-10-27T09:34:08Z</time>
      </trkpt>
      <trkpt lat="42.82695" lon="1.44564">
        <ele>2150.61</ele>
        <time>2016-10-27T09:34:23Z</time>
      </trkpt>
      <trkpt lat="42.82705" lon="1.4456">
        <ele>2151.09</ele>
        <time>2016-10-27T09:34:39Z</time>
      </trkpt>
      <trkpt lat="42.82712" lon="1.44559">
        <ele>2151.57</ele>
        <time>2016-10-27T09:34:48Z</time>
      </trkpt>
      <trkpt lat="42.82726" lon="1.44558">
        <ele>2153.01</ele>
        <time>2016-10-27T09:35:05Z</time>
      </trkpt>
      <trkpt lat="42.82736" lon="1.44553">
        <ele>2153.97</ele>
        <time>2016-10-27T09:35:18Z</time>
      </trkpt>
      <trkpt lat="42.82742" lon="1.4455">
        <ele>2152.53</ele>
        <time>2016-10-27T09:35:25Z</time>
      </trkpt>
      <trkpt lat="42.82744" lon="1.44548">
        <ele>2151.57</ele>
        <time>2016-10-27T09:35:28Z</time>
      </trkpt>
      <trkpt lat="42.82756" lon="1.44538">
        <ele>2151.57</ele>
        <time>2016-10-27T09:35:44Z</time>
      </trkpt>
      <trkpt lat="42.82765" lon="1.44533">
        <ele>2154.45</ele>
        <time>2016-10-27T09:35:58Z</time>
      </trkpt>
      <trkpt lat="42.82768" lon="1.44527">
        <ele>2153.01</ele>
        <time>2016-10-27T09:36:09Z</time>
      </trkpt>
      <trkpt lat="42.82777" lon="1.44519">
        <ele>2155.89</ele>
        <time>2016-10-27T09:36:24Z</time>
      </trkpt>
      <trkpt lat="42.82781" lon="1.44516">
        <ele>2158.3</ele>
        <time>2016-10-27T09:36:34Z</time>
      </trkpt>
      <trkpt lat="42.8279" lon="1.44514">
        <ele>2159.26</ele>
        <time>2016-10-27T09:36:47Z</time>
      </trkpt>
      <trkpt lat="42.828" lon="1.44509">
        <ele>2162.14</ele>
        <time>2016-10-27T09:37:04Z</time>
      </trkpt>
      <trkpt lat="42.82809" lon="1.44505">
        <ele>2165.03</ele>
        <time>2016-10-27T09:37:22Z</time>
      </trkpt>
      <trkpt lat="42.82815" lon="1.44499">
        <ele>2168.39</ele>
        <time>2016-10-27T09:37:39Z</time>
      </trkpt>
      <trkpt lat="42.82821" lon="1.44496">
        <ele>2170.31</ele>
        <time>2016-10-27T09:37:59Z</time>
      </trkpt>
      <trkpt lat="42.82827" lon="1.44489">
        <ele>2172.72</ele>
        <time>2016-10-27T09:38:15Z</time>
      </trkpt>
      <trkpt lat="42.82832" lon="1.44485">
        <ele>2175.6</ele>
        <time>2016-10-27T09:38:29Z</time>
      </trkpt>
      <trkpt lat="42.82837" lon="1.44484">
        <ele>2178</ele>
        <time>2016-10-27T09:38:46Z</time>
      </trkpt>
      <trkpt lat="42.82841" lon="1.44485">
        <ele>2179.93</ele>
        <time>2016-10-27T09:39:00Z</time>
      </trkpt>
      <trkpt lat="42.82846" lon="1.44482">
        <ele>2182.33</ele>
        <time>2016-10-27T09:39:20Z</time>
      </trkpt>
      <trkpt lat="42.82847" lon="1.44479">
        <ele>2178.97</ele>
        <time>2016-10-27T09:39:33Z</time>
      </trkpt>
      <trkpt lat="42.82847" lon="1.44478">
        <ele>2188.58</ele>
        <time>2016-10-27T09:39:34Z</time>
      </trkpt>
      <trkpt lat="42.82847" lon="1.44478">
        <ele>2183.77</ele>
        <time>2016-10-27T09:39:35Z</time>
      </trkpt>
      <trkpt lat="42.82848" lon="1.44477">
        <ele>2185.69</ele>
        <time>2016-10-27T09:39:43Z</time>
      </trkpt>
      <trkpt lat="42.82851" lon="1.44476">
        <ele>2186.66</ele>
        <time>2016-10-27T09:39:57Z</time>
      </trkpt>
      <trkpt lat="42.82854" lon="1.44471">
        <ele>2186.66</ele>
        <time>2016-10-27T09:40:19Z</time>
      </trkpt>
      <trkpt lat="42.82854" lon="1.44467">
        <ele>2187.62</ele>
        <time>2016-10-27T09:42:40Z</time>
      </trkpt>
      <trkpt lat="42.82853" lon="1.44467">
        <ele>2185.69</ele>
        <time>2016-10-27T09:42:50Z</time>
      </trkpt>
      <trkpt lat="42.82855" lon="1.44463">
        <ele>2187.14</ele>
        <time>2016-10-27T09:43:15Z</time>
      </trkpt>
      <trkpt lat="42.82855" lon="1.44462">
        <ele>2187.14</ele>
        <time>2016-10-27T09:43:16Z</time>
      </trkpt>
      <trkpt lat="42.82856" lon="1.44454">
        <ele>2186.18</ele>
        <time>2016-10-27T09:43:22Z</time>
      </trkpt>
      <trkpt lat="42.82864" lon="1.44437">
        <ele>2185.69</ele>
        <time>2016-10-27T09:43:38Z</time>
      </trkpt>
      <trkpt lat="42.82868" lon="1.4443">
        <ele>2186.18</ele>
        <time>2016-10-27T09:43:54Z</time>
      </trkpt>
      <trkpt lat="42.82875" lon="1.44419">
        <ele>2186.18</ele>
        <time>2016-10-27T09:44:06Z</time>
      </trkpt>
      <trkpt lat="42.82876" lon="1.44416">
        <ele>2184.73</ele>
        <time>2016-10-27T09:44:08Z</time>
      </trkpt>
      <trkpt lat="42.82879" lon="1.44411">
        <ele>2184.25</ele>
        <time>2016-10-27T09:44:13Z</time>
      </trkpt>
      <trkpt lat="42.8288" lon="1.44408">
        <ele>2183.77</ele>
        <time>2016-10-27T09:44:17Z</time>
      </trkpt>
      <trkpt lat="42.82885" lon="1.44402">
        <ele>2182.81</ele>
        <time>2016-10-27T09:44:24Z</time>
      </trkpt>
      <trkpt lat="42.82888" lon="1.44394">
        <ele>2182.33</ele>
        <time>2016-10-27T09:44:30Z</time>
      </trkpt>
      <trkpt lat="42.82893" lon="1.44386">
        <ele>2184.25</ele>
        <time>2016-10-27T09:44:41Z</time>
      </trkpt>
      <trkpt lat="42.82901" lon="1.44372">
        <ele>2182.33</ele>
        <time>2016-10-27T09:44:57Z</time>
      </trkpt>
      <trkpt lat="42.8291" lon="1.44356">
        <ele>2181.37</ele>
        <time>2016-10-27T09:45:12Z</time>
      </trkpt>
      <trkpt lat="42.82914" lon="1.44343">
        <ele>2180.41</ele>
        <time>2016-10-27T09:45:24Z</time>
      </trkpt>
      <trkpt lat="42.82921" lon="1.44332">
        <ele>2179.93</ele>
        <time>2016-10-27T09:45:39Z</time>
      </trkpt>
      <trkpt lat="42.82927" lon="1.44327">
        <ele>2179.93</ele>
        <time>2016-10-27T09:45:54Z</time>
      </trkpt>
      <trkpt lat="42.82928" lon="1.44326">
        <ele>2179.93</ele>
        <time>2016-10-27T09:45:56Z</time>
      </trkpt>
      <trkpt lat="42.8293" lon="1.44325">
        <ele>2179.93</ele>
        <time>2016-10-27T09:45:58Z</time>
      </trkpt>
      <trkpt lat="42.82931" lon="1.44322">
        <ele>2179.45</ele>
        <time>2016-10-27T09:46:01Z</time>
      </trkpt>
      <trkpt lat="42.8293" lon="1.44314">
        <ele>2178.48</ele>
        <time>2016-10-27T09:46:08Z</time>
      </trkpt>
      <trkpt lat="42.8293" lon="1.44311">
        <ele>2178</ele>
        <time>2016-10-27T09:46:11Z</time>
      </trkpt>
      <trkpt lat="42.82932" lon="1.443">
        <ele>2176.56</ele>
        <time>2016-10-27T09:46:23Z</time>
      </trkpt>
      <trkpt lat="42.82931" lon="1.4429">
        <ele>2174.64</ele>
        <time>2016-10-27T09:46:35Z</time>
      </trkpt>
      <trkpt lat="42.82933" lon="1.44283">
        <ele>2174.16</ele>
        <time>2016-10-27T09:46:47Z</time>
      </trkpt>
      <trkpt lat="42.82934" lon="1.44281">
        <ele>2174.16</ele>
        <time>2016-10-27T09:47:07Z</time>
      </trkpt>
      <trkpt lat="42.82928" lon="1.4428">
        <ele>2171.76</ele>
        <time>2016-10-27T09:47:22Z</time>
      </trkpt>
      <trkpt lat="42.8293" lon="1.44274">
        <ele>2168.87</ele>
        <time>2016-10-27T09:47:34Z</time>
      </trkpt>
      <trkpt lat="42.8293" lon="1.44269">
        <ele>2166.95</ele>
        <time>2016-10-27T09:47:41Z</time>
      </trkpt>
      <trkpt lat="42.82935" lon="1.44257">
        <ele>2166.95</ele>
        <time>2016-10-27T09:47:54Z</time>
      </trkpt>
      <trkpt lat="42.82938" lon="1.44254">
        <ele>2168.87</ele>
        <time>2016-10-27T09:48:10Z</time>
      </trkpt>
      <trkpt lat="42.82939" lon="1.44246">
        <ele>2167.43</ele>
        <time>2016-10-27T09:48:27Z</time>
      </trkpt>
      <trkpt lat="42.82939" lon="1.44239">
        <ele>2165.03</ele>
        <time>2016-10-27T09:48:39Z</time>
      </trkpt>
      <trkpt lat="42.82943" lon="1.44224">
        <ele>2162.14</ele>
        <time>2016-10-27T09:48:52Z</time>
      </trkpt>
      <trkpt lat="42.82948" lon="1.44213">
        <ele>2161.18</ele>
        <time>2016-10-27T09:49:04Z</time>
      </trkpt>
      <trkpt lat="42.82951" lon="1.44205">
        <ele>2158.3</ele>
        <time>2016-10-27T09:49:17Z</time>
      </trkpt>
      <trkpt lat="42.82953" lon="1.44202">
        <ele>2157.34</ele>
        <time>2016-10-27T09:49:21Z</time>
      </trkpt>
      <trkpt lat="42.82961" lon="1.4419">
        <ele>2154.93</ele>
        <time>2016-10-27T09:49:36Z</time>
      </trkpt>
      <trkpt lat="42.8297" lon="1.44176">
        <ele>2153.01</ele>
        <time>2016-10-27T09:49:51Z</time>
      </trkpt>
      <trkpt lat="42.82975" lon="1.44173">
        <ele>2152.53</ele>
        <time>2016-10-27T09:49:58Z</time>
      </trkpt>
      <trkpt lat="42.8299" lon="1.44159">
        <ele>2150.61</ele>
        <time>2016-10-27T09:50:14Z</time>
      </trkpt>
      <trkpt lat="42.82994" lon="1.44156">
        <ele>2150.13</ele>
        <time>2016-10-27T09:50:20Z</time>
      </trkpt>
      <trkpt lat="42.83" lon="1.44151">
        <ele>2151.57</ele>
        <time>2016-10-27T09:50:32Z</time>
      </trkpt>
      <trkpt lat="42.83005" lon="1.44149">
        <ele>2151.57</ele>
        <time>2016-10-27T09:50:39Z</time>
      </trkpt>
      <trkpt lat="42.83013" lon="1.44137">
        <ele>2151.57</ele>
        <time>2016-10-27T09:50:54Z</time>
      </trkpt>
      <trkpt lat="42.83014" lon="1.44136">
        <ele>2151.57</ele>
        <time>2016-10-27T09:50:56Z</time>
      </trkpt>
      <trkpt lat="42.83017" lon="1.4413">
        <ele>2150.13</ele>
        <time>2016-10-27T09:51:00Z</time>
      </trkpt>
      <trkpt lat="42.83021" lon="1.44117">
        <ele>2151.57</ele>
        <time>2016-10-27T09:51:13Z</time>
      </trkpt>
      <trkpt lat="42.83022" lon="1.44116">
        <ele>2151.57</ele>
        <time>2016-10-27T09:51:14Z</time>
      </trkpt>
      <trkpt lat="42.83025" lon="1.44101">
        <ele>2150.13</ele>
        <time>2016-10-27T09:51:27Z</time>
      </trkpt>
      <trkpt lat="42.83026" lon="1.44088">
        <ele>2150.61</ele>
        <time>2016-10-27T09:51:40Z</time>
      </trkpt>
      <trkpt lat="42.83026" lon="1.44086">
        <ele>2152.53</ele>
        <time>2016-10-27T09:51:45Z</time>
      </trkpt>
      <trkpt lat="42.83028" lon="1.44073">
        <ele>2153.49</ele>
        <time>2016-10-27T09:52:02Z</time>
      </trkpt>
      <trkpt lat="42.83028" lon="1.44072">
        <ele>2156.37</ele>
        <time>2016-10-27T09:52:04Z</time>
      </trkpt>
      <trkpt lat="42.83028" lon="1.44067">
        <ele>2156.37</ele>
        <time>2016-10-27T09:52:11Z</time>
      </trkpt>
      <trkpt lat="42.8303" lon="1.44061">
        <ele>2158.78</ele>
        <time>2016-10-27T09:52:27Z</time>
      </trkpt>
      <trkpt lat="42.8303" lon="1.44057">
        <ele>2160.22</ele>
        <time>2016-10-27T09:52:41Z</time>
      </trkpt>
      <trkpt lat="42.8303" lon="1.44056">
        <ele>2160.7</ele>
        <time>2016-10-27T09:53:00Z</time>
      </trkpt>
      <trkpt lat="42.8303" lon="1.44055">
        <ele>2161.18</ele>
        <time>2016-10-27T09:53:23Z</time>
      </trkpt>
      <trkpt lat="42.83031" lon="1.44052">
        <ele>2161.18</ele>
        <time>2016-10-27T09:53:51Z</time>
      </trkpt>
      <trkpt lat="42.83032" lon="1.44051">
        <ele>2162.62</ele>
        <time>2016-10-27T09:53:54Z</time>
      </trkpt>
      <trkpt lat="42.83033" lon="1.44051">
        <ele>2164.06</ele>
        <time>2016-10-27T09:54:12Z</time>
      </trkpt>
      <trkpt lat="42.83038" lon="1.44052">
        <ele>2167.43</ele>
        <time>2016-10-27T09:54:26Z</time>
      </trkpt>
      <trkpt lat="42.83038" lon="1.44052">
        <ele>2167.43</ele>
        <time>2016-10-27T09:54:27Z</time>
      </trkpt>
      <trkpt lat="42.83041" lon="1.44046">
        <ele>2169.35</ele>
        <time>2016-10-27T09:54:43Z</time>
      </trkpt>
      <trkpt lat="42.83038" lon="1.44042">
        <ele>2167.91</ele>
        <time>2016-10-27T09:54:52Z</time>
      </trkpt>
      <trkpt lat="42.83039" lon="1.44039">
        <ele>2170.31</ele>
        <time>2016-10-27T09:55:09Z</time>
      </trkpt>
      <trkpt lat="42.8304" lon="1.44033">
        <ele>2171.76</ele>
        <time>2016-10-27T09:55:22Z</time>
      </trkpt>
      <trkpt lat="42.8304" lon="1.44031">
        <ele>2172.72</ele>
        <time>2016-10-27T09:55:25Z</time>
      </trkpt>
      <trkpt lat="42.83039" lon="1.44027">
        <ele>2174.16</ele>
        <time>2016-10-27T09:55:34Z</time>
      </trkpt>
      <trkpt lat="42.83041" lon="1.4402">
        <ele>2176.08</ele>
        <time>2016-10-27T09:55:48Z</time>
      </trkpt>
      <trkpt lat="42.83041" lon="1.44019">
        <ele>2177.04</ele>
        <time>2016-10-27T09:56:06Z</time>
      </trkpt>
      <trkpt lat="42.83041" lon="1.44018">
        <ele>2178</ele>
        <time>2016-10-27T09:56:24Z</time>
      </trkpt>
      <trkpt lat="42.83042" lon="1.44015">
        <ele>2179.93</ele>
        <time>2016-10-27T09:56:37Z</time>
      </trkpt>
      <trkpt lat="42.83045" lon="1.44016">
        <ele>2180.89</ele>
        <time>2016-10-27T09:56:53Z</time>
      </trkpt>
      <trkpt lat="42.83045" lon="1.44018">
        <ele>2183.29</ele>
        <time>2016-10-27T09:57:17Z</time>
      </trkpt>
      <trkpt lat="42.83048" lon="1.44015">
        <ele>2185.21</ele>
        <time>2016-10-27T09:57:33Z</time>
      </trkpt>
      <trkpt lat="42.83049" lon="1.44012">
        <ele>2185.69</ele>
        <time>2016-10-27T09:58:09Z</time>
      </trkpt>
      <trkpt lat="42.8305" lon="1.44014">
        <ele>2187.14</ele>
        <time>2016-10-27T09:58:24Z</time>
      </trkpt>
      <trkpt lat="42.83055" lon="1.44014">
        <ele>2195.79</ele>
        <time>2016-10-27T10:52:10Z</time>
      </trkpt>
      <trkpt lat="42.83057" lon="1.44013">
        <ele>2190.02</ele>
        <time>2016-10-27T10:52:18Z</time>
      </trkpt>
      <trkpt lat="42.83057" lon="1.44014">
        <ele>2197.71</ele>
        <time>2016-10-27T10:52:19Z</time>
      </trkpt>
      <trkpt lat="42.8306" lon="1.44014">
        <ele>2194.35</ele>
        <time>2016-10-27T10:52:57Z</time>
      </trkpt>
      <trkpt lat="42.83057" lon="1.44013">
        <ele>2194.35</ele>
        <time>2016-10-27T10:53:10Z</time>
      </trkpt>
      <trkpt lat="42.83052" lon="1.44001">
        <ele>2186.18</ele>
        <time>2016-10-27T10:53:21Z</time>
      </trkpt>
      <trkpt lat="42.83052" lon="1.44001">
        <ele>2197.71</ele>
        <time>2016-10-27T10:53:22Z</time>
      </trkpt>
      <trkpt lat="42.83052" lon="1.44001">
        <ele>2190.5</ele>
        <time>2016-10-27T10:53:23Z</time>
      </trkpt>
      <trkpt lat="42.83052" lon="1.44001">
        <ele>2196.75</ele>
        <time>2016-10-27T10:53:24Z</time>
      </trkpt>
      <trkpt lat="42.83053" lon="1.44">
        <ele>2193.39</ele>
        <time>2016-10-27T10:53:25Z</time>
      </trkpt>
      <trkpt lat="42.83053" lon="1.43995">
        <ele>2190.5</ele>
        <time>2016-10-27T10:53:29Z</time>
      </trkpt>
      <trkpt lat="42.83051" lon="1.43993">
        <ele>2189.06</ele>
        <time>2016-10-27T10:53:42Z</time>
      </trkpt>
      <trkpt lat="42.83054" lon="1.4399">
        <ele>2188.1</ele>
        <time>2016-10-27T10:53:58Z</time>
      </trkpt>
      <trkpt lat="42.83055" lon="1.4399">
        <ele>2186.66</ele>
        <time>2016-10-27T10:54:03Z</time>
      </trkpt>
      <trkpt lat="42.8306" lon="1.43995">
        <ele>2184.73</ele>
        <time>2016-10-27T10:54:17Z</time>
      </trkpt>
      <trkpt lat="42.83065" lon="1.44003">
        <ele>2182.81</ele>
        <time>2016-10-27T10:54:30Z</time>
      </trkpt>
      <trkpt lat="42.83067" lon="1.44008">
        <ele>2183.77</ele>
        <time>2016-10-27T10:54:37Z</time>
      </trkpt>
      <trkpt lat="42.83071" lon="1.44012">
        <ele>2181.85</ele>
        <time>2016-10-27T10:54:47Z</time>
      </trkpt>
      <trkpt lat="42.83075" lon="1.44018">
        <ele>2179.93</ele>
        <time>2016-10-27T10:54:58Z</time>
      </trkpt>
      <trkpt lat="42.83078" lon="1.44024">
        <ele>2178.48</ele>
        <time>2016-10-27T10:55:09Z</time>
      </trkpt>
      <trkpt lat="42.83079" lon="1.44025">
        <ele>2177.04</ele>
        <time>2016-10-27T10:55:14Z</time>
      </trkpt>
      <trkpt lat="42.83082" lon="1.44025">
        <ele>2175.12</ele>
        <time>2016-10-27T10:55:27Z</time>
      </trkpt>
      <trkpt lat="42.83083" lon="1.44016">
        <ele>2172.24</ele>
        <time>2016-10-27T10:55:39Z</time>
      </trkpt>
      <trkpt lat="42.83088" lon="1.44023">
        <ele>2170.31</ele>
        <time>2016-10-27T10:55:48Z</time>
      </trkpt>
      <trkpt lat="42.83092" lon="1.44026">
        <ele>2167.43</ele>
        <time>2016-10-27T10:55:59Z</time>
      </trkpt>
      <trkpt lat="42.83093" lon="1.44026">
        <ele>2166.95</ele>
        <time>2016-10-27T10:56:00Z</time>
      </trkpt>
      <trkpt lat="42.83096" lon="1.44029">
        <ele>2164.55</ele>
        <time>2016-10-27T10:56:10Z</time>
      </trkpt>
      <trkpt lat="42.83099" lon="1.44031">
        <ele>2163.58</ele>
        <time>2016-10-27T10:56:14Z</time>
      </trkpt>
      <trkpt lat="42.83101" lon="1.44031">
        <ele>2162.14</ele>
        <time>2016-10-27T10:56:17Z</time>
      </trkpt>
      <trkpt lat="42.83103" lon="1.44031">
        <ele>2161.66</ele>
        <time>2016-10-27T10:56:28Z</time>
      </trkpt>
      <trkpt lat="42.83105" lon="1.4403">
        <ele>2160.22</ele>
        <time>2016-10-27T10:56:31Z</time>
      </trkpt>
      <trkpt lat="42.83105" lon="1.44032">
        <ele>2159.74</ele>
        <time>2016-10-27T10:56:33Z</time>
      </trkpt>
      <trkpt lat="42.83111" lon="1.44034">
        <ele>2155.89</ele>
        <time>2016-10-27T10:56:42Z</time>
      </trkpt>
      <trkpt lat="42.83121" lon="1.44034">
        <ele>2153.49</ele>
        <time>2016-10-27T10:56:54Z</time>
      </trkpt>
      <trkpt lat="42.83126" lon="1.44032">
        <ele>2151.09</ele>
        <time>2016-10-27T10:56:58Z</time>
      </trkpt>
      <trkpt lat="42.83127" lon="1.44032">
        <ele>2151.09</ele>
        <time>2016-10-27T10:56:59Z</time>
      </trkpt>
      <trkpt lat="42.8313" lon="1.44035">
        <ele>2150.13</ele>
        <time>2016-10-27T10:57:02Z</time>
      </trkpt>
      <trkpt lat="42.83138" lon="1.44042">
        <ele>2146.28</ele>
        <time>2016-10-27T10:57:12Z</time>
      </trkpt>
      <trkpt lat="42.83146" lon="1.44045">
        <ele>2143.4</ele>
        <time>2016-10-27T10:57:22Z</time>
      </trkpt>
      <trkpt lat="42.83147" lon="1.44045">
        <ele>2142.44</ele>
        <time>2016-10-27T10:57:24Z</time>
      </trkpt>
      <trkpt lat="42.83153" lon="1.44044">
        <ele>2139.55</ele>
        <time>2016-10-27T10:57:33Z</time>
      </trkpt>
      <trkpt lat="42.8316" lon="1.44045">
        <ele>2136.19</ele>
        <time>2016-10-27T10:57:43Z</time>
      </trkpt>
      <trkpt lat="42.83168" lon="1.44045">
        <ele>2132.34</ele>
        <time>2016-10-27T10:57:53Z</time>
      </trkpt>
      <trkpt lat="42.83172" lon="1.4405">
        <ele>2129.94</ele>
        <time>2016-10-27T10:58:04Z</time>
      </trkpt>
      <trkpt lat="42.83175" lon="1.44052">
        <ele>2127.53</ele>
        <time>2016-10-27T10:59:23Z</time>
      </trkpt>
      <trkpt lat="42.8318" lon="1.4405">
        <ele>2124.65</ele>
        <time>2016-10-27T10:59:49Z</time>
      </trkpt>
      <trkpt lat="42.83187" lon="1.44058">
        <ele>2122.25</ele>
        <time>2016-10-27T11:00:01Z</time>
      </trkpt>
      <trkpt lat="42.83192" lon="1.44057">
        <ele>2119.84</ele>
        <time>2016-10-27T11:00:15Z</time>
      </trkpt>
      <trkpt lat="42.83196" lon="1.4406">
        <ele>2117.92</ele>
        <time>2016-10-27T11:00:25Z</time>
      </trkpt>
      <trkpt lat="42.83201" lon="1.44065">
        <ele>2115.04</ele>
        <time>2016-10-27T11:00:38Z</time>
      </trkpt>
      <trkpt lat="42.83202" lon="1.44065">
        <ele>2113.6</ele>
        <time>2016-10-27T11:00:41Z</time>
      </trkpt>
      <trkpt lat="42.83205" lon="1.44077">
        <ele>2111.67</ele>
        <time>2016-10-27T11:00:52Z</time>
      </trkpt>
      <trkpt lat="42.83209" lon="1.44078">
        <ele>2108.31</ele>
        <time>2016-10-27T11:01:01Z</time>
      </trkpt>
      <trkpt lat="42.83214" lon="1.4408">
        <ele>2106.87</ele>
        <time>2016-10-27T11:01:11Z</time>
      </trkpt>
      <trkpt lat="42.83218" lon="1.44086">
        <ele>2104.46</ele>
        <time>2016-10-27T11:01:18Z</time>
      </trkpt>
      <trkpt lat="42.83222" lon="1.44091">
        <ele>2103.5</ele>
        <time>2016-10-27T11:01:22Z</time>
      </trkpt>
      <trkpt lat="42.83225" lon="1.44097">
        <ele>2102.54</ele>
        <time>2016-10-27T11:01:27Z</time>
      </trkpt>
      <trkpt lat="42.83228" lon="1.44105">
        <ele>2101.58</ele>
        <time>2016-10-27T11:02:04Z</time>
      </trkpt>
      <trkpt lat="42.83245" lon="1.44125">
        <ele>2099.66</ele>
        <time>2016-10-27T11:02:20Z</time>
      </trkpt>
      <trkpt lat="42.83262" lon="1.4414">
        <ele>2098.7</ele>
        <time>2016-10-27T11:02:35Z</time>
      </trkpt>
      <trkpt lat="42.83269" lon="1.44145">
        <ele>2098.7</ele>
        <time>2016-10-27T11:02:45Z</time>
      </trkpt>
      <trkpt lat="42.83285" lon="1.44151">
        <ele>2100.14</ele>
        <time>2016-10-27T11:03:00Z</time>
      </trkpt>
      <trkpt lat="42.83292" lon="1.44156">
        <ele>2102.06</ele>
        <time>2016-10-27T11:03:07Z</time>
      </trkpt>
      <trkpt lat="42.83294" lon="1.44158">
        <ele>2102.54</ele>
        <time>2016-10-27T11:03:10Z</time>
      </trkpt>
      <trkpt lat="42.83302" lon="1.4416">
        <ele>2103.02</ele>
        <time>2016-10-27T11:03:18Z</time>
      </trkpt>
      <trkpt lat="42.83305" lon="1.4416">
        <ele>2103.02</ele>
        <time>2016-10-27T11:03:20Z</time>
      </trkpt>
      <trkpt lat="42.83315" lon="1.44167">
        <ele>2103.98</ele>
        <time>2016-10-27T11:03:31Z</time>
      </trkpt>
      <trkpt lat="42.83334" lon="1.44178">
        <ele>2103.98</ele>
        <time>2016-10-27T11:03:48Z</time>
      </trkpt>
      <trkpt lat="42.83344" lon="1.44187">
        <ele>2104.46</ele>
        <time>2016-10-27T11:03:59Z</time>
      </trkpt>
      <trkpt lat="42.83352" lon="1.44195">
        <ele>2104.46</ele>
        <time>2016-10-27T11:04:08Z</time>
      </trkpt>
      <trkpt lat="42.83356" lon="1.44197">
        <ele>2103.02</ele>
        <time>2016-10-27T11:04:11Z</time>
      </trkpt>
      <trkpt lat="42.83361" lon="1.44199">
        <ele>2102.54</ele>
        <time>2016-10-27T11:04:16Z</time>
      </trkpt>
      <trkpt lat="42.83371" lon="1.4421">
        <ele>2102.06</ele>
        <time>2016-10-27T11:04:27Z</time>
      </trkpt>
      <trkpt lat="42.83379" lon="1.44222">
        <ele>2102.06</ele>
        <time>2016-10-27T11:04:39Z</time>
      </trkpt>
      <trkpt lat="42.83393" lon="1.44231">
        <ele>2103.02</ele>
        <time>2016-10-27T11:04:54Z</time>
      </trkpt>
      <trkpt lat="42.83394" lon="1.44234">
        <ele>2103.02</ele>
        <time>2016-10-27T11:04:56Z</time>
      </trkpt>
      <trkpt lat="42.83401" lon="1.44241">
        <ele>2103.02</ele>
        <time>2016-10-27T11:05:05Z</time>
      </trkpt>
      <trkpt lat="42.83407" lon="1.44248">
        <ele>2103.02</ele>
        <time>2016-10-27T11:05:21Z</time>
      </trkpt>
      <trkpt lat="42.83406" lon="1.44248">
        <ele>2103.02</ele>
        <time>2016-10-27T11:05:43Z</time>
      </trkpt>
      <trkpt lat="42.83409" lon="1.4425">
        <ele>2103.02</ele>
        <time>2016-10-27T11:05:57Z</time>
      </trkpt>
      <trkpt lat="42.83411" lon="1.44254">
        <ele>2103.02</ele>
        <time>2016-10-27T11:06:00Z</time>
      </trkpt>
      <trkpt lat="42.83423" lon="1.44265">
        <ele>2104.94</ele>
        <time>2016-10-27T11:06:15Z</time>
      </trkpt>
      <trkpt lat="42.83433" lon="1.44277">
        <ele>2107.35</ele>
        <time>2016-10-27T11:06:30Z</time>
      </trkpt>
      <trkpt lat="42.83445" lon="1.44296">
        <ele>2109.75</ele>
        <time>2016-10-27T11:06:49Z</time>
      </trkpt>
      <trkpt lat="42.83451" lon="1.44306">
        <ele>2110.71</ele>
        <time>2016-10-27T11:07:05Z</time>
      </trkpt>
      <trkpt lat="42.83453" lon="1.44307">
        <ele>2110.71</ele>
        <time>2016-10-27T11:08:58Z</time>
      </trkpt>
      <trkpt lat="42.83456" lon="1.443">
        <ele>2109.27</ele>
        <time>2016-10-27T11:10:23Z</time>
      </trkpt>
      <trkpt lat="42.83468" lon="1.44285">
        <ele>2105.91</ele>
        <time>2016-10-27T11:10:37Z</time>
      </trkpt>
      <trkpt lat="42.83469" lon="1.44285">
        <ele>2105.91</ele>
        <time>2016-10-27T11:10:38Z</time>
      </trkpt>
      <trkpt lat="42.83477" lon="1.44279">
        <ele>2104.94</ele>
        <time>2016-10-27T11:10:45Z</time>
      </trkpt>
      <trkpt lat="42.83488" lon="1.4427">
        <ele>2101.1</ele>
        <time>2016-10-27T11:10:57Z</time>
      </trkpt>
      <trkpt lat="42.83491" lon="1.44267">
        <ele>2100.14</ele>
        <time>2016-10-27T11:11:01Z</time>
      </trkpt>
      <trkpt lat="42.83498" lon="1.44258">
        <ele>2096.77</ele>
        <time>2016-10-27T11:11:12Z</time>
      </trkpt>
      <trkpt lat="42.83499" lon="1.44257">
        <ele>2096.77</ele>
        <time>2016-10-27T11:11:13Z</time>
      </trkpt>
      <trkpt lat="42.83502" lon="1.44256">
        <ele>2095.33</ele>
        <time>2016-10-27T11:11:17Z</time>
      </trkpt>
      <trkpt lat="42.83505" lon="1.44256">
        <ele>2093.41</ele>
        <time>2016-10-27T11:11:20Z</time>
      </trkpt>
      <trkpt lat="42.83519" lon="1.44258">
        <ele>2093.41</ele>
        <time>2016-10-27T11:11:32Z</time>
      </trkpt>
      <trkpt lat="42.83522" lon="1.44257">
        <ele>2094.37</ele>
        <time>2016-10-27T11:11:35Z</time>
      </trkpt>
      <trkpt lat="42.83532" lon="1.44252">
        <ele>2091.97</ele>
        <time>2016-10-27T11:11:43Z</time>
      </trkpt>
      <trkpt lat="42.83549" lon="1.44244">
        <ele>2092.93</ele>
        <time>2016-10-27T11:11:58Z</time>
      </trkpt>
      <trkpt lat="42.83558" lon="1.44236">
        <ele>2089.08</ele>
        <time>2016-10-27T11:12:08Z</time>
      </trkpt>
      <trkpt lat="42.83571" lon="1.44225">
        <ele>2085.72</ele>
        <time>2016-10-27T11:12:22Z</time>
      </trkpt>
      <trkpt lat="42.83572" lon="1.44224">
        <ele>2085.72</ele>
        <time>2016-10-27T11:12:23Z</time>
      </trkpt>
      <trkpt lat="42.83574" lon="1.44222">
        <ele>2085.24</ele>
        <time>2016-10-27T11:12:26Z</time>
      </trkpt>
      <trkpt lat="42.83582" lon="1.44216">
        <ele>2084.28</ele>
        <time>2016-10-27T11:12:34Z</time>
      </trkpt>
      <trkpt lat="42.83589" lon="1.44214">
        <ele>2083.79</ele>
        <time>2016-10-27T11:12:39Z</time>
      </trkpt>
      <trkpt lat="42.83603" lon="1.44204">
        <ele>2081.87</ele>
        <time>2016-10-27T11:12:53Z</time>
      </trkpt>
      <trkpt lat="42.83614" lon="1.44201">
        <ele>2077.55</ele>
        <time>2016-10-27T11:13:07Z</time>
      </trkpt>
      <trkpt lat="42.83619" lon="1.442">
        <ele>2078.03</ele>
        <time>2016-10-27T11:13:14Z</time>
      </trkpt>
      <trkpt lat="42.8363" lon="1.44198">
        <ele>2075.14</ele>
        <time>2016-10-27T11:13:28Z</time>
      </trkpt>
      <trkpt lat="42.83633" lon="1.44198">
        <ele>2074.66</ele>
        <time>2016-10-27T11:13:32Z</time>
      </trkpt>
      <trkpt lat="42.83637" lon="1.44196">
        <ele>2073.22</ele>
        <time>2016-10-27T11:13:36Z</time>
      </trkpt>
      <trkpt lat="42.83639" lon="1.44195">
        <ele>2074.66</ele>
        <time>2016-10-27T11:13:38Z</time>
      </trkpt>
      <trkpt lat="42.83659" lon="1.44186">
        <ele>2072.74</ele>
        <time>2016-10-27T11:13:57Z</time>
      </trkpt>
      <trkpt lat="42.83677" lon="1.44177">
        <ele>2073.7</ele>
        <time>2016-10-27T11:14:15Z</time>
      </trkpt>
      <trkpt lat="42.83678" lon="1.44176">
        <ele>2073.7</ele>
        <time>2016-10-27T11:14:16Z</time>
      </trkpt>
      <trkpt lat="42.83686" lon="1.44176">
        <ele>2073.7</ele>
        <time>2016-10-27T11:14:25Z</time>
      </trkpt>
      <trkpt lat="42.83689" lon="1.44176">
        <ele>2072.26</ele>
        <time>2016-10-27T11:14:28Z</time>
      </trkpt>
      <trkpt lat="42.83702" lon="1.44168">
        <ele>2071.3</ele>
        <time>2016-10-27T11:14:43Z</time>
      </trkpt>
      <trkpt lat="42.83713" lon="1.44165">
        <ele>2069.38</ele>
        <time>2016-10-27T11:14:57Z</time>
      </trkpt>
      <trkpt lat="42.83716" lon="1.44165">
        <ele>2068.41</ele>
        <time>2016-10-27T11:15:01Z</time>
      </trkpt>
      <trkpt lat="42.83728" lon="1.44155">
        <ele>2068.89</ele>
        <time>2016-10-27T11:15:13Z</time>
      </trkpt>
      <trkpt lat="42.83731" lon="1.44154">
        <ele>2067.45</ele>
        <time>2016-10-27T11:15:15Z</time>
      </trkpt>
      <trkpt lat="42.83735" lon="1.44153">
        <ele>2068.41</ele>
        <time>2016-10-27T11:15:19Z</time>
      </trkpt>
      <trkpt lat="42.83747" lon="1.44148">
        <ele>2068.41</ele>
        <time>2016-10-27T11:15:34Z</time>
      </trkpt>
      <trkpt lat="42.83749" lon="1.44149">
        <ele>2066.97</ele>
        <time>2016-10-27T11:15:37Z</time>
      </trkpt>
      <trkpt lat="42.83757" lon="1.44151">
        <ele>2064.09</ele>
        <time>2016-10-27T11:15:54Z</time>
      </trkpt>
      <trkpt lat="42.83762" lon="1.44147">
        <ele>2062.17</ele>
        <time>2016-10-27T11:16:00Z</time>
      </trkpt>
      <trkpt lat="42.83768" lon="1.4414">
        <ele>2060.72</ele>
        <time>2016-10-27T11:16:06Z</time>
      </trkpt>
      <trkpt lat="42.83769" lon="1.44138">
        <ele>2062.17</ele>
        <time>2016-10-27T11:16:08Z</time>
      </trkpt>
      <trkpt lat="42.83769" lon="1.44135">
        <ele>2060.72</ele>
        <time>2016-10-27T11:16:10Z</time>
      </trkpt>
      <trkpt lat="42.83772" lon="1.44124">
        <ele>2058.8</ele>
        <time>2016-10-27T11:16:19Z</time>
      </trkpt>
      <trkpt lat="42.83772" lon="1.44124">
        <ele>2059.76</ele>
        <time>2016-10-27T11:16:21Z</time>
      </trkpt>
      <trkpt lat="42.83772" lon="1.44121">
        <ele>2057.84</ele>
        <time>2016-10-27T11:16:33Z</time>
      </trkpt>
      <trkpt lat="42.83775" lon="1.44109">
        <ele>2054.96</ele>
        <time>2016-10-27T11:16:50Z</time>
      </trkpt>
      <trkpt lat="42.83779" lon="1.44102">
        <ele>2051.59</ele>
        <time>2016-10-27T11:17:00Z</time>
      </trkpt>
      <trkpt lat="42.83779" lon="1.44097">
        <ele>2049.19</ele>
        <time>2016-10-27T11:17:09Z</time>
      </trkpt>
      <trkpt lat="42.83784" lon="1.44086">
        <ele>2046.3</ele>
        <time>2016-10-27T11:17:22Z</time>
      </trkpt>
      <trkpt lat="42.8379" lon="1.44081">
        <ele>2043.42</ele>
        <time>2016-10-27T11:17:36Z</time>
      </trkpt>
      <trkpt lat="42.83794" lon="1.44077">
        <ele>2040.05</ele>
        <time>2016-10-27T11:17:46Z</time>
      </trkpt>
      <trkpt lat="42.83797" lon="1.44077">
        <ele>2037.65</ele>
        <time>2016-10-27T11:17:54Z</time>
      </trkpt>
      <trkpt lat="42.83802" lon="1.44077">
        <ele>2034.77</ele>
        <time>2016-10-27T11:18:06Z</time>
      </trkpt>
      <trkpt lat="42.83808" lon="1.44072">
        <ele>2031.4</ele>
        <time>2016-10-27T11:18:19Z</time>
      </trkpt>
      <trkpt lat="42.83809" lon="1.44072">
        <ele>2030.44</ele>
        <time>2016-10-27T11:18:21Z</time>
      </trkpt>
      <trkpt lat="42.83812" lon="1.44069">
        <ele>2028.52</ele>
        <time>2016-10-27T11:18:27Z</time>
      </trkpt>
      <trkpt lat="42.83815" lon="1.44072">
        <ele>2029.48</ele>
        <time>2016-10-27T11:18:31Z</time>
      </trkpt>
      <trkpt lat="42.83817" lon="1.44075">
        <ele>2028.52</ele>
        <time>2016-10-27T11:18:34Z</time>
      </trkpt>
      <trkpt lat="42.83825" lon="1.44079">
        <ele>2025.15</ele>
        <time>2016-10-27T11:18:48Z</time>
      </trkpt>
      <trkpt lat="42.83831" lon="1.44072">
        <ele>2021.31</ele>
        <time>2016-10-27T11:19:02Z</time>
      </trkpt>
      <trkpt lat="42.83836" lon="1.4407">
        <ele>2019.87</ele>
        <time>2016-10-27T11:19:11Z</time>
      </trkpt>
      <trkpt lat="42.83837" lon="1.4407">
        <ele>2017.94</ele>
        <time>2016-10-27T11:19:13Z</time>
      </trkpt>
      <trkpt lat="42.83846" lon="1.44065">
        <ele>2014.58</ele>
        <time>2016-10-27T11:19:29Z</time>
      </trkpt>
      <trkpt lat="42.83853" lon="1.44063">
        <ele>2012.18</ele>
        <time>2016-10-27T11:19:39Z</time>
      </trkpt>
      <trkpt lat="42.83854" lon="1.44062">
        <ele>2011.22</ele>
        <time>2016-10-27T11:19:40Z</time>
      </trkpt>
      <trkpt lat="42.83862" lon="1.4406">
        <ele>2008.81</ele>
        <time>2016-10-27T11:19:51Z</time>
      </trkpt>
      <trkpt lat="42.83867" lon="1.44053">
        <ele>2006.41</ele>
        <time>2016-10-27T11:20:01Z</time>
      </trkpt>
      <trkpt lat="42.83873" lon="1.44052">
        <ele>2004.49</ele>
        <time>2016-10-27T11:20:11Z</time>
      </trkpt>
      <trkpt lat="42.83873" lon="1.44051">
        <ele>2004.49</ele>
        <time>2016-10-27T11:20:12Z</time>
      </trkpt>
      <trkpt lat="42.83883" lon="1.4405">
        <ele>2000.64</ele>
        <time>2016-10-27T11:20:22Z</time>
      </trkpt>
      <trkpt lat="42.83894" lon="1.44052">
        <ele>1999.68</ele>
        <time>2016-10-27T11:20:35Z</time>
      </trkpt>
      <trkpt lat="42.839" lon="1.44053">
        <ele>1997.76</ele>
        <time>2016-10-27T11:20:45Z</time>
      </trkpt>
      <trkpt lat="42.83904" lon="1.44059">
        <ele>1993.91</ele>
        <time>2016-10-27T11:20:55Z</time>
      </trkpt>
      <trkpt lat="42.83905" lon="1.44059">
        <ele>1993.91</ele>
        <time>2016-10-27T11:20:56Z</time>
      </trkpt>
      <trkpt lat="42.8391" lon="1.44058">
        <ele>1992.47</ele>
        <time>2016-10-27T11:21:04Z</time>
      </trkpt>
      <trkpt lat="42.83915" lon="1.44059">
        <ele>1989.1</ele>
        <time>2016-10-27T11:21:16Z</time>
      </trkpt>
      <trkpt lat="42.83921" lon="1.44057">
        <ele>1986.22</ele>
        <time>2016-10-27T11:21:30Z</time>
      </trkpt>
      <trkpt lat="42.83923" lon="1.44058">
        <ele>1985.74</ele>
        <time>2016-10-27T11:21:34Z</time>
      </trkpt>
      <trkpt lat="42.83925" lon="1.44056">
        <ele>1984.3</ele>
        <time>2016-10-27T11:21:49Z</time>
      </trkpt>
      <trkpt lat="42.83926" lon="1.44055">
        <ele>1983.82</ele>
        <time>2016-10-27T11:22:08Z</time>
      </trkpt>
      <trkpt lat="42.83926" lon="1.44055">
        <ele>1987.18</ele>
        <time>2016-10-27T11:22:37Z</time>
      </trkpt>
      <trkpt lat="42.83927" lon="1.44055">
        <ele>1982.86</ele>
        <time>2016-10-27T11:22:41Z</time>
      </trkpt>
      <trkpt lat="42.83934" lon="1.4405">
        <ele>1979.97</ele>
        <time>2016-10-27T11:22:55Z</time>
      </trkpt>
      <trkpt lat="42.8394" lon="1.44048">
        <ele>1976.61</ele>
        <time>2016-10-27T11:23:07Z</time>
      </trkpt>
      <trkpt lat="42.8394" lon="1.44048">
        <ele>1979.49</ele>
        <time>2016-10-27T11:23:08Z</time>
      </trkpt>
      <trkpt lat="42.83942" lon="1.44048">
        <ele>1976.61</ele>
        <time>2016-10-27T11:23:10Z</time>
      </trkpt>
      <trkpt lat="42.83949" lon="1.44047">
        <ele>1973.24</ele>
        <time>2016-10-27T11:23:22Z</time>
      </trkpt>
      <trkpt lat="42.83954" lon="1.44046">
        <ele>1970.84</ele>
        <time>2016-10-27T11:23:31Z</time>
      </trkpt>
      <trkpt lat="42.83957" lon="1.44049">
        <ele>1968.92</ele>
        <time>2016-10-27T11:23:36Z</time>
      </trkpt>
      <trkpt lat="42.8396" lon="1.4405">
        <ele>1965.55</ele>
        <time>2016-10-27T11:23:44Z</time>
      </trkpt>
      <trkpt lat="42.8396" lon="1.44051">
        <ele>1965.55</ele>
        <time>2016-10-27T11:23:45Z</time>
      </trkpt>
      <trkpt lat="42.83968" lon="1.44053">
        <ele>1963.15</ele>
        <time>2016-10-27T11:24:01Z</time>
      </trkpt>
      <trkpt lat="42.8397" lon="1.44053">
        <ele>1961.71</ele>
        <time>2016-10-27T11:24:05Z</time>
      </trkpt>
      <trkpt lat="42.83974" lon="1.44052">
        <ele>1960.75</ele>
        <time>2016-10-27T11:24:11Z</time>
      </trkpt>
      <trkpt lat="42.83976" lon="1.44051">
        <ele>1959.3</ele>
        <time>2016-10-27T11:24:13Z</time>
      </trkpt>
      <trkpt lat="42.83979" lon="1.44048">
        <ele>1958.34</ele>
        <time>2016-10-27T11:24:18Z</time>
      </trkpt>
      <trkpt lat="42.83988" lon="1.44041">
        <ele>1954.5</ele>
        <time>2016-10-27T11:24:30Z</time>
      </trkpt>
      <trkpt lat="42.83991" lon="1.44042">
        <ele>1954.02</ele>
        <time>2016-10-27T11:24:36Z</time>
      </trkpt>
      <trkpt lat="42.83996" lon="1.44038">
        <ele>1950.65</ele>
        <time>2016-10-27T11:24:45Z</time>
      </trkpt>
      <trkpt lat="42.83997" lon="1.44038">
        <ele>1950.65</ele>
        <time>2016-10-27T11:24:46Z</time>
      </trkpt>
      <trkpt lat="42.84" lon="1.4404">
        <ele>1950.17</ele>
        <time>2016-10-27T11:24:52Z</time>
      </trkpt>
      <trkpt lat="42.84002" lon="1.44048">
        <ele>1946.33</ele>
        <time>2016-10-27T11:25:03Z</time>
      </trkpt>
      <trkpt lat="42.84007" lon="1.4405">
        <ele>1942.96</ele>
        <time>2016-10-27T11:25:13Z</time>
      </trkpt>
      <trkpt lat="42.8401" lon="1.44048">
        <ele>1942.48</ele>
        <time>2016-10-27T11:25:16Z</time>
      </trkpt>
      <trkpt lat="42.84017" lon="1.44047">
        <ele>1940.56</ele>
        <time>2016-10-27T11:25:25Z</time>
      </trkpt>
      <trkpt lat="42.84019" lon="1.44045">
        <ele>1939.12</ele>
        <time>2016-10-27T11:25:29Z</time>
      </trkpt>
      <trkpt lat="42.84024" lon="1.44043">
        <ele>1937.67</ele>
        <time>2016-10-27T11:25:35Z</time>
      </trkpt>
      <trkpt lat="42.84028" lon="1.44042">
        <ele>1935.75</ele>
        <time>2016-10-27T11:25:40Z</time>
      </trkpt>
      <trkpt lat="42.84034" lon="1.44039">
        <ele>1933.35</ele>
        <time>2016-10-27T11:25:49Z</time>
      </trkpt>
      <trkpt lat="42.84038" lon="1.44038">
        <ele>1931.43</ele>
        <time>2016-10-27T11:25:53Z</time>
      </trkpt>
      <trkpt lat="42.84047" lon="1.44032">
        <ele>1928.06</ele>
        <time>2016-10-27T11:26:03Z</time>
      </trkpt>
      <trkpt lat="42.84048" lon="1.44032">
        <ele>1928.06</ele>
        <time>2016-10-27T11:26:04Z</time>
      </trkpt>
      <trkpt lat="42.84053" lon="1.44032">
        <ele>1928.06</ele>
        <time>2016-10-27T11:26:10Z</time>
      </trkpt>
      <trkpt lat="42.84055" lon="1.44032">
        <ele>1925.66</ele>
        <time>2016-10-27T11:26:13Z</time>
      </trkpt>
      <trkpt lat="42.84065" lon="1.44027">
        <ele>1922.77</ele>
        <time>2016-10-27T11:26:26Z</time>
      </trkpt>
      <trkpt lat="42.84074" lon="1.4402">
        <ele>1919.41</ele>
        <time>2016-10-27T11:26:38Z</time>
      </trkpt>
      <trkpt lat="42.84075" lon="1.4402">
        <ele>1919.41</ele>
        <time>2016-10-27T11:26:39Z</time>
      </trkpt>
      <trkpt lat="42.84079" lon="1.44023">
        <ele>1917.97</ele>
        <time>2016-10-27T11:26:46Z</time>
      </trkpt>
      <trkpt lat="42.84082" lon="1.44022">
        <ele>1917.01</ele>
        <time>2016-10-27T11:26:50Z</time>
      </trkpt>
      <trkpt lat="42.84088" lon="1.44021">
        <ele>1915.08</ele>
        <time>2016-10-27T11:26:59Z</time>
      </trkpt>
      <trkpt lat="42.84092" lon="1.44022">
        <ele>1913.64</ele>
        <time>2016-10-27T11:27:04Z</time>
      </trkpt>
      <trkpt lat="42.84099" lon="1.44021">
        <ele>1912.2</ele>
        <time>2016-10-27T11:27:23Z</time>
      </trkpt>
      <trkpt lat="42.84101" lon="1.44021">
        <ele>1911.72</ele>
        <time>2016-10-27T11:27:36Z</time>
      </trkpt>
      <trkpt lat="42.84109" lon="1.44025">
        <ele>1909.32</ele>
        <time>2016-10-27T11:27:48Z</time>
      </trkpt>
      <trkpt lat="42.84114" lon="1.44033">
        <ele>1905.95</ele>
        <time>2016-10-27T11:28:01Z</time>
      </trkpt>
      <trkpt lat="42.84116" lon="1.44035">
        <ele>1904.51</ele>
        <time>2016-10-27T11:28:05Z</time>
      </trkpt>
      <trkpt lat="42.84123" lon="1.4404">
        <ele>1901.14</ele>
        <time>2016-10-27T11:28:18Z</time>
      </trkpt>
      <trkpt lat="42.84125" lon="1.44041">
        <ele>1900.18</ele>
        <time>2016-10-27T11:28:22Z</time>
      </trkpt>
      <trkpt lat="42.84129" lon="1.44039">
        <ele>1898.74</ele>
        <time>2016-10-27T11:28:26Z</time>
      </trkpt>
      <trkpt lat="42.84135" lon="1.44038">
        <ele>1896.82</ele>
        <time>2016-10-27T11:28:34Z</time>
      </trkpt>
      <trkpt lat="42.84142" lon="1.44038">
        <ele>1893.45</ele>
        <time>2016-10-27T11:28:45Z</time>
      </trkpt>
      <trkpt lat="42.84147" lon="1.4403">
        <ele>1891.05</ele>
        <time>2016-10-27T11:28:57Z</time>
      </trkpt>
      <trkpt lat="42.84153" lon="1.44021">
        <ele>1887.69</ele>
        <time>2016-10-27T11:29:09Z</time>
      </trkpt>
      <trkpt lat="42.84159" lon="1.44018">
        <ele>1884.32</ele>
        <time>2016-10-27T11:29:19Z</time>
      </trkpt>
      <trkpt lat="42.84159" lon="1.44017">
        <ele>1884.32</ele>
        <time>2016-10-27T11:29:20Z</time>
      </trkpt>
      <trkpt lat="42.84165" lon="1.44011">
        <ele>1880.96</ele>
        <time>2016-10-27T11:29:30Z</time>
      </trkpt>
      <trkpt lat="42.84169" lon="1.44007">
        <ele>1877.59</ele>
        <time>2016-10-27T11:29:42Z</time>
      </trkpt>
      <trkpt lat="42.84174" lon="1.44">
        <ele>1874.23</ele>
        <time>2016-10-27T11:29:55Z</time>
      </trkpt>
      <trkpt lat="42.84182" lon="1.43995">
        <ele>1870.86</ele>
        <time>2016-10-27T11:30:06Z</time>
      </trkpt>
      <trkpt lat="42.84188" lon="1.43988">
        <ele>1867.98</ele>
        <time>2016-10-27T11:30:18Z</time>
      </trkpt>
      <trkpt lat="42.84192" lon="1.43982">
        <ele>1865.09</ele>
        <time>2016-10-27T11:30:27Z</time>
      </trkpt>
      <trkpt lat="42.84194" lon="1.43978">
        <ele>1863.17</ele>
        <time>2016-10-27T11:30:32Z</time>
      </trkpt>
      <trkpt lat="42.84198" lon="1.43973">
        <ele>1860.77</ele>
        <time>2016-10-27T11:30:46Z</time>
      </trkpt>
      <trkpt lat="42.84198" lon="1.43971">
        <ele>1859.81</ele>
        <time>2016-10-27T11:30:48Z</time>
      </trkpt>
      <trkpt lat="42.84197" lon="1.43961">
        <ele>1855.96</ele>
        <time>2016-10-27T11:30:59Z</time>
      </trkpt>
      <trkpt lat="42.84199" lon="1.43956">
        <ele>1854.04</ele>
        <time>2016-10-27T11:31:08Z</time>
      </trkpt>
      <trkpt lat="42.84206" lon="1.43959">
        <ele>1850.68</ele>
        <time>2016-10-27T11:31:22Z</time>
      </trkpt>
      <trkpt lat="42.84212" lon="1.43961">
        <ele>1847.31</ele>
        <time>2016-10-27T11:31:32Z</time>
      </trkpt>
      <trkpt lat="42.84222" lon="1.43959">
        <ele>1843.47</ele>
        <time>2016-10-27T11:31:46Z</time>
      </trkpt>
      <trkpt lat="42.84231" lon="1.43957">
        <ele>1841.54</ele>
        <time>2016-10-27T11:31:56Z</time>
      </trkpt>
      <trkpt lat="42.84235" lon="1.43959">
        <ele>1839.14</ele>
        <time>2016-10-27T11:32:01Z</time>
      </trkpt>
      <trkpt lat="42.8425" lon="1.43957">
        <ele>1835.29</ele>
        <time>2016-10-27T11:32:16Z</time>
      </trkpt>
      <trkpt lat="42.84252" lon="1.43956">
        <ele>1834.81</ele>
        <time>2016-10-27T11:32:34Z</time>
      </trkpt>
      <trkpt lat="42.84253" lon="1.43955">
        <ele>1834.81</ele>
        <time>2016-10-27T11:33:02Z</time>
      </trkpt>
      <trkpt lat="42.84259" lon="1.43954">
        <ele>1833.37</ele>
        <time>2016-10-27T11:33:18Z</time>
      </trkpt>
      <trkpt lat="42.8426" lon="1.43953">
        <ele>1832.41</ele>
        <time>2016-10-27T11:33:47Z</time>
      </trkpt>
      <trkpt lat="42.84266" lon="1.43954">
        <ele>1830.97</ele>
        <time>2016-10-27T11:33:53Z</time>
      </trkpt>
      <trkpt lat="42.8427" lon="1.43953">
        <ele>1829.53</ele>
        <time>2016-10-27T11:33:57Z</time>
      </trkpt>
      <trkpt lat="42.84271" lon="1.43952">
        <ele>1829.05</ele>
        <time>2016-10-27T11:33:58Z</time>
      </trkpt>
      <trkpt lat="42.84274" lon="1.43951">
        <ele>1828.08</ele>
        <time>2016-10-27T11:34:02Z</time>
      </trkpt>
      <trkpt lat="42.84276" lon="1.43951">
        <ele>1827.6</ele>
        <time>2016-10-27T11:34:03Z</time>
      </trkpt>
      <trkpt lat="42.84289" lon="1.43949">
        <ele>1825.68</ele>
        <time>2016-10-27T11:34:15Z</time>
      </trkpt>
      <trkpt lat="42.84304" lon="1.43951">
        <ele>1822.8</ele>
        <time>2016-10-27T11:34:30Z</time>
      </trkpt>
      <trkpt lat="42.84316" lon="1.43953">
        <ele>1821.84</ele>
        <time>2016-10-27T11:34:43Z</time>
      </trkpt>
      <trkpt lat="42.84328" lon="1.43951">
        <ele>1819.43</ele>
        <time>2016-10-27T11:34:58Z</time>
      </trkpt>
      <trkpt lat="42.8433" lon="1.43951">
        <ele>1818.95</ele>
        <time>2016-10-27T11:35:19Z</time>
      </trkpt>
      <trkpt lat="42.84337" lon="1.4395">
        <ele>1817.51</ele>
        <time>2016-10-27T11:35:42Z</time>
      </trkpt>
      <trkpt lat="42.84346" lon="1.43946">
        <ele>1815.59</ele>
        <time>2016-10-27T11:35:52Z</time>
      </trkpt>
      <trkpt lat="42.84347" lon="1.43946">
        <ele>1815.11</ele>
        <time>2016-10-27T11:35:53Z</time>
      </trkpt>
      <trkpt lat="42.84359" lon="1.43944">
        <ele>1812.7</ele>
        <time>2016-10-27T11:36:03Z</time>
      </trkpt>
      <trkpt lat="42.84372" lon="1.43942">
        <ele>1809.34</ele>
        <time>2016-10-27T11:36:15Z</time>
      </trkpt>
      <trkpt lat="42.84375" lon="1.43941">
        <ele>1808.86</ele>
        <time>2016-10-27T11:36:18Z</time>
      </trkpt>
      <trkpt lat="42.84376" lon="1.43941">
        <ele>1808.38</ele>
        <time>2016-10-27T11:36:19Z</time>
      </trkpt>
      <trkpt lat="42.84378" lon="1.43941">
        <ele>1808.38</ele>
        <time>2016-10-27T11:36:21Z</time>
      </trkpt>
      <trkpt lat="42.84389" lon="1.43938">
        <ele>1805.49</ele>
        <time>2016-10-27T11:36:32Z</time>
      </trkpt>
      <trkpt lat="42.84391" lon="1.43937">
        <ele>1805.49</ele>
        <time>2016-10-27T11:36:34Z</time>
      </trkpt>
      <trkpt lat="42.84392" lon="1.43936">
        <ele>1805.01</ele>
        <time>2016-10-27T11:36:35Z</time>
      </trkpt>
      <trkpt lat="42.84393" lon="1.43936">
        <ele>1804.53</ele>
        <time>2016-10-27T11:36:36Z</time>
      </trkpt>
      <trkpt lat="42.84395" lon="1.43936">
        <ele>1804.53</ele>
        <time>2016-10-27T11:36:37Z</time>
      </trkpt>
      <trkpt lat="42.84396" lon="1.43936">
        <ele>1804.05</ele>
        <time>2016-10-27T11:36:38Z</time>
      </trkpt>
      <trkpt lat="42.84404" lon="1.43933">
        <ele>1801.65</ele>
        <time>2016-10-27T11:36:47Z</time>
      </trkpt>
      <trkpt lat="42.84411" lon="1.43931">
        <ele>1800.21</ele>
        <time>2016-10-27T11:36:57Z</time>
      </trkpt>
      <trkpt lat="42.84413" lon="1.43931">
        <ele>1800.21</ele>
        <time>2016-10-27T11:36:58Z</time>
      </trkpt>
      <trkpt lat="42.84414" lon="1.43931">
        <ele>1800.21</ele>
        <time>2016-10-27T11:36:59Z</time>
      </trkpt>
      <trkpt lat="42.84416" lon="1.43931">
        <ele>1799.73</ele>
        <time>2016-10-27T11:37:02Z</time>
      </trkpt>
      <trkpt lat="42.84418" lon="1.4393">
        <ele>1799.24</ele>
        <time>2016-10-27T11:37:03Z</time>
      </trkpt>
      <trkpt lat="42.84419" lon="1.43931">
        <ele>1799.24</ele>
        <time>2016-10-27T11:37:04Z</time>
      </trkpt>
      <trkpt lat="42.84422" lon="1.43932">
        <ele>1799.24</ele>
        <time>2016-10-27T11:37:08Z</time>
      </trkpt>
      <trkpt lat="42.8443" lon="1.4393">
        <ele>1796.84</ele>
        <time>2016-10-27T11:37:16Z</time>
      </trkpt>
      <trkpt lat="42.84431" lon="1.43931">
        <ele>1796.84</ele>
        <time>2016-10-27T11:37:17Z</time>
      </trkpt>
      <trkpt lat="42.84432" lon="1.43931">
        <ele>1796.84</ele>
        <time>2016-10-27T11:37:18Z</time>
      </trkpt>
      <trkpt lat="42.84435" lon="1.4393">
        <ele>1795.4</ele>
        <time>2016-10-27T11:37:21Z</time>
      </trkpt>
      <trkpt lat="42.84445" lon="1.43925">
        <ele>1793.96</ele>
        <time>2016-10-27T11:37:32Z</time>
      </trkpt>
      <trkpt lat="42.84446" lon="1.43927">
        <ele>1793.96</ele>
        <time>2016-10-27T11:37:47Z</time>
      </trkpt>
      <trkpt lat="42.84447" lon="1.43928">
        <ele>1793.96</ele>
        <time>2016-10-27T11:37:51Z</time>
      </trkpt>
      <trkpt lat="42.84448" lon="1.43932">
        <ele>1793</ele>
        <time>2016-10-27T11:37:54Z</time>
      </trkpt>
      <trkpt lat="42.84451" lon="1.4394">
        <ele>1790.11</ele>
        <time>2016-10-27T11:38:06Z</time>
      </trkpt>
      <trkpt lat="42.84456" lon="1.43947">
        <ele>1787.71</ele>
        <time>2016-10-27T11:38:18Z</time>
      </trkpt>
      <trkpt lat="42.84458" lon="1.43949">
        <ele>1785.79</ele>
        <time>2016-10-27T11:38:32Z</time>
      </trkpt>
      <trkpt lat="42.84463" lon="1.43955">
        <ele>1782.9</ele>
        <time>2016-10-27T11:38:43Z</time>
      </trkpt>
      <trkpt lat="42.84467" lon="1.4396">
        <ele>1779.54</ele>
        <time>2016-10-27T11:38:52Z</time>
      </trkpt>
      <trkpt lat="42.84469" lon="1.43962">
        <ele>1778.58</ele>
        <time>2016-10-27T11:38:57Z</time>
      </trkpt>
      <trkpt lat="42.84476" lon="1.43966">
        <ele>1774.73</ele>
        <time>2016-10-27T11:39:09Z</time>
      </trkpt>
      <trkpt lat="42.84481" lon="1.43971">
        <ele>1771.37</ele>
        <time>2016-10-27T11:39:19Z</time>
      </trkpt>
      <trkpt lat="42.84482" lon="1.43972">
        <ele>1770.89</ele>
        <time>2016-10-27T11:39:21Z</time>
      </trkpt>
      <trkpt lat="42.84486" lon="1.43977">
        <ele>1768.96</ele>
        <time>2016-10-27T11:39:28Z</time>
      </trkpt>
      <trkpt lat="42.84491" lon="1.43981">
        <ele>1766.56</ele>
        <time>2016-10-27T11:39:35Z</time>
      </trkpt>
      <trkpt lat="42.845" lon="1.43988">
        <ele>1762.71</ele>
        <time>2016-10-27T11:39:48Z</time>
      </trkpt>
      <trkpt lat="42.845" lon="1.43995">
        <ele>1759.83</ele>
        <time>2016-10-27T11:39:58Z</time>
      </trkpt>
      <trkpt lat="42.84503" lon="1.44002">
        <ele>1757.43</ele>
        <time>2016-10-27T11:40:05Z</time>
      </trkpt>
      <trkpt lat="42.84507" lon="1.44012">
        <ele>1754.54</ele>
        <time>2016-10-27T11:40:16Z</time>
      </trkpt>
      <trkpt lat="42.8451" lon="1.44018">
        <ele>1753.58</ele>
        <time>2016-10-27T11:40:21Z</time>
      </trkpt>
      <trkpt lat="42.84515" lon="1.44037">
        <ele>1750.22</ele>
        <time>2016-10-27T11:40:34Z</time>
      </trkpt>
      <trkpt lat="42.84517" lon="1.44042">
        <ele>1749.26</ele>
        <time>2016-10-27T11:40:49Z</time>
      </trkpt>
      <trkpt lat="42.84519" lon="1.44051">
        <ele>1746.85</ele>
        <time>2016-10-27T11:41:06Z</time>
      </trkpt>
      <trkpt lat="42.84522" lon="1.44059">
        <ele>1743.97</ele>
        <time>2016-10-27T11:41:25Z</time>
      </trkpt>
      <trkpt lat="42.84527" lon="1.44064">
        <ele>1740.6</ele>
        <time>2016-10-27T11:41:37Z</time>
      </trkpt>
      <trkpt lat="42.8453" lon="1.44065">
        <ele>1738.68</ele>
        <time>2016-10-27T11:41:43Z</time>
      </trkpt>
      <trkpt lat="42.84537" lon="1.44072">
        <ele>1736.28</ele>
        <time>2016-10-27T11:41:55Z</time>
      </trkpt>
      <trkpt lat="42.84539" lon="1.4408">
        <ele>1733.39</ele>
        <time>2016-10-27T11:42:07Z</time>
      </trkpt>
      <trkpt lat="42.8454" lon="1.44088">
        <ele>1730.03</ele>
        <time>2016-10-27T11:42:16Z</time>
      </trkpt>
      <trkpt lat="42.8454" lon="1.44096">
        <ele>1726.67</ele>
        <time>2016-10-27T11:42:24Z</time>
      </trkpt>
      <trkpt lat="42.84541" lon="1.44105">
        <ele>1723.78</ele>
        <time>2016-10-27T11:42:33Z</time>
      </trkpt>
      <trkpt lat="42.84541" lon="1.44112">
        <ele>1720.9</ele>
        <time>2016-10-27T11:42:42Z</time>
      </trkpt>
      <trkpt lat="42.84542" lon="1.44124">
        <ele>1717.53</ele>
        <time>2016-10-27T11:42:54Z</time>
      </trkpt>
      <trkpt lat="42.84541" lon="1.44126">
        <ele>1717.05</ele>
        <time>2016-10-27T11:42:56Z</time>
      </trkpt>
      <trkpt lat="42.84539" lon="1.44129">
        <ele>1716.09</ele>
        <time>2016-10-27T11:42:58Z</time>
      </trkpt>
      <trkpt lat="42.8454" lon="1.44137">
        <ele>1713.21</ele>
        <time>2016-10-27T11:43:07Z</time>
      </trkpt>
      <trkpt lat="42.84542" lon="1.44142">
        <ele>1711.28</ele>
        <time>2016-10-27T11:43:13Z</time>
      </trkpt>
      <trkpt lat="42.84548" lon="1.4415">
        <ele>1708.88</ele>
        <time>2016-10-27T11:43:23Z</time>
      </trkpt>
      <trkpt lat="42.8455" lon="1.44161">
        <ele>1705.04</ele>
        <time>2016-10-27T11:43:34Z</time>
      </trkpt>
      <trkpt lat="42.84552" lon="1.44165">
        <ele>1704.07</ele>
        <time>2016-10-27T11:43:38Z</time>
      </trkpt>
      <trkpt lat="42.84557" lon="1.44177">
        <ele>1700.23</ele>
        <time>2016-10-27T11:43:52Z</time>
      </trkpt>
      <trkpt lat="42.84558" lon="1.44178">
        <ele>1700.23</ele>
        <time>2016-10-27T11:43:53Z</time>
      </trkpt>
      <trkpt lat="42.84559" lon="1.4418">
        <ele>1700.23</ele>
        <time>2016-10-27T11:43:55Z</time>
      </trkpt>
      <trkpt lat="42.84562" lon="1.44189">
        <ele>1697.83</ele>
        <time>2016-10-27T11:44:04Z</time>
      </trkpt>
      <trkpt lat="42.84566" lon="1.44198">
        <ele>1694.94</ele>
        <time>2016-10-27T11:44:14Z</time>
      </trkpt>
      <trkpt lat="42.84569" lon="1.44202">
        <ele>1693.5</ele>
        <time>2016-10-27T11:44:18Z</time>
      </trkpt>
      <trkpt lat="42.84571" lon="1.44213">
        <ele>1690.62</ele>
        <time>2016-10-27T11:44:29Z</time>
      </trkpt>
      <trkpt lat="42.84573" lon="1.44223">
        <ele>1687.25</ele>
        <time>2016-10-27T11:44:40Z</time>
      </trkpt>
      <trkpt lat="42.84574" lon="1.44225">
        <ele>1685.33</ele>
        <time>2016-10-27T11:44:58Z</time>
      </trkpt>
      <trkpt lat="42.84575" lon="1.44226">
        <ele>1685.33</ele>
        <time>2016-10-27T11:44:59Z</time>
      </trkpt>
      <trkpt lat="42.8458" lon="1.44231">
        <ele>1683.89</ele>
        <time>2016-10-27T11:45:05Z</time>
      </trkpt>
      <trkpt lat="42.84586" lon="1.44244">
        <ele>1680.52</ele>
        <time>2016-10-27T11:45:17Z</time>
      </trkpt>
      <trkpt lat="42.84584" lon="1.44248">
        <ele>1679.08</ele>
        <time>2016-10-27T11:45:25Z</time>
      </trkpt>
      <trkpt lat="42.84583" lon="1.44251">
        <ele>1678.6</ele>
        <time>2016-10-27T11:45:27Z</time>
      </trkpt>
      <trkpt lat="42.84585" lon="1.44262">
        <ele>1676.2</ele>
        <time>2016-10-27T11:45:38Z</time>
      </trkpt>
      <trkpt lat="42.84587" lon="1.44271">
        <ele>1672.83</ele>
        <time>2016-10-27T11:45:49Z</time>
      </trkpt>
      <trkpt lat="42.84585" lon="1.44278">
        <ele>1669.95</ele>
        <time>2016-10-27T11:45:59Z</time>
      </trkpt>
      <trkpt lat="42.84581" lon="1.44286">
        <ele>1667.54</ele>
        <time>2016-10-27T11:46:10Z</time>
      </trkpt>
      <trkpt lat="42.84583" lon="1.44292">
        <ele>1664.18</ele>
        <time>2016-10-27T11:46:19Z</time>
      </trkpt>
      <trkpt lat="42.84582" lon="1.443">
        <ele>1660.81</ele>
        <time>2016-10-27T11:46:28Z</time>
      </trkpt>
      <trkpt lat="42.84581" lon="1.4431">
        <ele>1657.45</ele>
        <time>2016-10-27T11:46:39Z</time>
      </trkpt>
      <trkpt lat="42.84582" lon="1.44311">
        <ele>1656.49</ele>
        <time>2016-10-27T11:46:49Z</time>
      </trkpt>
      <trkpt lat="42.84584" lon="1.44316">
        <ele>1654.57</ele>
        <time>2016-10-27T11:47:02Z</time>
      </trkpt>
      <trkpt lat="42.84585" lon="1.44324">
        <ele>1652.16</ele>
        <time>2016-10-27T11:47:14Z</time>
      </trkpt>
      <trkpt lat="42.84587" lon="1.44332">
        <ele>1649.28</ele>
        <time>2016-10-27T11:47:24Z</time>
      </trkpt>
      <trkpt lat="42.84587" lon="1.44332">
        <ele>1649.28</ele>
        <time>2016-10-27T11:47:25Z</time>
      </trkpt>
      <trkpt lat="42.84593" lon="1.44338">
        <ele>1645.91</ele>
        <time>2016-10-27T11:47:38Z</time>
      </trkpt>
      <trkpt lat="42.84594" lon="1.44338">
        <ele>1645.43</ele>
        <time>2016-10-27T11:47:40Z</time>
      </trkpt>
      <trkpt lat="42.84596" lon="1.4434">
        <ele>1644.47</ele>
        <time>2016-10-27T11:47:43Z</time>
      </trkpt>
      <trkpt lat="42.846" lon="1.44344">
        <ele>1642.55</ele>
        <time>2016-10-27T11:47:48Z</time>
      </trkpt>
      <trkpt lat="42.84607" lon="1.44359">
        <ele>1639.67</ele>
        <time>2016-10-27T11:48:02Z</time>
      </trkpt>
      <trkpt lat="42.84607" lon="1.44359">
        <ele>1639.67</ele>
        <time>2016-10-27T11:48:11Z</time>
      </trkpt>
      <trkpt lat="42.84609" lon="1.44358">
        <ele>1639.67</ele>
        <time>2016-10-27T11:48:13Z</time>
      </trkpt>
      <trkpt lat="42.84612" lon="1.44358">
        <ele>1639.19</ele>
        <time>2016-10-27T11:48:17Z</time>
      </trkpt>
      <trkpt lat="42.84615" lon="1.44359">
        <ele>1638.22</ele>
        <time>2016-10-27T11:48:21Z</time>
      </trkpt>
      <trkpt lat="42.8462" lon="1.44355">
        <ele>1635.82</ele>
        <time>2016-10-27T11:48:31Z</time>
      </trkpt>
      <trkpt lat="42.84626" lon="1.44358">
        <ele>1632.94</ele>
        <time>2016-10-27T11:48:42Z</time>
      </trkpt>
      <trkpt lat="42.84628" lon="1.44358">
        <ele>1631.98</ele>
        <time>2016-10-27T11:48:45Z</time>
      </trkpt>
      <trkpt lat="42.84631" lon="1.4436">
        <ele>1631.01</ele>
        <time>2016-10-27T11:48:51Z</time>
      </trkpt>
      <trkpt lat="42.84636" lon="1.44371">
        <ele>1626.69</ele>
        <time>2016-10-27T11:49:03Z</time>
      </trkpt>
      <trkpt lat="42.84639" lon="1.44373">
        <ele>1625.25</ele>
        <time>2016-10-27T11:49:25Z</time>
      </trkpt>
      <trkpt lat="42.84639" lon="1.44374">
        <ele>1625.25</ele>
        <time>2016-10-27T11:49:26Z</time>
      </trkpt>
      <trkpt lat="42.84642" lon="1.44381">
        <ele>1622.36</ele>
        <time>2016-10-27T11:49:37Z</time>
      </trkpt>
      <trkpt lat="42.84645" lon="1.44387">
        <ele>1619</ele>
        <time>2016-10-27T11:49:46Z</time>
      </trkpt>
      <trkpt lat="42.84651" lon="1.44395">
        <ele>1615.63</ele>
        <time>2016-10-27T11:49:58Z</time>
      </trkpt>
      <trkpt lat="42.84651" lon="1.44396">
        <ele>1615.15</ele>
        <time>2016-10-27T11:50:00Z</time>
      </trkpt>
      <trkpt lat="42.84655" lon="1.44405">
        <ele>1612.27</ele>
        <time>2016-10-27T11:50:12Z</time>
      </trkpt>
      <trkpt lat="42.8466" lon="1.4441">
        <ele>1608.9</ele>
        <time>2016-10-27T11:50:24Z</time>
      </trkpt>
      <trkpt lat="42.84664" lon="1.44411">
        <ele>1606.98</ele>
        <time>2016-10-27T11:50:33Z</time>
      </trkpt>
      <trkpt lat="42.84666" lon="1.44412">
        <ele>1605.54</ele>
        <time>2016-10-27T11:50:43Z</time>
      </trkpt>
      <trkpt lat="42.8467" lon="1.4442">
        <ele>1602.66</ele>
        <time>2016-10-27T11:50:56Z</time>
      </trkpt>
      <trkpt lat="42.84674" lon="1.44432">
        <ele>1601.69</ele>
        <time>2016-10-27T11:51:09Z</time>
      </trkpt>
      <trkpt lat="42.84672" lon="1.44438">
        <ele>1599.29</ele>
        <time>2016-10-27T11:51:20Z</time>
      </trkpt>
      <trkpt lat="42.84672" lon="1.44443">
        <ele>1597.85</ele>
        <time>2016-10-27T11:51:31Z</time>
      </trkpt>
      <trkpt lat="42.84672" lon="1.44446">
        <ele>1595.45</ele>
        <time>2016-10-27T11:51:44Z</time>
      </trkpt>
      <trkpt lat="42.84673" lon="1.44438">
        <ele>1594</ele>
        <time>2016-10-27T11:52:11Z</time>
      </trkpt>
      <trkpt lat="42.84677" lon="1.44441">
        <ele>1592.08</ele>
        <time>2016-10-27T11:52:20Z</time>
      </trkpt>
      <trkpt lat="42.8468" lon="1.44445">
        <ele>1591.12</ele>
        <time>2016-10-27T11:52:29Z</time>
      </trkpt>
      <trkpt lat="42.84685" lon="1.44443">
        <ele>1588.24</ele>
        <time>2016-10-27T11:52:41Z</time>
      </trkpt>
      <trkpt lat="42.84688" lon="1.44443">
        <ele>1586.79</ele>
        <time>2016-10-27T11:52:45Z</time>
      </trkpt>
      <trkpt lat="42.8469" lon="1.44447">
        <ele>1585.83</ele>
        <time>2016-10-27T11:52:56Z</time>
      </trkpt>
      <trkpt lat="42.84691" lon="1.44455">
        <ele>1582.95</ele>
        <time>2016-10-27T11:53:06Z</time>
      </trkpt>
      <trkpt lat="42.84692" lon="1.44454">
        <ele>1582.47</ele>
        <time>2016-10-27T11:53:22Z</time>
      </trkpt>
      <trkpt lat="42.84694" lon="1.44452">
        <ele>1580.54</ele>
        <time>2016-10-27T11:53:44Z</time>
      </trkpt>
      <trkpt lat="42.84696" lon="1.44445">
        <ele>1578.14</ele>
        <time>2016-10-27T11:53:56Z</time>
      </trkpt>
      <trkpt lat="42.847" lon="1.44431">
        <ele>1575.74</ele>
        <time>2016-10-27T11:54:09Z</time>
      </trkpt>
      <trkpt lat="42.84701" lon="1.44425">
        <ele>1573.33</ele>
        <time>2016-10-27T11:54:23Z</time>
      </trkpt>
      <trkpt lat="42.84707" lon="1.44429">
        <ele>1569.97</ele>
        <time>2016-10-27T11:54:36Z</time>
      </trkpt>
      <trkpt lat="42.84713" lon="1.44432">
        <ele>1568.05</ele>
        <time>2016-10-27T11:54:49Z</time>
      </trkpt>
      <trkpt lat="42.8472" lon="1.44432">
        <ele>1565.64</ele>
        <time>2016-10-27T11:55:00Z</time>
      </trkpt>
      <trkpt lat="42.84727" lon="1.44432">
        <ele>1564.2</ele>
        <time>2016-10-27T11:55:12Z</time>
      </trkpt>
      <trkpt lat="42.8473" lon="1.4444">
        <ele>1561.32</ele>
        <time>2016-10-27T11:55:23Z</time>
      </trkpt>
      <trkpt lat="42.8473" lon="1.44442">
        <ele>1558.43</ele>
        <time>2016-10-27T11:55:35Z</time>
      </trkpt>
      <trkpt lat="42.84734" lon="1.44449">
        <ele>1555.07</ele>
        <time>2016-10-27T11:55:46Z</time>
      </trkpt>
      <trkpt lat="42.84737" lon="1.4445">
        <ele>1553.15</ele>
        <time>2016-10-27T11:55:59Z</time>
      </trkpt>
      <trkpt lat="42.84744" lon="1.4445">
        <ele>1550.26</ele>
        <time>2016-10-27T11:56:12Z</time>
      </trkpt>
      <trkpt lat="42.84748" lon="1.44457">
        <ele>1547.38</ele>
        <time>2016-10-27T11:56:24Z</time>
      </trkpt>
      <trkpt lat="42.84752" lon="1.44461">
        <ele>1544.98</ele>
        <time>2016-10-27T11:56:34Z</time>
      </trkpt>
      <trkpt lat="42.84754" lon="1.44471">
        <ele>1541.13</ele>
        <time>2016-10-27T11:56:46Z</time>
      </trkpt>
      <trkpt lat="42.84751" lon="1.44479">
        <ele>1539.21</ele>
        <time>2016-10-27T11:56:55Z</time>
      </trkpt>
      <trkpt lat="42.84749" lon="1.44483">
        <ele>1537.77</ele>
        <time>2016-10-27T11:56:59Z</time>
      </trkpt>
      <trkpt lat="42.84746" lon="1.44492">
        <ele>1535.84</ele>
        <time>2016-10-27T11:57:10Z</time>
      </trkpt>
      <trkpt lat="42.84749" lon="1.44491">
        <ele>1535.36</ele>
        <time>2016-10-27T11:57:24Z</time>
      </trkpt>
      <trkpt lat="42.84749" lon="1.44497">
        <ele>1533.44</ele>
        <time>2016-10-27T11:57:29Z</time>
      </trkpt>
      <trkpt lat="42.84751" lon="1.44503">
        <ele>1531.52</ele>
        <time>2016-10-27T11:57:37Z</time>
      </trkpt>
      <trkpt lat="42.84752" lon="1.44506">
        <ele>1530.56</ele>
        <time>2016-10-27T11:57:40Z</time>
      </trkpt>
      <trkpt lat="42.84748" lon="1.44521">
        <ele>1527.19</ele>
        <time>2016-10-27T11:57:53Z</time>
      </trkpt>
      <trkpt lat="42.84746" lon="1.44525">
        <ele>1525.27</ele>
        <time>2016-10-27T11:57:58Z</time>
      </trkpt>
      <trkpt lat="42.84742" lon="1.44535">
        <ele>1522.39</ele>
        <time>2016-10-27T11:58:10Z</time>
      </trkpt>
      <trkpt lat="42.84731" lon="1.44547">
        <ele>1519.5</ele>
        <time>2016-10-27T11:58:23Z</time>
      </trkpt>
      <trkpt lat="42.84724" lon="1.44556">
        <ele>1516.62</ele>
        <time>2016-10-27T11:58:39Z</time>
      </trkpt>
      <trkpt lat="42.84716" lon="1.44563">
        <ele>1515.18</ele>
        <time>2016-10-27T11:58:51Z</time>
      </trkpt>
      <trkpt lat="42.84707" lon="1.44574">
        <ele>1513.25</ele>
        <time>2016-10-27T11:59:02Z</time>
      </trkpt>
      <trkpt lat="42.84697" lon="1.44585">
        <ele>1512.77</ele>
        <time>2016-10-27T11:59:13Z</time>
      </trkpt>
      <trkpt lat="42.84688" lon="1.44594">
        <ele>1511.33</ele>
        <time>2016-10-27T12:00:09Z</time>
      </trkpt>
      <trkpt lat="42.84688" lon="1.44594">
        <ele>1512.29</ele>
        <time>2016-10-27T12:00:50Z</time>
      </trkpt>
      <trkpt lat="42.84686" lon="1.44595">
        <ele>1511.33</ele>
        <time>2016-10-27T12:01:38Z</time>
      </trkpt>
      <trkpt lat="42.84678" lon="1.44602">
        <ele>1509.89</ele>
        <time>2016-10-27T12:01:51Z</time>
      </trkpt>
      <trkpt lat="42.84678" lon="1.44601">
        <ele>1509.41</ele>
        <time>2016-10-27T12:02:07Z</time>
      </trkpt>
      <trkpt lat="42.84679" lon="1.446">
        <ele>1509.41</ele>
        <time>2016-10-27T12:05:30Z</time>
      </trkpt>
      <trkpt lat="42.84676" lon="1.44605">
        <ele>1509.89</ele>
        <time>2016-10-27T12:05:54Z</time>
      </trkpt>
      <trkpt lat="42.84676" lon="1.44609">
        <ele>1510.37</ele>
        <time>2016-10-27T12:06:02Z</time>
      </trkpt>
      <trkpt lat="42.84676" lon="1.4461">
        <ele>1508.93</ele>
        <time>2016-10-27T12:06:04Z</time>
      </trkpt>
      <trkpt lat="42.84675" lon="1.44609">
        <ele>1507.97</ele>
        <time>2016-10-27T12:06:13Z</time>
      </trkpt>
      <trkpt lat="42.8467" lon="1.44608">
        <ele>1509.41</ele>
        <time>2016-10-27T12:06:33Z</time>
      </trkpt>
      <trkpt lat="42.84671" lon="1.4461">
        <ele>1508.45</ele>
        <time>2016-10-27T12:06:35Z</time>
      </trkpt>
      <trkpt lat="42.84666" lon="1.44617">
        <ele>1506.52</ele>
        <time>2016-10-27T12:06:43Z</time>
      </trkpt>
      <trkpt lat="42.84648" lon="1.44635">
        <ele>1504.6</ele>
        <time>2016-10-27T12:07:03Z</time>
      </trkpt>
      <trkpt lat="42.84633" lon="1.44649">
        <ele>1503.64</ele>
        <time>2016-10-27T12:07:23Z</time>
      </trkpt>
      <trkpt lat="42.84631" lon="1.4465">
        <ele>1502.2</ele>
        <time>2016-10-27T12:07:26Z</time>
      </trkpt>
      <trkpt lat="42.84629" lon="1.44661">
        <ele>1498.83</ele>
        <time>2016-10-27T12:07:36Z</time>
      </trkpt>
      <trkpt lat="42.84628" lon="1.44666">
        <ele>1498.35</ele>
        <time>2016-10-27T12:07:40Z</time>
      </trkpt>
      <trkpt lat="42.84627" lon="1.44671">
        <ele>1496.91</ele>
        <time>2016-10-27T12:07:44Z</time>
      </trkpt>
      <trkpt lat="42.84614" lon="1.44672">
        <ele>1495.95</ele>
        <time>2016-10-27T12:07:56Z</time>
      </trkpt>
      <trkpt lat="42.84609" lon="1.44673">
        <ele>1494.99</ele>
        <time>2016-10-27T12:08:01Z</time>
      </trkpt>
      <trkpt lat="42.84607" lon="1.44675">
        <ele>1496.43</ele>
        <time>2016-10-27T12:08:03Z</time>
      </trkpt>
      <trkpt lat="42.84604" lon="1.44675">
        <ele>1494.99</ele>
        <time>2016-10-27T12:08:05Z</time>
      </trkpt>
      <trkpt lat="42.846" lon="1.44682">
        <ele>1493.55</ele>
        <time>2016-10-27T12:08:12Z</time>
      </trkpt>
      <trkpt lat="42.84601" lon="1.44685">
        <ele>1495.47</ele>
        <time>2016-10-27T12:08:15Z</time>
      </trkpt>
      <trkpt lat="42.84595" lon="1.44698">
        <ele>1494.03</ele>
        <time>2016-10-27T12:08:32Z</time>
      </trkpt>
      <trkpt lat="42.84594" lon="1.44699">
        <ele>1494.03</ele>
        <time>2016-10-27T12:08:33Z</time>
      </trkpt>
      <trkpt lat="42.84591" lon="1.44703">
        <ele>1493.06</ele>
        <time>2016-10-27T12:08:36Z</time>
      </trkpt>
      <trkpt lat="42.84584" lon="1.44707">
        <ele>1492.58</ele>
        <time>2016-10-27T12:08:53Z</time>
      </trkpt>
      <trkpt lat="42.84581" lon="1.44705">
        <ele>1491.14</ele>
        <time>2016-10-27T12:09:12Z</time>
      </trkpt>
      <trkpt lat="42.8458" lon="1.44705">
        <ele>1492.58</ele>
        <time>2016-10-27T12:09:13Z</time>
      </trkpt>
      <trkpt lat="42.84576" lon="1.44707">
        <ele>1490.66</ele>
        <time>2016-10-27T12:09:16Z</time>
      </trkpt>
      <trkpt lat="42.84573" lon="1.44708">
        <ele>1489.7</ele>
        <time>2016-10-27T12:09:18Z</time>
      </trkpt>
      <trkpt lat="42.84572" lon="1.44709">
        <ele>1491.14</ele>
        <time>2016-10-27T12:09:20Z</time>
      </trkpt>
      <trkpt lat="42.84569" lon="1.44712">
        <ele>1489.7</ele>
        <time>2016-10-27T12:09:23Z</time>
      </trkpt>
      <trkpt lat="42.84561" lon="1.44732">
        <ele>1489.22</ele>
        <time>2016-10-27T12:09:38Z</time>
      </trkpt>
      <trkpt lat="42.84553" lon="1.44746">
        <ele>1489.7</ele>
        <time>2016-10-27T12:09:54Z</time>
      </trkpt>
      <trkpt lat="42.84548" lon="1.44748">
        <ele>1491.14</ele>
        <time>2016-10-27T12:09:59Z</time>
      </trkpt>
      <trkpt lat="42.84546" lon="1.44749">
        <ele>1489.7</ele>
        <time>2016-10-27T12:10:01Z</time>
      </trkpt>
      <trkpt lat="42.84544" lon="1.44751">
        <ele>1492.1</ele>
        <time>2016-10-27T12:10:03Z</time>
      </trkpt>
      <trkpt lat="42.84542" lon="1.44753">
        <ele>1490.18</ele>
        <time>2016-10-27T12:10:05Z</time>
      </trkpt>
      <trkpt lat="42.84527" lon="1.44764">
        <ele>1489.22</ele>
        <time>2016-10-27T12:10:19Z</time>
      </trkpt>
      <trkpt lat="42.84526" lon="1.44765">
        <ele>1489.22</ele>
        <time>2016-10-27T12:10:20Z</time>
      </trkpt>
      <trkpt lat="42.84519" lon="1.4477">
        <ele>1489.22</ele>
        <time>2016-10-27T12:10:27Z</time>
      </trkpt>
      <trkpt lat="42.84515" lon="1.44774">
        <ele>1489.22</ele>
        <time>2016-10-27T12:10:31Z</time>
      </trkpt>
      <trkpt lat="42.84507" lon="1.44783">
        <ele>1490.18</ele>
        <time>2016-10-27T12:10:40Z</time>
      </trkpt>
      <trkpt lat="42.84505" lon="1.44785">
        <ele>1489.22</ele>
        <time>2016-10-27T12:10:42Z</time>
      </trkpt>
      <trkpt lat="42.84495" lon="1.44794">
        <ele>1489.22</ele>
        <time>2016-10-27T12:10:52Z</time>
      </trkpt>
      <trkpt lat="42.84494" lon="1.44795">
        <ele>1487.78</ele>
        <time>2016-10-27T12:10:54Z</time>
      </trkpt>
      <trkpt lat="42.84494" lon="1.44796">
        <ele>1488.74</ele>
        <time>2016-10-27T12:10:56Z</time>
      </trkpt>
      <trkpt lat="42.84492" lon="1.44794">
        <ele>1487.78</ele>
        <time>2016-10-27T12:11:11Z</time>
      </trkpt>
      <trkpt lat="42.84487" lon="1.44798">
        <ele>1488.74</ele>
        <time>2016-10-27T12:11:16Z</time>
      </trkpt>
      <trkpt lat="42.84479" lon="1.44801">
        <ele>1489.22</ele>
        <time>2016-10-27T12:11:24Z</time>
      </trkpt>
      <trkpt lat="42.84476" lon="1.448">
        <ele>1487.78</ele>
        <time>2016-10-27T12:11:27Z</time>
      </trkpt>
      <trkpt lat="42.84468" lon="1.44802">
        <ele>1487.78</ele>
        <time>2016-10-27T12:11:34Z</time>
      </trkpt>
      <trkpt lat="42.84463" lon="1.44803">
        <ele>1488.74</ele>
        <time>2016-10-27T12:11:39Z</time>
      </trkpt>
      <trkpt lat="42.84457" lon="1.44807">
        <ele>1483.45</ele>
        <time>2016-10-27T12:11:51Z</time>
      </trkpt>
      <trkpt lat="42.84457" lon="1.44807">
        <ele>1491.14</ele>
        <time>2016-10-27T12:11:52Z</time>
      </trkpt>
      <trkpt lat="42.84457" lon="1.44807">
        <ele>1487.3</ele>
        <time>2016-10-27T12:11:53Z</time>
      </trkpt>
      <trkpt lat="42.84453" lon="1.44814">
        <ele>1488.74</ele>
        <time>2016-10-27T12:12:18Z</time>
      </trkpt>
      <trkpt lat="42.84452" lon="1.44813">
        <ele>1489.22</ele>
        <time>2016-10-27T12:12:57Z</time>
      </trkpt>
      <trkpt lat="42.84449" lon="1.44824">
        <ele>1489.22</ele>
        <time>2016-10-27T12:13:11Z</time>
      </trkpt>
      <trkpt lat="42.84449" lon="1.44823">
        <ele>1489.22</ele>
        <time>2016-10-27T12:13:46Z</time>
      </trkpt>
      <trkpt lat="42.84443" lon="1.44836">
        <ele>1490.18</ele>
        <time>2016-10-27T12:13:58Z</time>
      </trkpt>
      <trkpt lat="42.84443" lon="1.44839">
        <ele>1490.66</ele>
        <time>2016-10-27T12:14:00Z</time>
      </trkpt>
      <trkpt lat="42.84441" lon="1.44851">
        <ele>1491.62</ele>
        <time>2016-10-27T12:14:10Z</time>
      </trkpt>
      <trkpt lat="42.84441" lon="1.44855">
        <ele>1491.62</ele>
        <time>2016-10-27T12:14:14Z</time>
      </trkpt>
      <trkpt lat="42.84437" lon="1.44861">
        <ele>1491.62</ele>
        <time>2016-10-27T12:14:20Z</time>
      </trkpt>
      <trkpt lat="42.84437" lon="1.44866">
        <ele>1490.18</ele>
        <time>2016-10-27T12:14:23Z</time>
      </trkpt>
      <trkpt lat="42.84437" lon="1.44873">
        <ele>1488.74</ele>
        <time>2016-10-27T12:14:29Z</time>
      </trkpt>
      <trkpt lat="42.84439" lon="1.44887">
        <ele>1487.3</ele>
        <time>2016-10-27T12:14:42Z</time>
      </trkpt>
      <trkpt lat="42.84442" lon="1.44901">
        <ele>1485.37</ele>
        <time>2016-10-27T12:14:54Z</time>
      </trkpt>
      <trkpt lat="42.84444" lon="1.44906">
        <ele>1484.41</ele>
        <time>2016-10-27T12:15:10Z</time>
      </trkpt>
      <trkpt lat="42.84445" lon="1.44911">
        <ele>1483.45</ele>
        <time>2016-10-27T12:15:23Z</time>
      </trkpt>
      <trkpt lat="42.84447" lon="1.44917">
        <ele>1482.01</ele>
        <time>2016-10-27T12:15:36Z</time>
      </trkpt>
      <trkpt lat="42.84447" lon="1.44928">
        <ele>1479.61</ele>
        <time>2016-10-27T12:15:51Z</time>
      </trkpt>
      <trkpt lat="42.84448" lon="1.44935">
        <ele>1476.72</ele>
        <time>2016-10-27T12:16:03Z</time>
      </trkpt>
      <trkpt lat="42.84455" lon="1.44943">
        <ele>1476.24</ele>
        <time>2016-10-27T12:16:13Z</time>
      </trkpt>
      <trkpt lat="42.84458" lon="1.44956">
        <ele>1473.84</ele>
        <time>2016-10-27T12:16:25Z</time>
      </trkpt>
      <trkpt lat="42.84457" lon="1.44959">
        <ele>1472.88</ele>
        <time>2016-10-27T12:16:27Z</time>
      </trkpt>
      <trkpt lat="42.84454" lon="1.44975">
        <ele>1470.47</ele>
        <time>2016-10-27T12:16:40Z</time>
      </trkpt>
      <trkpt lat="42.84449" lon="1.44982">
        <ele>1468.55</ele>
        <time>2016-10-27T12:16:47Z</time>
      </trkpt>
      <trkpt lat="42.84448" lon="1.44985">
        <ele>1467.59</ele>
        <time>2016-10-27T12:16:49Z</time>
      </trkpt>
      <trkpt lat="42.84445" lon="1.45001">
        <ele>1465.19</ele>
        <time>2016-10-27T12:17:01Z</time>
      </trkpt>
      <trkpt lat="42.84445" lon="1.45007">
        <ele>1464.71</ele>
        <time>2016-10-27T12:17:05Z</time>
      </trkpt>
      <trkpt lat="42.84439" lon="1.45023">
        <ele>1463.74</ele>
        <time>2016-10-27T12:17:17Z</time>
      </trkpt>
      <trkpt lat="42.8444" lon="1.4503">
        <ele>1463.26</ele>
        <time>2016-10-27T12:17:22Z</time>
      </trkpt>
      <trkpt lat="42.84437" lon="1.45046">
        <ele>1462.3</ele>
        <time>2016-10-27T12:17:33Z</time>
      </trkpt>
      <trkpt lat="42.84434" lon="1.45058">
        <ele>1458.94</ele>
        <time>2016-10-27T12:17:44Z</time>
      </trkpt>
      <trkpt lat="42.84436" lon="1.4507">
        <ele>1456.05</ele>
        <time>2016-10-27T12:17:56Z</time>
      </trkpt>
      <trkpt lat="42.84442" lon="1.45076">
        <ele>1452.69</ele>
        <time>2016-10-27T12:18:06Z</time>
      </trkpt>
      <trkpt lat="42.84443" lon="1.45075">
        <ele>1452.69</ele>
        <time>2016-10-27T12:18:24Z</time>
      </trkpt>
      <trkpt lat="42.84447" lon="1.45076">
        <ele>1451.73</ele>
        <time>2016-10-27T12:18:37Z</time>
      </trkpt>
      <trkpt lat="42.84442" lon="1.45084">
        <ele>1448.84</ele>
        <time>2016-10-27T12:18:46Z</time>
      </trkpt>
      <trkpt lat="42.84435" lon="1.45091">
        <ele>1446.92</ele>
        <time>2016-10-27T12:18:57Z</time>
      </trkpt>
      <trkpt lat="42.84434" lon="1.45096">
        <ele>1445</ele>
        <time>2016-10-27T12:19:14Z</time>
      </trkpt>
      <trkpt lat="42.84433" lon="1.45102">
        <ele>1444.52</ele>
        <time>2016-10-27T12:19:23Z</time>
      </trkpt>
      <trkpt lat="42.84435" lon="1.45108">
        <ele>1444.04</ele>
        <time>2016-10-27T12:19:27Z</time>
      </trkpt>
      <trkpt lat="42.84433" lon="1.45114">
        <ele>1444.04</ele>
        <time>2016-10-27T12:19:30Z</time>
      </trkpt>
      <trkpt lat="42.84425" lon="1.45124">
        <ele>1443.08</ele>
        <time>2016-10-27T12:19:43Z</time>
      </trkpt>
      <trkpt lat="42.84427" lon="1.45122">
        <ele>1442.6</ele>
        <time>2016-10-27T12:19:59Z</time>
      </trkpt>
      <trkpt lat="42.84427" lon="1.45121">
        <ele>1442.6</ele>
        <time>2016-10-27T12:20:11Z</time>
      </trkpt>
      <trkpt lat="42.84414" lon="1.4514">
        <ele>1439.71</ele>
        <time>2016-10-27T12:20:24Z</time>
      </trkpt>
      <trkpt lat="42.84407" lon="1.45155">
        <ele>1438.75</ele>
        <time>2016-10-27T12:20:35Z</time>
      </trkpt>
      <trkpt lat="42.844" lon="1.45172">
        <ele>1438.27</ele>
        <time>2016-10-27T12:20:47Z</time>
      </trkpt>
      <trkpt lat="42.84399" lon="1.45174">
        <ele>1438.27</ele>
        <time>2016-10-27T12:20:49Z</time>
      </trkpt>
      <trkpt lat="42.84388" lon="1.45188">
        <ele>1437.31</ele>
        <time>2016-10-27T12:21:02Z</time>
      </trkpt>
      <trkpt lat="42.84378" lon="1.45199">
        <ele>1437.31</ele>
        <time>2016-10-27T12:21:13Z</time>
      </trkpt>
      <trkpt lat="42.84377" lon="1.45201">
        <ele>1436.83</ele>
        <time>2016-10-27T12:21:15Z</time>
      </trkpt>
      <trkpt lat="42.84376" lon="1.45203">
        <ele>1436.35</ele>
        <time>2016-10-27T12:21:33Z</time>
      </trkpt>
      <trkpt lat="42.84372" lon="1.45207">
        <ele>1436.35</ele>
        <time>2016-10-27T12:21:54Z</time>
      </trkpt>
      <trkpt lat="42.84371" lon="1.45214">
        <ele>1436.35</ele>
        <time>2016-10-27T12:21:59Z</time>
      </trkpt>
      <trkpt lat="42.8437" lon="1.45229">
        <ele>1436.35</ele>
        <time>2016-10-27T12:22:10Z</time>
      </trkpt>
      <trkpt lat="42.8437" lon="1.45233">
        <ele>1437.79</ele>
        <time>2016-10-27T12:22:13Z</time>
      </trkpt>
      <trkpt lat="42.8437" lon="1.45249">
        <ele>1436.83</ele>
        <time>2016-10-27T12:22:24Z</time>
      </trkpt>
      <trkpt lat="42.84368" lon="1.45256">
        <ele>1435.87</ele>
        <time>2016-10-27T12:22:35Z</time>
      </trkpt>
      <trkpt lat="42.84367" lon="1.45265">
        <ele>1435.39</ele>
        <time>2016-10-27T12:22:52Z</time>
      </trkpt>
      <trkpt lat="42.84366" lon="1.45265">
        <ele>1435.39</ele>
        <time>2016-10-27T12:23:08Z</time>
      </trkpt>
      <trkpt lat="42.84361" lon="1.45272">
        <ele>1435.39</ele>
        <time>2016-10-27T12:23:25Z</time>
      </trkpt>
      <trkpt lat="42.84355" lon="1.45276">
        <ele>1435.39</ele>
        <time>2016-10-27T12:23:41Z</time>
      </trkpt>
      <trkpt lat="42.84356" lon="1.45277">
        <ele>1435.39</ele>
        <time>2016-10-27T12:23:50Z</time>
      </trkpt>
      <trkpt lat="42.84357" lon="1.45281">
        <ele>1436.35</ele>
        <time>2016-10-27T12:24:01Z</time>
      </trkpt>
      <trkpt lat="42.84356" lon="1.45287">
        <ele>1437.31</ele>
        <time>2016-10-27T12:24:15Z</time>
      </trkpt>
      <trkpt lat="42.84348" lon="1.45286">
        <ele>1438.75</ele>
        <time>2016-10-27T12:24:26Z</time>
      </trkpt>
      <trkpt lat="42.84347" lon="1.45286">
        <ele>1438.75</ele>
        <time>2016-10-27T12:24:28Z</time>
      </trkpt>
      <trkpt lat="42.84339" lon="1.45285">
        <ele>1439.23</ele>
        <time>2016-10-27T12:24:36Z</time>
      </trkpt>
      <trkpt lat="42.84334" lon="1.45283">
        <ele>1440.67</ele>
        <time>2016-10-27T12:24:49Z</time>
      </trkpt>
      <trkpt lat="42.84327" lon="1.45281">
        <ele>1441.63</ele>
        <time>2016-10-27T12:25:06Z</time>
      </trkpt>
      <trkpt lat="42.84325" lon="1.45276">
        <ele>1442.11</ele>
        <time>2016-10-27T12:25:17Z</time>
      </trkpt>
      <trkpt lat="42.84321" lon="1.45267">
        <ele>1443.08</ele>
        <time>2016-10-27T12:25:31Z</time>
      </trkpt>
      <trkpt lat="42.84318" lon="1.45264">
        <ele>1443.56</ele>
        <time>2016-10-27T12:25:45Z</time>
      </trkpt>
      <trkpt lat="42.84314" lon="1.45259">
        <ele>1442.11</ele>
        <time>2016-10-27T12:25:59Z</time>
      </trkpt>
      <trkpt lat="42.84314" lon="1.45261">
        <ele>1443.08</ele>
        <time>2016-10-27T12:26:21Z</time>
      </trkpt>
      <trkpt lat="42.84314" lon="1.45259">
        <ele>1443.08</ele>
        <time>2016-10-27T12:26:32Z</time>
      </trkpt>
      <trkpt lat="42.84305" lon="1.45251">
        <ele>1443.08</ele>
        <time>2016-10-27T12:26:42Z</time>
      </trkpt>
      <trkpt lat="42.8429" lon="1.45253">
        <ele>1443.08</ele>
        <time>2016-10-27T12:26:54Z</time>
      </trkpt>
      <trkpt lat="42.84286" lon="1.45254">
        <ele>1443.08</ele>
        <time>2016-10-27T12:26:57Z</time>
      </trkpt>
      <trkpt lat="42.84276" lon="1.45254">
        <ele>1443.08</ele>
        <time>2016-10-27T12:27:24Z</time>
      </trkpt>
      <trkpt lat="42.84269" lon="1.45257">
        <ele>1442.6</ele>
        <time>2016-10-27T12:27:52Z</time>
      </trkpt>
      <trkpt lat="42.84258" lon="1.45246">
        <ele>1442.6</ele>
        <time>2016-10-27T12:28:05Z</time>
      </trkpt>
      <trkpt lat="42.84253" lon="1.45244">
        <ele>1441.63</ele>
        <time>2016-10-27T12:28:16Z</time>
      </trkpt>
      <trkpt lat="42.84246" lon="1.45251">
        <ele>1441.63</ele>
        <time>2016-10-27T12:28:42Z</time>
      </trkpt>
      <trkpt lat="42.84246" lon="1.45247">
        <ele>1441.15</ele>
        <time>2016-10-27T12:29:03Z</time>
      </trkpt>
      <trkpt lat="42.84239" lon="1.45247">
        <ele>1442.11</ele>
        <time>2016-10-27T12:29:29Z</time>
      </trkpt>
      <trkpt lat="42.84238" lon="1.45246">
        <ele>1435.39</ele>
        <time>2016-10-27T12:29:34Z</time>
      </trkpt>
      <trkpt lat="42.84238" lon="1.45246">
        <ele>1435.39</ele>
        <time>2016-10-27T12:29:35Z</time>
      </trkpt>
      <trkpt lat="42.84237" lon="1.45245">
        <ele>1440.67</ele>
        <time>2016-10-27T12:29:36Z</time>
      </trkpt>
      <trkpt lat="42.84237" lon="1.45245">
        <ele>1440.67</ele>
        <time>2016-10-27T12:29:37Z</time>
      </trkpt>
      <trkpt lat="42.84232" lon="1.45251">
        <ele>1441.15</ele>
        <time>2016-10-27T12:30:17Z</time>
      </trkpt>
      <trkpt lat="42.84232" lon="1.4524">
        <ele>1438.27</ele>
        <time>2016-10-27T12:31:11Z</time>
      </trkpt>
      <trkpt lat="42.84224" lon="1.45235">
        <ele>1434.42</ele>
        <time>2016-10-27T12:31:26Z</time>
      </trkpt>
      <trkpt lat="42.84217" lon="1.45232">
        <ele>1431.06</ele>
        <time>2016-10-27T12:31:40Z</time>
      </trkpt>
      <trkpt lat="42.84216" lon="1.45231">
        <ele>1431.06</ele>
        <time>2016-10-27T12:31:41Z</time>
      </trkpt>
      <trkpt lat="42.8421" lon="1.45231">
        <ele>1428.18</ele>
        <time>2016-10-27T12:31:48Z</time>
      </trkpt>
      <trkpt lat="42.84201" lon="1.45234">
        <ele>1425.29</ele>
        <time>2016-10-27T12:32:07Z</time>
      </trkpt>
      <trkpt lat="42.84197" lon="1.45236">
        <ele>1423.85</ele>
        <time>2016-10-27T12:32:12Z</time>
      </trkpt>
      <trkpt lat="42.84193" lon="1.45238">
        <ele>1422.89</ele>
        <time>2016-10-27T12:32:17Z</time>
      </trkpt>
      <trkpt lat="42.8418" lon="1.45235">
        <ele>1419.04</ele>
        <time>2016-10-27T12:32:33Z</time>
      </trkpt>
      <trkpt lat="42.8417" lon="1.4523">
        <ele>1416.16</ele>
        <time>2016-10-27T12:32:43Z</time>
      </trkpt>
      <trkpt lat="42.84162" lon="1.45232">
        <ele>1413.76</ele>
        <time>2016-10-27T12:33:01Z</time>
      </trkpt>
      <trkpt lat="42.84158" lon="1.45227">
        <ele>1414.24</ele>
        <time>2016-10-27T12:33:29Z</time>
      </trkpt>
      <trkpt lat="42.84158" lon="1.45227">
        <ele>1414.24</ele>
        <time>2016-10-27T12:33:36Z</time>
      </trkpt>
      <trkpt lat="42.84156" lon="1.45219">
        <ele>1414.24</ele>
        <time>2016-10-27T12:33:49Z</time>
      </trkpt>
      <trkpt lat="42.84156" lon="1.45213">
        <ele>1414.24</ele>
        <time>2016-10-27T12:34:20Z</time>
      </trkpt>
      <trkpt lat="42.84156" lon="1.45206">
        <ele>1409.43</ele>
        <time>2016-10-27T12:34:43Z</time>
      </trkpt>
      <trkpt lat="42.84147" lon="1.45212">
        <ele>1405.58</ele>
        <time>2016-10-27T12:34:58Z</time>
      </trkpt>
      <trkpt lat="42.84141" lon="1.45214">
        <ele>1402.22</ele>
        <time>2016-10-27T12:35:10Z</time>
      </trkpt>
      <trkpt lat="42.84134" lon="1.45221">
        <ele>1399.34</ele>
        <time>2016-10-27T12:35:19Z</time>
      </trkpt>
      <trkpt lat="42.84127" lon="1.45233">
        <ele>1395.49</ele>
        <time>2016-10-27T12:35:31Z</time>
      </trkpt>
      <trkpt lat="42.84121" lon="1.45222">
        <ele>1392.61</ele>
        <time>2016-10-27T12:35:47Z</time>
      </trkpt>
      <trkpt lat="42.8412" lon="1.4522">
        <ele>1391.17</ele>
        <time>2016-10-27T12:35:51Z</time>
      </trkpt>
      <trkpt lat="42.84114" lon="1.45223">
        <ele>1387.8</ele>
        <time>2016-10-27T12:36:03Z</time>
      </trkpt>
      <trkpt lat="42.84108" lon="1.45233">
        <ele>1386.36</ele>
        <time>2016-10-27T12:36:09Z</time>
      </trkpt>
      <trkpt lat="42.84104" lon="1.45238">
        <ele>1383.96</ele>
        <time>2016-10-27T12:36:13Z</time>
      </trkpt>
      <trkpt lat="42.84098" lon="1.45239">
        <ele>1382.51</ele>
        <time>2016-10-27T12:36:20Z</time>
      </trkpt>
      <trkpt lat="42.84092" lon="1.45248">
        <ele>1378.67</ele>
        <time>2016-10-27T12:36:34Z</time>
      </trkpt>
      <trkpt lat="42.84092" lon="1.45248">
        <ele>1378.67</ele>
        <time>2016-10-27T12:36:35Z</time>
      </trkpt>
      <trkpt lat="42.84088" lon="1.45245">
        <ele>1375.78</ele>
        <time>2016-10-27T12:36:49Z</time>
      </trkpt>
      <trkpt lat="42.84087" lon="1.45243">
        <ele>1374.82</ele>
        <time>2016-10-27T12:36:51Z</time>
      </trkpt>
      <trkpt lat="42.84073" lon="1.45232">
        <ele>1371.46</ele>
        <time>2016-10-27T12:37:04Z</time>
      </trkpt>
      <trkpt lat="42.84058" lon="1.45234">
        <ele>1370.02</ele>
        <time>2016-10-27T12:37:15Z</time>
      </trkpt>
      <trkpt lat="42.84058" lon="1.45236">
        <ele>1368.57</ele>
        <time>2016-10-27T12:37:17Z</time>
      </trkpt>
      <trkpt lat="42.84054" lon="1.45243">
        <ele>1366.65</ele>
        <time>2016-10-27T12:37:26Z</time>
      </trkpt>
      <trkpt lat="42.84043" lon="1.45266">
        <ele>1363.29</ele>
        <time>2016-10-27T12:37:40Z</time>
      </trkpt>
      <trkpt lat="42.84034" lon="1.45282">
        <ele>1360.4</ele>
        <time>2016-10-27T12:37:52Z</time>
      </trkpt>
      <trkpt lat="42.84029" lon="1.45287">
        <ele>1357.52</ele>
        <time>2016-10-27T12:38:01Z</time>
      </trkpt>
      <trkpt lat="42.8402" lon="1.45294">
        <ele>1354.63</ele>
        <time>2016-10-27T12:38:14Z</time>
      </trkpt>
      <trkpt lat="42.84019" lon="1.45295">
        <ele>1354.63</ele>
        <time>2016-10-27T12:38:15Z</time>
      </trkpt>
      <trkpt lat="42.84017" lon="1.45301">
        <ele>1352.71</ele>
        <time>2016-10-27T12:38:23Z</time>
      </trkpt>
      <trkpt lat="42.84007" lon="1.45328">
        <ele>1349.83</ele>
        <time>2016-10-27T12:38:38Z</time>
      </trkpt>
      <trkpt lat="42.83998" lon="1.45352">
        <ele>1347.43</ele>
        <time>2016-10-27T12:38:54Z</time>
      </trkpt>
      <trkpt lat="42.83993" lon="1.4537">
        <ele>1347.91</ele>
        <time>2016-10-27T12:39:07Z</time>
      </trkpt>
      <trkpt lat="42.83995" lon="1.45378">
        <ele>1346.46</ele>
        <time>2016-10-27T12:39:14Z</time>
      </trkpt>
      <trkpt lat="42.83987" lon="1.45394">
        <ele>1343.1</ele>
        <time>2016-10-27T12:39:28Z</time>
      </trkpt>
      <trkpt lat="42.83982" lon="1.45411">
        <ele>1340.22</ele>
        <time>2016-10-27T12:39:42Z</time>
      </trkpt>
      <trkpt lat="42.83975" lon="1.45421">
        <ele>1336.85</ele>
        <time>2016-10-27T12:39:52Z</time>
      </trkpt>
      <trkpt lat="42.83974" lon="1.45426">
        <ele>1334.93</ele>
        <time>2016-10-27T12:40:01Z</time>
      </trkpt>
      <trkpt lat="42.83972" lon="1.4544">
        <ele>1333.01</ele>
        <time>2016-10-27T12:40:26Z</time>
      </trkpt>
      <trkpt lat="42.83971" lon="1.45445">
        <ele>1331.56</ele>
        <time>2016-10-27T12:40:30Z</time>
      </trkpt>
      <trkpt lat="42.83969" lon="1.45462">
        <ele>1328.2</ele>
        <time>2016-10-27T12:40:43Z</time>
      </trkpt>
      <trkpt lat="42.83972" lon="1.45478">
        <ele>1324.83</ele>
        <time>2016-10-27T12:40:57Z</time>
      </trkpt>
      <trkpt lat="42.83964" lon="1.45486">
        <ele>1320.99</ele>
        <time>2016-10-27T12:41:11Z</time>
      </trkpt>
      <trkpt lat="42.83968" lon="1.45509">
        <ele>1317.62</ele>
        <time>2016-10-27T12:41:30Z</time>
      </trkpt>
      <trkpt lat="42.83967" lon="1.45509">
        <ele>1317.14</ele>
        <time>2016-10-27T12:41:32Z</time>
      </trkpt>
      <trkpt lat="42.83959" lon="1.45508">
        <ele>1313.78</ele>
        <time>2016-10-27T12:41:40Z</time>
      </trkpt>
      <trkpt lat="42.83953" lon="1.45496">
        <ele>1309.93</ele>
        <time>2016-10-27T12:41:56Z</time>
      </trkpt>
      <trkpt lat="42.83947" lon="1.45476">
        <ele>1306.57</ele>
        <time>2016-10-27T12:42:09Z</time>
      </trkpt>
      <trkpt lat="42.83946" lon="1.45474">
        <ele>1304.65</ele>
        <time>2016-10-27T12:42:30Z</time>
      </trkpt>
      <trkpt lat="42.83948" lon="1.45482">
        <ele>1302.24</ele>
        <time>2016-10-27T12:42:52Z</time>
      </trkpt>
      <trkpt lat="42.83941" lon="1.45484">
        <ele>1299.36</ele>
        <time>2016-10-27T12:43:00Z</time>
      </trkpt>
      <trkpt lat="42.83941" lon="1.45485">
        <ele>1299.36</ele>
        <time>2016-10-27T12:43:01Z</time>
      </trkpt>
      <trkpt lat="42.83935" lon="1.45497">
        <ele>1295.51</ele>
        <time>2016-10-27T12:43:17Z</time>
      </trkpt>
      <trkpt lat="42.83928" lon="1.45507">
        <ele>1292.15</ele>
        <time>2016-10-27T12:43:28Z</time>
      </trkpt>
      <trkpt lat="42.83922" lon="1.45516">
        <ele>1288.78</ele>
        <time>2016-10-27T12:43:40Z</time>
      </trkpt>
      <trkpt lat="42.83923" lon="1.45521">
        <ele>1285.42</ele>
        <time>2016-10-27T12:43:49Z</time>
      </trkpt>
      <trkpt lat="42.83922" lon="1.45524">
        <ele>1285.42</ele>
        <time>2016-10-27T12:43:53Z</time>
      </trkpt>
      <trkpt lat="42.8392" lon="1.45526">
        <ele>1283.98</ele>
        <time>2016-10-27T12:43:57Z</time>
      </trkpt>
      <trkpt lat="42.83916" lon="1.45535">
        <ele>1281.09</ele>
        <time>2016-10-27T12:44:09Z</time>
      </trkpt>
      <trkpt lat="42.83916" lon="1.45548">
        <ele>1277.25</ele>
        <time>2016-10-27T12:44:21Z</time>
      </trkpt>
      <trkpt lat="42.83916" lon="1.45561">
        <ele>1274.36</ele>
        <time>2016-10-27T12:44:34Z</time>
      </trkpt>
      <trkpt lat="42.8391" lon="1.45574">
        <ele>1270.52</ele>
        <time>2016-10-27T12:44:49Z</time>
      </trkpt>
      <trkpt lat="42.8391" lon="1.45577">
        <ele>1269.56</ele>
        <time>2016-10-27T12:44:51Z</time>
      </trkpt>
      <trkpt lat="42.83914" lon="1.45594">
        <ele>1266.67</ele>
        <time>2016-10-27T12:45:04Z</time>
      </trkpt>
      <trkpt lat="42.8391" lon="1.45606">
        <ele>1263.31</ele>
        <time>2016-10-27T12:45:15Z</time>
      </trkpt>
      <trkpt lat="42.83908" lon="1.45623">
        <ele>1258.5</ele>
        <time>2016-10-27T12:45:27Z</time>
      </trkpt>
      <trkpt lat="42.83907" lon="1.45624">
        <ele>1259.46</ele>
        <time>2016-10-27T12:45:28Z</time>
      </trkpt>
      <trkpt lat="42.83905" lon="1.45629">
        <ele>1258.5</ele>
        <time>2016-10-27T12:45:33Z</time>
      </trkpt>
      <trkpt lat="42.83907" lon="1.45641">
        <ele>1255.14</ele>
        <time>2016-10-27T12:45:47Z</time>
      </trkpt>
      <trkpt lat="42.83904" lon="1.45647">
        <ele>1253.22</ele>
        <time>2016-10-27T12:45:54Z</time>
      </trkpt>
      <trkpt lat="42.83902" lon="1.45659">
        <ele>1249.85</ele>
        <time>2016-10-27T12:46:04Z</time>
      </trkpt>
      <trkpt lat="42.83902" lon="1.4566">
        <ele>1249.85</ele>
        <time>2016-10-27T12:46:05Z</time>
      </trkpt>
      <trkpt lat="42.83901" lon="1.45666">
        <ele>1248.41</ele>
        <time>2016-10-27T12:46:10Z</time>
      </trkpt>
      <trkpt lat="42.83902" lon="1.4568">
        <ele>1245.04</ele>
        <time>2016-10-27T12:46:23Z</time>
      </trkpt>
      <trkpt lat="42.83899" lon="1.45688">
        <ele>1241.2</ele>
        <time>2016-10-27T12:46:33Z</time>
      </trkpt>
      <trkpt lat="42.83899" lon="1.45691">
        <ele>1241.2</ele>
        <time>2016-10-27T12:46:37Z</time>
      </trkpt>
      <trkpt lat="42.83899" lon="1.45693">
        <ele>1239.76</ele>
        <time>2016-10-27T12:46:40Z</time>
      </trkpt>
      <trkpt lat="42.83898" lon="1.4571">
        <ele>1236.39</ele>
        <time>2016-10-27T12:46:52Z</time>
      </trkpt>
      <trkpt lat="42.83898" lon="1.45712">
        <ele>1236.39</ele>
        <time>2016-10-27T12:46:53Z</time>
      </trkpt>
      <trkpt lat="42.83898" lon="1.45741">
        <ele>1233.99</ele>
        <time>2016-10-27T12:47:04Z</time>
      </trkpt>
      <trkpt lat="42.83898" lon="1.45765">
        <ele>1231.11</ele>
        <time>2016-10-27T12:47:23Z</time>
      </trkpt>
      <trkpt lat="42.83895" lon="1.45773">
        <ele>1228.7</ele>
        <time>2016-10-27T12:47:38Z</time>
      </trkpt>
      <trkpt lat="42.83894" lon="1.45779">
        <ele>1226.78</ele>
        <time>2016-10-27T12:47:43Z</time>
      </trkpt>
      <trkpt lat="42.83895" lon="1.45795">
        <ele>1225.34</ele>
        <time>2016-10-27T12:47:49Z</time>
      </trkpt>
      <trkpt lat="42.83895" lon="1.45814">
        <ele>1221.97</ele>
        <time>2016-10-27T12:48:00Z</time>
      </trkpt>
      <trkpt lat="42.83894" lon="1.45843">
        <ele>1219.09</ele>
        <time>2016-10-27T12:48:17Z</time>
      </trkpt>
      <trkpt lat="42.83899" lon="1.45866">
        <ele>1215.24</ele>
        <time>2016-10-27T12:48:35Z</time>
      </trkpt>
      <trkpt lat="42.83899" lon="1.45867">
        <ele>1215.24</ele>
        <time>2016-10-27T12:48:36Z</time>
      </trkpt>
      <trkpt lat="42.83901" lon="1.4588">
        <ele>1213.32</ele>
        <time>2016-10-27T12:48:47Z</time>
      </trkpt>
      <trkpt lat="42.83903" lon="1.45893">
        <ele>1210.92</ele>
        <time>2016-10-27T12:48:57Z</time>
      </trkpt>
      <trkpt lat="42.83905" lon="1.45918">
        <ele>1210.44</ele>
        <time>2016-10-27T12:49:11Z</time>
      </trkpt>
      <trkpt lat="42.83906" lon="1.45938">
        <ele>1208.51</ele>
        <time>2016-10-27T12:49:20Z</time>
      </trkpt>
      <trkpt lat="42.83908" lon="1.45958">
        <ele>1207.55</ele>
        <time>2016-10-27T12:49:40Z</time>
      </trkpt>
      <trkpt lat="42.83904" lon="1.45967">
        <ele>1207.07</ele>
        <time>2016-10-27T12:49:53Z</time>
      </trkpt>
      <trkpt lat="42.83893" lon="1.45974">
        <ele>1207.07</ele>
        <time>2016-10-27T12:50:12Z</time>
      </trkpt>
      <trkpt lat="42.83895" lon="1.45981">
        <ele>1207.55</ele>
        <time>2016-10-27T12:50:37Z</time>
      </trkpt>
      <trkpt lat="42.83896" lon="1.46007">
        <ele>1204.19</ele>
        <time>2016-10-27T12:50:55Z</time>
      </trkpt>
      <trkpt lat="42.83886" lon="1.46029">
        <ele>1202.27</ele>
        <time>2016-10-27T12:51:12Z</time>
      </trkpt>
      <trkpt lat="42.83883" lon="1.46045">
        <ele>1202.27</ele>
        <time>2016-10-27T12:51:30Z</time>
      </trkpt>
      <trkpt lat="42.83883" lon="1.46047">
        <ele>1201.79</ele>
        <time>2016-10-27T12:51:56Z</time>
      </trkpt>
      <trkpt lat="42.83888" lon="1.46055">
        <ele>1200.82</ele>
        <time>2016-10-27T12:52:04Z</time>
      </trkpt>
      <trkpt lat="42.8389" lon="1.46056">
        <ele>1202.27</ele>
        <time>2016-10-27T12:52:06Z</time>
      </trkpt>
      <trkpt lat="42.83892" lon="1.4606">
        <ele>1200.82</ele>
        <time>2016-10-27T12:52:09Z</time>
      </trkpt>
      <trkpt lat="42.83889" lon="1.46084">
        <ele>1199.86</ele>
        <time>2016-10-27T12:52:25Z</time>
      </trkpt>
      <trkpt lat="42.83888" lon="1.46113">
        <ele>1196.98</ele>
        <time>2016-10-27T12:52:43Z</time>
      </trkpt>
      <trkpt lat="42.83889" lon="1.46137">
        <ele>1196.02</ele>
        <time>2016-10-27T12:52:58Z</time>
      </trkpt>
      <trkpt lat="42.83888" lon="1.46148">
        <ele>1196.02</ele>
        <time>2016-10-27T12:53:13Z</time>
      </trkpt>
      <trkpt lat="42.83888" lon="1.46152">
        <ele>1195.54</ele>
        <time>2016-10-27T12:53:46Z</time>
      </trkpt>
      <trkpt lat="42.83885" lon="1.46154">
        <ele>1191.69</ele>
        <time>2016-10-27T12:53:56Z</time>
      </trkpt>
      <trkpt lat="42.83885" lon="1.46154">
        <ele>1198.9</ele>
        <time>2016-10-27T12:53:57Z</time>
      </trkpt>
      <trkpt lat="42.83885" lon="1.46154">
        <ele>1194.58</ele>
        <time>2016-10-27T12:53:58Z</time>
      </trkpt>
      <trkpt lat="42.83883" lon="1.46157">
        <ele>1196.02</ele>
        <time>2016-10-27T12:54:01Z</time>
      </trkpt>
      <trkpt lat="42.83885" lon="1.46164">
        <ele>1195.54</ele>
        <time>2016-10-27T12:54:17Z</time>
      </trkpt>
      <trkpt lat="42.83885" lon="1.46166">
        <ele>1195.54</ele>
        <time>2016-10-27T12:54:20Z</time>
      </trkpt>
      <trkpt lat="42.83882" lon="1.46172">
        <ele>1193.61</ele>
        <time>2016-10-27T12:54:26Z</time>
      </trkpt>
      <trkpt lat="42.8388" lon="1.46182">
        <ele>1192.65</ele>
        <time>2016-10-27T12:54:34Z</time>
      </trkpt>
      <trkpt lat="42.83878" lon="1.46195">
        <ele>1191.69</ele>
        <time>2016-10-27T12:54:42Z</time>
      </trkpt>
      <trkpt lat="42.83877" lon="1.46197">
        <ele>1193.13</ele>
        <time>2016-10-27T12:54:44Z</time>
      </trkpt>
      <trkpt lat="42.83878" lon="1.46201">
        <ele>1191.69</ele>
        <time>2016-10-27T12:54:47Z</time>
      </trkpt>
      <trkpt lat="42.8388" lon="1.46216">
        <ele>1190.25</ele>
        <time>2016-10-27T12:55:02Z</time>
      </trkpt>
      <trkpt lat="42.83887" lon="1.4622">
        <ele>1191.21</ele>
        <time>2016-10-27T12:55:16Z</time>
      </trkpt>
      <trkpt lat="42.83891" lon="1.46237">
        <ele>1189.29</ele>
        <time>2016-10-27T12:55:29Z</time>
      </trkpt>
      <trkpt lat="42.83892" lon="1.46238">
        <ele>1188.33</ele>
        <time>2016-10-27T12:55:30Z</time>
      </trkpt>
      <trkpt lat="42.83894" lon="1.46246">
        <ele>1189.77</ele>
        <time>2016-10-27T12:55:35Z</time>
      </trkpt>
      <trkpt lat="42.83896" lon="1.46253">
        <ele>1188.33</ele>
        <time>2016-10-27T12:55:40Z</time>
      </trkpt>
      <trkpt lat="42.83891" lon="1.46267">
        <ele>1188.81</ele>
        <time>2016-10-27T12:55:55Z</time>
      </trkpt>
      <trkpt lat="42.8389" lon="1.46269">
        <ele>1187.37</ele>
        <time>2016-10-27T12:55:57Z</time>
      </trkpt>
      <trkpt lat="42.83891" lon="1.46293">
        <ele>1188.81</ele>
        <time>2016-10-27T12:56:11Z</time>
      </trkpt>
      <trkpt lat="42.83891" lon="1.46293">
        <ele>1188.81</ele>
        <time>2016-10-27T12:56:12Z</time>
      </trkpt>
      <trkpt lat="42.83891" lon="1.46295">
        <ele>1188.81</ele>
        <time>2016-10-27T12:56:22Z</time>
      </trkpt>
      <trkpt lat="42.83895" lon="1.46299">
        <ele>1187.37</ele>
        <time>2016-10-27T12:56:26Z</time>
      </trkpt>
      <trkpt lat="42.83897" lon="1.46305">
        <ele>1186.88</ele>
        <time>2016-10-27T12:56:31Z</time>
      </trkpt>
      <trkpt lat="42.83899" lon="1.46311">
        <ele>1186.88</ele>
        <time>2016-10-27T12:56:35Z</time>
      </trkpt>
      <trkpt lat="42.83906" lon="1.46331">
        <ele>1185.92</ele>
        <time>2016-10-27T12:56:50Z</time>
      </trkpt>
      <trkpt lat="42.83908" lon="1.46335">
        <ele>1186.4</ele>
        <time>2016-10-27T12:56:56Z</time>
      </trkpt>
      <trkpt lat="42.83901" lon="1.46341">
        <ele>1185.92</ele>
        <time>2016-10-27T12:57:13Z</time>
      </trkpt>
      <trkpt lat="42.83897" lon="1.46347">
        <ele>1185.92</ele>
        <time>2016-10-27T12:57:47Z</time>
      </trkpt>
      <trkpt lat="42.83901" lon="1.46374">
        <ele>1185.44</ele>
        <time>2016-10-27T12:58:04Z</time>
      </trkpt>
      <trkpt lat="42.839" lon="1.46402">
        <ele>1184</ele>
        <time>2016-10-27T12:58:19Z</time>
      </trkpt>
      <trkpt lat="42.839" lon="1.46404">
        <ele>1184</ele>
        <time>2016-10-27T12:58:20Z</time>
      </trkpt>
      <trkpt lat="42.83898" lon="1.46414">
        <ele>1184</ele>
        <time>2016-10-27T12:58:27Z</time>
      </trkpt>
      <trkpt lat="42.83893" lon="1.46437">
        <ele>1182.56</ele>
        <time>2016-10-27T12:58:43Z</time>
      </trkpt>
      <trkpt lat="42.83888" lon="1.4646">
        <ele>1182.08</ele>
        <time>2016-10-27T12:58:59Z</time>
      </trkpt>
      <trkpt lat="42.83891" lon="1.46473">
        <ele>1181.12</ele>
        <time>2016-10-27T12:59:08Z</time>
      </trkpt>
      <trkpt lat="42.83892" lon="1.4648">
        <ele>1182.08</ele>
        <time>2016-10-27T12:59:13Z</time>
      </trkpt>
      <trkpt lat="42.83899" lon="1.46504">
        <ele>1179.67</ele>
        <time>2016-10-27T12:59:30Z</time>
      </trkpt>
      <trkpt lat="42.83904" lon="1.46524">
        <ele>1179.67</ele>
        <time>2016-10-27T12:59:46Z</time>
      </trkpt>
      <trkpt lat="42.83902" lon="1.46531">
        <ele>1179.19</ele>
        <time>2016-10-27T13:00:15Z</time>
      </trkpt>
      <trkpt lat="42.83902" lon="1.46532">
        <ele>1179.19</ele>
        <time>2016-10-27T13:00:16Z</time>
      </trkpt>
      <trkpt lat="42.83899" lon="1.46541">
        <ele>1180.16</ele>
        <time>2016-10-27T13:00:22Z</time>
      </trkpt>
      <trkpt lat="42.83906" lon="1.4656">
        <ele>1177.27</ele>
        <time>2016-10-27T13:00:35Z</time>
      </trkpt>
      <trkpt lat="42.83913" lon="1.46582">
        <ele>1176.31</ele>
        <time>2016-10-27T13:00:53Z</time>
      </trkpt>
      <trkpt lat="42.83916" lon="1.46599">
        <ele>1175.35</ele>
        <time>2016-10-27T13:01:05Z</time>
      </trkpt>
      <trkpt lat="42.83919" lon="1.46604">
        <ele>1173.91</ele>
        <time>2016-10-27T13:01:08Z</time>
      </trkpt>
      <trkpt lat="42.83916" lon="1.46634">
        <ele>1171.5</ele>
        <time>2016-10-27T13:01:27Z</time>
      </trkpt>
      <trkpt lat="42.83913" lon="1.46656">
        <ele>1168.62</ele>
        <time>2016-10-27T13:01:41Z</time>
      </trkpt>
      <trkpt lat="42.8391" lon="1.46684">
        <ele>1166.7</ele>
        <time>2016-10-27T13:01:57Z</time>
      </trkpt>
      <trkpt lat="42.8391" lon="1.46693">
        <ele>1166.22</ele>
        <time>2016-10-27T13:02:02Z</time>
      </trkpt>
      <trkpt lat="42.83908" lon="1.467">
        <ele>1164.77</ele>
        <time>2016-10-27T13:02:06Z</time>
      </trkpt>
      <trkpt lat="42.83907" lon="1.46711">
        <ele>1164.29</ele>
        <time>2016-10-27T13:02:11Z</time>
      </trkpt>
      <trkpt lat="42.83902" lon="1.46731">
        <ele>1162.85</ele>
        <time>2016-10-27T13:02:27Z</time>
      </trkpt>
      <trkpt lat="42.83901" lon="1.46735">
        <ele>1162.85</ele>
        <time>2016-10-27T13:02:30Z</time>
      </trkpt>
      <trkpt lat="42.83896" lon="1.46764">
        <ele>1159.01</ele>
        <time>2016-10-27T13:02:51Z</time>
      </trkpt>
      <trkpt lat="42.83891" lon="1.46789">
        <ele>1156.6</ele>
        <time>2016-10-27T13:03:09Z</time>
      </trkpt>
      <trkpt lat="42.83889" lon="1.46812">
        <ele>1154.2</ele>
        <time>2016-10-27T13:03:25Z</time>
      </trkpt>
      <trkpt lat="42.83885" lon="1.46835">
        <ele>1151.32</ele>
        <time>2016-10-27T13:03:42Z</time>
      </trkpt>
      <trkpt lat="42.83884" lon="1.46868">
        <ele>1147.95</ele>
        <time>2016-10-27T13:04:02Z</time>
      </trkpt>
      <trkpt lat="42.83879" lon="1.46897">
        <ele>1146.03</ele>
        <time>2016-10-27T13:04:21Z</time>
      </trkpt>
      <trkpt lat="42.83882" lon="1.46917">
        <ele>1144.11</ele>
        <time>2016-10-27T13:04:34Z</time>
      </trkpt>
      <trkpt lat="42.83883" lon="1.4692">
        <ele>1145.55</ele>
        <time>2016-10-27T13:04:36Z</time>
      </trkpt>
      <trkpt lat="42.83886" lon="1.46936">
        <ele>1143.14</ele>
        <time>2016-10-27T13:04:53Z</time>
      </trkpt>
      <trkpt lat="42.83887" lon="1.46959">
        <ele>1140.26</ele>
        <time>2016-10-27T13:05:11Z</time>
      </trkpt>
      <trkpt lat="42.83889" lon="1.46975">
        <ele>1137.38</ele>
        <time>2016-10-27T13:05:22Z</time>
      </trkpt>
      <trkpt lat="42.83891" lon="1.47004">
        <ele>1134.49</ele>
        <time>2016-10-27T13:05:38Z</time>
      </trkpt>
      <trkpt lat="42.8389" lon="1.47023">
        <ele>1132.57</ele>
        <time>2016-10-27T13:05:50Z</time>
      </trkpt>
      <trkpt lat="42.8389" lon="1.47025">
        <ele>1132.57</ele>
        <time>2016-10-27T13:05:51Z</time>
      </trkpt>
      <trkpt lat="42.83887" lon="1.47031">
        <ele>1132.57</ele>
        <time>2016-10-27T13:05:56Z</time>
      </trkpt>
      <trkpt lat="42.83876" lon="1.47048">
        <ele>1129.21</ele>
        <time>2016-10-27T13:06:13Z</time>
      </trkpt>
      <trkpt lat="42.83873" lon="1.47063">
        <ele>1126.8</ele>
        <time>2016-10-27T13:06:24Z</time>
      </trkpt>
      <trkpt lat="42.8387" lon="1.47085">
        <ele>1123.92</ele>
        <time>2016-10-27T13:06:42Z</time>
      </trkpt>
      <trkpt lat="42.8387" lon="1.47094">
        <ele>1122.48</ele>
        <time>2016-10-27T13:06:48Z</time>
      </trkpt>
      <trkpt lat="42.83866" lon="1.47116">
        <ele>1119.11</ele>
        <time>2016-10-27T13:07:06Z</time>
      </trkpt>
      <trkpt lat="42.83875" lon="1.47135">
        <ele>1117.67</ele>
        <time>2016-10-27T13:07:23Z</time>
      </trkpt>
      <trkpt lat="42.83876" lon="1.47151">
        <ele>1116.23</ele>
        <time>2016-10-27T13:07:34Z</time>
      </trkpt>
      <trkpt lat="42.83872" lon="1.4718">
        <ele>1113.34</ele>
        <time>2016-10-27T13:07:50Z</time>
      </trkpt>
      <trkpt lat="42.83867" lon="1.47214">
        <ele>1111.42</ele>
        <time>2016-10-27T13:08:10Z</time>
      </trkpt>
      <trkpt lat="42.83866" lon="1.47242">
        <ele>1109.02</ele>
        <time>2016-10-27T13:08:28Z</time>
      </trkpt>
      <trkpt lat="42.8386" lon="1.47271">
        <ele>1108.54</ele>
        <time>2016-10-27T13:08:45Z</time>
      </trkpt>
      <trkpt lat="42.8385" lon="1.47299">
        <ele>1107.1</ele>
        <time>2016-10-27T13:09:04Z</time>
      </trkpt>
      <trkpt lat="42.83848" lon="1.47302">
        <ele>1108.06</ele>
        <time>2016-10-27T13:09:06Z</time>
      </trkpt>
      <trkpt lat="42.83846" lon="1.47311">
        <ele>1107.1</ele>
        <time>2016-10-27T13:09:13Z</time>
      </trkpt>
      <trkpt lat="42.83845" lon="1.47322">
        <ele>1106.61</ele>
        <time>2016-10-27T13:09:21Z</time>
      </trkpt>
      <trkpt lat="42.83855" lon="1.47347">
        <ele>1104.21</ele>
        <time>2016-10-27T13:09:42Z</time>
      </trkpt>
      <trkpt lat="42.83867" lon="1.47378">
        <ele>1101.33</ele>
        <time>2016-10-27T13:10:07Z</time>
      </trkpt>
      <trkpt lat="42.83872" lon="1.47397">
        <ele>1097.96</ele>
        <time>2016-10-27T13:10:20Z</time>
      </trkpt>
      <trkpt lat="42.83872" lon="1.47399">
        <ele>1097.96</ele>
        <time>2016-10-27T13:10:21Z</time>
      </trkpt>
      <trkpt lat="42.83874" lon="1.47429">
        <ele>1094.6</ele>
        <time>2016-10-27T13:10:40Z</time>
      </trkpt>
      <trkpt lat="42.83874" lon="1.47452">
        <ele>1091.71</ele>
        <time>2016-10-27T13:10:53Z</time>
      </trkpt>
      <trkpt lat="42.83875" lon="1.47468">
        <ele>1088.35</ele>
        <time>2016-10-27T13:11:07Z</time>
      </trkpt>
      <trkpt lat="42.83879" lon="1.47499">
        <ele>1085.95</ele>
        <time>2016-10-27T13:11:28Z</time>
      </trkpt>
      <trkpt lat="42.83881" lon="1.47529">
        <ele>1082.58</ele>
        <time>2016-10-27T13:11:46Z</time>
      </trkpt>
      <trkpt lat="42.83884" lon="1.47555">
        <ele>1079.7</ele>
        <time>2016-10-27T13:12:07Z</time>
      </trkpt>
      <trkpt lat="42.83883" lon="1.47563">
        <ele>1078.26</ele>
        <time>2016-10-27T13:12:12Z</time>
      </trkpt>
      <trkpt lat="42.83886" lon="1.4758">
        <ele>1076.33</ele>
        <time>2016-10-27T13:12:24Z</time>
      </trkpt>
      <trkpt lat="42.83893" lon="1.47597">
        <ele>1076.33</ele>
        <time>2016-10-27T13:12:35Z</time>
      </trkpt>
      <trkpt lat="42.83899" lon="1.47623">
        <ele>1075.85</ele>
        <time>2016-10-27T13:12:54Z</time>
      </trkpt>
      <trkpt lat="42.83898" lon="1.47626">
        <ele>1077.78</ele>
        <time>2016-10-27T13:12:56Z</time>
      </trkpt>
      <trkpt lat="42.839" lon="1.47639">
        <ele>1075.85</ele>
        <time>2016-10-27T13:13:04Z</time>
      </trkpt>
      <trkpt lat="42.83901" lon="1.47655">
        <ele>1076.33</ele>
        <time>2016-10-27T13:13:13Z</time>
      </trkpt>
      <trkpt lat="42.83902" lon="1.47658">
        <ele>1077.78</ele>
        <time>2016-10-27T13:13:15Z</time>
      </trkpt>
      <trkpt lat="42.83903" lon="1.47716">
        <ele>1077.29</ele>
        <time>2016-10-27T13:13:51Z</time>
      </trkpt>
      <trkpt lat="42.83902" lon="1.47723">
        <ele>1077.29</ele>
        <time>2016-10-27T13:13:55Z</time>
      </trkpt>
      <trkpt lat="42.83898" lon="1.47757">
        <ele>1077.29</ele>
        <time>2016-10-27T13:14:15Z</time>
      </trkpt>
      <trkpt lat="42.83898" lon="1.47765">
        <ele>1077.78</ele>
        <time>2016-10-27T13:14:20Z</time>
      </trkpt>
      <trkpt lat="42.83899" lon="1.47771">
        <ele>1076.81</ele>
        <time>2016-10-27T13:14:23Z</time>
      </trkpt>
      <trkpt lat="42.839" lon="1.47794">
        <ele>1075.37</ele>
        <time>2016-10-27T13:14:38Z</time>
      </trkpt>
      <trkpt lat="42.83902" lon="1.478">
        <ele>1075.37</ele>
        <time>2016-10-27T13:14:43Z</time>
      </trkpt>
      <trkpt lat="42.83908" lon="1.47826">
        <ele>1073.93</ele>
        <time>2016-10-27T13:15:02Z</time>
      </trkpt>
      <trkpt lat="42.83921" lon="1.47853">
        <ele>1071.53</ele>
        <time>2016-10-27T13:15:21Z</time>
      </trkpt>
      <trkpt lat="42.83923" lon="1.47861">
        <ele>1071.05</ele>
        <time>2016-10-27T13:15:26Z</time>
      </trkpt>
      <trkpt lat="42.83931" lon="1.47888">
        <ele>1068.16</ele>
        <time>2016-10-27T13:15:46Z</time>
      </trkpt>
      <trkpt lat="42.83936" lon="1.47912">
        <ele>1065.76</ele>
        <time>2016-10-27T13:16:03Z</time>
      </trkpt>
      <trkpt lat="42.83943" lon="1.47944">
        <ele>1062.87</ele>
        <time>2016-10-27T13:16:23Z</time>
      </trkpt>
      <trkpt lat="42.83953" lon="1.47969">
        <ele>1060.47</ele>
        <time>2016-10-27T13:16:43Z</time>
      </trkpt>
      <trkpt lat="42.83954" lon="1.47977">
        <ele>1059.03</ele>
        <time>2016-10-27T13:16:48Z</time>
      </trkpt>
      <trkpt lat="42.83958" lon="1.48007">
        <ele>1058.55</ele>
        <time>2016-10-27T13:17:06Z</time>
      </trkpt>
      <trkpt lat="42.83951" lon="1.48039">
        <ele>1057.59</ele>
        <time>2016-10-27T13:17:28Z</time>
      </trkpt>
      <trkpt lat="42.83957" lon="1.4807">
        <ele>1056.15</ele>
        <time>2016-10-27T13:17:46Z</time>
      </trkpt>
      <trkpt lat="42.83962" lon="1.481">
        <ele>1054.22</ele>
        <time>2016-10-27T13:18:05Z</time>
      </trkpt>
      <trkpt lat="42.83962" lon="1.48102">
        <ele>1054.22</ele>
        <time>2016-10-27T13:18:06Z</time>
      </trkpt>
      <trkpt lat="42.83967" lon="1.48132">
        <ele>1052.78</ele>
        <time>2016-10-27T13:18:25Z</time>
      </trkpt>
      <trkpt lat="42.83968" lon="1.4814">
        <ele>1052.78</ele>
        <time>2016-10-27T13:18:30Z</time>
      </trkpt>
      <trkpt lat="42.83971" lon="1.48159">
        <ele>1052.78</ele>
        <time>2016-10-27T13:18:42Z</time>
      </trkpt>
      <trkpt lat="42.83973" lon="1.48164">
        <ele>1051.82</ele>
        <time>2016-10-27T13:18:45Z</time>
      </trkpt>
      <trkpt lat="42.83976" lon="1.48186">
        <ele>1051.82</ele>
        <time>2016-10-27T13:18:58Z</time>
      </trkpt>
      <trkpt lat="42.83977" lon="1.48218">
        <ele>1050.38</ele>
        <time>2016-10-27T13:19:17Z</time>
      </trkpt>
      <trkpt lat="42.83978" lon="1.48226">
        <ele>1050.38</ele>
        <time>2016-10-27T13:19:23Z</time>
      </trkpt>
      <trkpt lat="42.83979" lon="1.48253">
        <ele>1049.9</ele>
        <time>2016-10-27T13:19:40Z</time>
      </trkpt>
      <trkpt lat="42.83984" lon="1.48283">
        <ele>1049.9</ele>
        <time>2016-10-27T13:19:59Z</time>
      </trkpt>
      <trkpt lat="42.83989" lon="1.48311">
        <ele>1049.9</ele>
        <time>2016-10-27T13:20:17Z</time>
      </trkpt>
      <trkpt lat="42.83993" lon="1.48329">
        <ele>1049.42</ele>
        <time>2016-10-27T13:20:30Z</time>
      </trkpt>
      <trkpt lat="42.83994" lon="1.48334">
        <ele>1047.97</ele>
        <time>2016-10-27T13:20:33Z</time>
      </trkpt>
      <trkpt lat="42.83996" lon="1.48343">
        <ele>1048.45</ele>
        <time>2016-10-27T13:20:38Z</time>
      </trkpt>
      <trkpt lat="42.84" lon="1.48373">
        <ele>1047.49</ele>
        <time>2016-10-27T13:20:57Z</time>
      </trkpt>
      <trkpt lat="42.84003" lon="1.48401">
        <ele>1046.53</ele>
        <time>2016-10-27T13:21:14Z</time>
      </trkpt>
      <trkpt lat="42.84004" lon="1.4841">
        <ele>1046.53</ele>
        <time>2016-10-27T13:21:21Z</time>
      </trkpt>
      <trkpt lat="42.84005" lon="1.48412">
        <ele>1045.57</ele>
        <time>2016-10-27T13:21:23Z</time>
      </trkpt>
      <trkpt lat="42.84015" lon="1.48432">
        <ele>1044.61</ele>
        <time>2016-10-27T13:21:36Z</time>
      </trkpt>
      <trkpt lat="42.84022" lon="1.48447">
        <ele>1045.09</ele>
        <time>2016-10-27T13:21:46Z</time>
      </trkpt>
      <trkpt lat="42.84023" lon="1.48458">
        <ele>1043.17</ele>
        <time>2016-10-27T13:21:54Z</time>
      </trkpt>
      <trkpt lat="42.84029" lon="1.48475">
        <ele>1042.21</ele>
        <time>2016-10-27T13:22:05Z</time>
      </trkpt>
      <trkpt lat="42.84033" lon="1.48493">
        <ele>1038.84</ele>
        <time>2016-10-27T13:22:21Z</time>
      </trkpt>
      <trkpt lat="42.84034" lon="1.48512">
        <ele>1037.4</ele>
        <time>2016-10-27T13:22:35Z</time>
      </trkpt>
      <trkpt lat="42.84039" lon="1.48521">
        <ele>1037.88</ele>
        <time>2016-10-27T13:22:47Z</time>
      </trkpt>
      <trkpt lat="42.84043" lon="1.48527">
        <ele>1036.92</ele>
        <time>2016-10-27T13:23:04Z</time>
      </trkpt>
      <trkpt lat="42.84042" lon="1.48528">
        <ele>1037.4</ele>
        <time>2016-10-27T13:23:21Z</time>
      </trkpt>
      <trkpt lat="42.84043" lon="1.48528">
        <ele>1037.4</ele>
        <time>2016-10-27T13:23:44Z</time>
      </trkpt>
      <trkpt lat="42.84044" lon="1.48529">
        <ele>1036.92</ele>
        <time>2016-10-27T13:24:19Z</time>
      </trkpt>
      <trkpt lat="42.84045" lon="1.4853">
        <ele>1036.92</ele>
        <time>2016-10-27T13:24:50Z</time>
      </trkpt>
    </trkseg>
  </trk>
</gpx>